.

MPMG - Transparência

Contracheque - Verbas indenizatórias e outras remunerações temporárias - Tabela III (Resolução nº 200/2019) - Pós Resolução CNMP 200/2019

Período: 2023 - Abril

Ordem Matrícula Nome Cargo Lotação Verbas Indenizatórias *1 Outras Remunerações Temporárias *2 Data de Referência
Auxílio Alimentação Auxílio Creche Auxílio Saúde Auxílio Transporte Estagiário Indenizações Indenizações e Diligênias Adicionais de Periculosidade e Insalubridade Gratificações Outras Remunerações
1 498900 ABDON MARCIO BARBOSA DA SILVA OFICIAL DO MP ABRE CAMPO - COMARCA; ABRE CAMPO-PJ-01PJ 1.500,00 0,00 578,00 0,00 0,00 0,00 0,00 0,00 0,00 30/04/2023
2 293600 ABELARDO GUIMARAES CASTRO PROMOT.ENTRANC.ESPECIAL BELO HORIZONTE - COMARCA; BH-18PJ VIOLENCIA DOMESTICA-GAB 044PJ 1.500,00 0,00 3.571,05 0,00 17.855,23 0,00 0,00 0,00 545,58 30/04/2023
3 99200 ADALBERTO DE PAULA CHRISTO LEITE PROMOT.ENTRANC.ESPECIAL SÃO JOÃO DEL REI - COMARCA; SAO JOAO DEL REI-PJ-02PJ 1.500,00 0,00 3.571,05 0,00 13.861,74 0,00 0,00 0,00 0,00 30/04/2023
4 177800 ADALBERTO MENEZES FARIA SAMORA OFICIAL DO MP BELO HORIZONTE - COMARCA; DIRET DE PLANOS PROJETOS E PROGRAMAS INST 1.500,00 0,00 578,00 0,00 5.977,03 0,00 0,00 0,00 547,89 30/04/2023
5 306400 ADALBERTO MOREIRA GONCALVES ANALISTA DO MP BELO HORIZONTE - COMARCA; BH-24PJ JUIZO REG BARREIRO-SECRETARIA 1.500,00 0,00 578,00 0,00 5.769,84 0,00 0,00 0,00 528,90 30/04/2023
6 100400 ADELAIDE CRISTINA DE CARVALHO MACHADO PROCURADOR DE JUSTICA BELO HORIZONTE - COMARCA; GABINETE DE PROCURADOR DE JUSTIÇA - SALA 708 1.500,00 0,00 1.392,91 0,00 19.238,41 0,00 0,00 0,00 734,80 30/04/2023
7 96500 ADELIA LAGE DE OLIVEIRA PROCURADOR DE JUSTICA BELO HORIZONTE - COMARCA; GABINETE DE PROCURADOR DE JUSTIÇA - SALA 403 1.500,00 0,00 1.519,54 0,00 8.016,00 0,00 0,00 0,00 734,80 30/04/2023
8 49200 ADEMAR PEREIRA PROMOTOR 2A ENTRANCIA MACHADO - COMARCA; MACHADO-PJ-01PJ 1.500,00 0,00 3.392,49 0,00 25.651,21 0,00 0,00 0,00 734,80 30/04/2023
9 179300 ADENISE AUXILIADORA SOUZA SAD OFICIAL DO MP BARBACENA - COMARCA; BARBACENA-PJ-06PJ 1.500,00 0,00 578,00 0,00 5.749,43 0,00 0,00 0,00 527,03 30/04/2023
10 1602700 ADILON PEREIRA BATISTA ESTAGIARIO PARACATU; COORD REG PP NOROESTE MINAS GERAIS PARACATU 0,00 0,00 0,00 84,00 0,00 0,00 0,00 0,00 0,00 30/04/2023
11 272200 ADILSON BATISTA ORNELAS OFICIAL DO MP LAVRAS - COMARCA; LAVRAS-PJ-SECRETARIA 1.500,00 0,00 578,00 0,00 0,00 0,00 0,00 0,00 0,00 30/04/2023
12 143000 ADILSON DE OLIVEIRA NASCIMENTO PROCURADOR DE JUSTICA BELO HORIZONTE - COMARCA; GABINETE DE PROCURADOR DE JUSTIÇA - SALA 614 1.500,00 0,00 3.759,00 0,00 16.660,37 0,00 0,00 0,00 636,33 30/04/2023
13 380100 ADILSON GONCALVES DE MELO JUNIOR ANALISTA DO MP ARAXÁ - COMARCA; ARAXA-PJ-05PJ 1.500,00 0,00 578,00 0,00 1.712,79 0,00 0,00 0,00 157,01 30/04/2023
14 148800 ADILSON JANUARIO OFICIAL DO MP BELO HORIZONTE - COMARCA; BH-22PJ PES COM DEF E IDOSOS-SECRETARIA 1.500,00 0,00 578,00 0,00 5.206,24 0,00 0,00 0,00 477,24 30/04/2023
15 322601 ADMILSON SILVEIRA ANALISTA DO MP SAO JOAO DO PARAISO COMARCA; SAO JOAO DO PARAISO-PJ-UNPJ 1.500,00 950,00 578,00 0,00 0,00 0,00 0,00 0,00 0,00 30/04/2023
16 333700 ADRIANA ABRITTA TEIXEIRA OFICIAL DO MP BELO HORIZONTE - COMARCA; DIRET DE PESSOAL DO MINISTERIO PUBLICO - DPMP 1.500,00 0,00 578,00 0,00 0,00 0,00 0,00 0,00 0,00 30/04/2023
17 1359300 ADRIANA ANTUNES DOS REIS ESTAGIARIO CONTAGEM; CONTAGEM-PJ-07PJ 0,00 0,00 0,00 216,00 0,00 0,00 0,00 0,00 0,00 30/04/2023
18 468500 ADRIANA APARECIDA FIRMINO ANALISTA DO MP CARATINGA - COMARCA; CARATINGA-PJ-04PJ 1.500,00 0,00 578,00 0,00 0,00 0,00 0,00 0,00 0,00 30/04/2023
19 326100 ADRIANA AUGUSTA AMARAL BELO OFICIAL DO MP BARBACENA - COMARCA; BARBACENA-PJ-08PJ 1.500,00 0,00 578,00 0,00 0,00 0,00 0,00 0,00 0,00 30/04/2023
20 363000 ADRIANA CARVALHO PEREIRA E SILVA COSTA PROMOTOR 2A ENTRANCIA ALÉM PARAÍBA - COMARCA; ALEM PARAIBA-PJ-02PJ 1.500,00 0,00 2.963,10 0,00 16.962,47 0,00 0,00 0,00 0,00 30/04/2023
21 605700 ADRIANA COSTA LIRA OFICIAL DO MP BELO HORIZONTE - COMARCA; CAO-EDUCACAO 1.500,00 0,00 578,00 0,00 0,00 0,00 0,00 0,00 0,00 30/04/2023
22 1597300 ADRIANA CRISTINA DE CARVALHO ESTAGIARIO SANTA RITA DE CALDAS; SANTA RITA DE CALDAS-PJ-UNPJ 0,00 0,00 0,00 156,00 0,00 0,00 0,00 0,00 0,00 30/04/2023
23 541100 ADRIANA CRISTINA DE OLIVEIRA OFICIAL DO MP GUAPÉ - COMARCA; GUAPE-PJ-UNPJ 1.500,00 0,00 578,00 0,00 0,00 0,00 0,00 0,00 0,00 30/04/2023
24 254800 ADRIANA DAS GRACAS FERNANDES ANALISTA DO MP UBERABA - COMARCA; UBERABA-PJ-07PJ 1.500,00 0,00 578,00 0,00 0,00 0,00 0,00 0,00 0,00 30/04/2023
25 217400 ADRIANA DE CARVALHO CATAO BRAGA ASSESSOR ADMINISTRATIVO III BELO HORIZONTE - COMARCA; DIV FISCAL ADM CONT TERCEIRIZACAO 1.500,00 0,00 578,00 0,00 0,00 0,00 0,00 0,00 0,00 30/04/2023
26 434600 ADRIANA FERREIRA DA SILVA ANALISTA DO MP BELO HORIZONTE - COMARCA; BH-14PJ DEFESA CONSUMIDOR-GAB 112PJ 1.500,00 0,00 578,00 0,00 0,00 0,00 0,00 0,00 0,00 30/04/2023
27 499800 ADRIANA FERREIRA TIAGO OFICIAL DO MP SALINAS - COMARCA; SALINAS-PJ-02PJ 1.500,00 0,00 578,00 0,00 0,00 0,00 0,00 0,00 0,00 30/04/2023
28 543400 ADRIANA GUIMARAES NUNES DE PAULA ANALISTA DO MP PATROCÍNIO - COMARCA; PATROCINIO-PJ-01PJ 1.500,00 950,00 578,00 0,00 0,00 0,00 0,00 0,00 1.234,36 30/04/2023
29 471500 ADRIANA HORTA DE CARVALHO RODRIGUES DE SOUSA ANALISTA DO MP BELO HORIZONTE - COMARCA; GRUPO ESP PROM JUST DEF PROB ADM PAT PUB 1.500,00 0,00 578,00 0,00 0,00 0,00 0,00 0,00 0,00 30/04/2023
30 314300 ADRIANA JULIA DE SOUZA PROMOT.ENTRANC.ESPECIAL BELO HORIZONTE - COMARCA; BH-26 CRIME CONT CRIAN ADOL-GAB 169PJ 1.500,00 0,00 3.571,05 0,00 11.903,48 0,00 0,00 0,00 545,58 30/04/2023
31 1471700 ADRIANA MARTINS DE ALBUQUERQUE ESTAGIARIO BELO HORIZONTE; BH-12PJ JUIZO CRIMINAL-GAB 100PJ 0,00 0,00 0,00 240,00 0,00 0,00 0,00 0,00 0,00 30/04/2023
32 86400 ADRIANA MOREIRA CALDEIRA BRANT OFICIAL DO MP BELO HORIZONTE - COMARCA; BH-21PJ TUTELA FUNDACOES-SECRETARIA 1.500,00 0,00 578,00 0,00 0,00 0,00 0,00 0,00 0,00 30/04/2023
33 480700 ADRIANA MOREIRA DE AVELLAR CEZILIO OFICIAL DO MP BELO HORIZONTE - COMARCA; BH-12PJ JUIZO CRIMINAL-SECRETARIA 1.500,00 0,00 578,00 0,00 0,00 0,00 0,00 0,00 0,00 30/04/2023
34 326000 ADRIANA PEREIRA CARNEIRO RESENDE OFICIAL DO MP BELO HORIZONTE - COMARCA; BH-25PJ DEFESA DA EDUCACAO-SECRETARIA 1.500,00 0,00 578,00 0,00 0,00 0,00 0,00 0,00 0,00 30/04/2023
35 502200 ADRIANA PETRUCCI DAVINA OFICIAL DO MP PATROCÍNIO - COMARCA; PATROCINIO-PJ-01PJ 1.500,00 950,00 578,00 0,00 0,00 0,00 0,00 0,00 0,00 30/04/2023
36 685200 ADRIANA PRATES DOS SANTOS PROMOTOR SUBSTITUTO CARMO DO PARANAÍBA - COMARCA; CARMO DO PARANAIBA-PJ-02PJ 1.500,00 0,00 2.553,96 0,00 16.114,35 0,00 0,00 0,00 492,38 30/04/2023
37 201900 ADRIANA REIS PIMENTA OFICIAL DO MP TEÓFILO OTONI - COMARCA; TEOFILO OTONI-PJ-03PJ 1.500,00 0,00 578,00 0,00 5.749,43 0,00 0,00 0,00 527,03 30/04/2023
38 278700 ADRIANA RODRIGUES PINTO COELHO AMARAL ANALISTA DO MP BELO HORIZONTE - COMARCA; CGMP-DIR ESTAGIO PROBATORIO E ORIENT 1.500,00 0,00 578,00 0,00 0,00 0,00 0,00 0,00 0,00 30/04/2023
39 468000 ADRIANA SANTOS DE SANTANA MOREIRA ANALISTA DO MP GOVERNADOR VALADARES - COMARCA; GAECO REGIONAL DE GOVERNADOR VALADARES 1.500,00 0,00 578,00 0,00 0,00 0,00 0,00 0,00 0,00 30/04/2023
40 290900 ADRIANA TORRES BECK PROMOT.ENTRANC.ESPECIAL BELO HORIZONTE - COMARCA; BH-23PJ INFRACIONAL-GAB COOPJ 1.500,00 0,00 3.571,05 0,00 11.903,48 0,00 0,00 0,00 545,58 30/04/2023
41 194700 ADRIANA TSUKIDE OFICIAL DO MP UBERABA - COMARCA; COORD REG BACIAS PARANAIBA BAIXO RIO GRANDE 1.500,00 0,00 578,00 0,00 5.749,43 0,00 0,00 0,00 527,03 30/04/2023
42 291500 ADRIANA VITAL DO VALLE PROMOT.ENTRANC.ESPECIAL SÃO JOÃO DEL REI - COMARCA; SAO JOAO DEL REI-PJ-06PJ 1.500,00 0,00 3.571,05 0,00 5.951,74 0,00 0,00 0,00 545,58 30/04/2023
43 212900 ADRIANO ARANTES BOZOLA PROMOT.ENTRANC.ESPECIAL UBERLÂNDIA - COMARCA; UBERLANDIA-PJ-21PJ 1.500,00 0,00 3.571,05 0,00 22.663,08 0,00 0,00 0,00 577,07 30/04/2023
44 174200 ADRIANO BOTELHO ESTRELA PROMOT.ENTRANC.ESPECIAL BELO HORIZONTE - COMARCA; BH-12PJ JUIZO CRIMINAL-GAB 095PJ 1.500,00 0,00 1.899,42 0,00 13.277,70 0,00 0,00 0,00 608,56 30/04/2023
45 465500 ADRIANO CASSIANO MATOS ANALISTA DO MP ARAXÁ - COMARCA; ARAXA-PJ-02PJ 1.500,00 0,00 578,00 0,00 0,00 0,00 0,00 0,00 0,00 30/04/2023
46 500500 ADRIANO DE ALMEIDA SILVA OFICIAL DO MP UBERABA - COMARCA; UBERABA-PJ-12PJ 1.500,00 950,00 578,00 0,00 0,00 0,00 0,00 0,00 0,00 30/04/2023
47 187200 ADRIANO DE FREITAS MARON OFICIAL DO MP PONTE NOVA - COMARCA; PONTE NOVA-PJ-03PJ 1.500,00 0,00 578,00 0,00 4.617,72 0,00 0,00 0,00 423,29 30/04/2023
48 344000 ADRIANO DUTRA GOMES DE FARIA PROMOT.ENTRANC.ESPECIAL VESPASIANO - COMARCA; VESPASIANO-PJ-04PJ 1.500,00 0,00 3.571,05 0,00 23.806,97 0,00 0,00 0,00 545,58 30/04/2023
49 477900 ADRIANO FERREIRA DE ALMEIDA OFICIAL DO MP TAIOBEIRAS - COMARCA; TAIOBEIRAS-PJ-UNPJ 1.500,00 0,00 578,00 0,00 0,00 1.640,10 0,00 0,00 0,00 30/04/2023
50 1301100 ADRIANO GUILHERME SILVA ESTAGIARIO POMPEU; POMPEU-PJ-UNPJ 0,00 0,00 0,00 168,00 0,00 0,00 0,00 0,00 0,00 30/04/2023
51 269101 ADRIANO PEREIRA SILVA ANALISTA DO MP UBERABA - COMARCA; UBERABA-PJ-02PJ 1.500,00 0,00 578,00 0,00 0,00 0,00 0,00 0,00 0,00 30/04/2023
52 414200 ADRIANO RODRIGUES FERNANDES ANALISTA DO MP CARANDAÍ - COMARCA; CARANDAI-PJ-UNPJ 1.500,00 0,00 578,00 0,00 0,00 0,00 0,00 0,00 0,00 30/04/2023
53 715300 ADRIANO SCHER DORNELAS 2O. SARGENTO BELO HORIZONTE - COMARCA; NUCLEO DE COMBATE AOS CRIMES AMBIENTAIS 1.500,00 0,00 0,00 0,00 0,00 0,00 0,00 0,00 0,00 30/04/2023
54 536700 ADRIELLE COSTA MARIA MOURAO FIGUEIREDO OFICIAL DO MP SERRO - COMARCA; SERRO-PJ-SECRETARIA 1.500,00 950,00 578,00 0,00 0,00 0,00 0,00 0,00 0,00 30/04/2023
55 1570400 ADRIELLEN ALVES ARAUJO ESTAGIARIO MONTES CLAROS; MONTES CLAROS-PJ-14PJ 0,00 0,00 0,00 240,00 0,00 0,00 0,00 0,00 0,00 30/04/2023
56 1500100 ADRIELLY BIANQUY ALVES DA SILVA ESTAGIARIO LAJINHA; LAJINHA-PJ-UNPJ 0,00 0,00 0,00 240,00 0,00 0,00 0,00 0,00 0,00 30/04/2023
57 514300 ADRIENE DAMASCENO BRAGA ANALISTA DO MP ALFENAS - COMARCA; ALFENAS-PJ-03PJ 1.500,00 0,00 578,00 0,00 0,00 0,00 0,00 0,00 0,00 30/04/2023
58 254600 ADRIENE DOMINGUES COSTA ANALISTA DO MP BELO HORIZONTE - COMARCA; SUPER DE GESTAO DE PESSOAS-LOTACAO TEMPORARIA
59 252001 ADRIENE GOMES BARRETO ANALISTA DO MP BELO HORIZONTE - COMARCA; BH-19PJ SAUDE-SECRETARIA 047PJ 1.500,00 0,00 578,00 0,00 5.616,25 0,00 0,00 0,00 514,82 30/04/2023
60 84100 ADROALDO JUNQUEIRA AYRES NETO PROMOT.ENTRANC.ESPECIAL UBERABA - COMARCA; UBERABA-PJ-12PJ 1.500,00 0,00 3.418,96 0,00 25.651,21 0,00 0,00 0,00 734,80 30/04/2023
61 714800 ADSON GUSTAVO DE OLIVEIRA ASSESSOR PROCURADOR JUSTICA BELO HORIZONTE - COMARCA; GABINETE DE PROCURADOR DE JUSTIÇA - SALA 803 1.500,00 0,00 578,00 0,00 0,00 0,00 0,00 0,00 0,00 30/04/2023
62 724600 AECIO BRAS SILVA JUNIOR ASSESSOR PROMOTOR JUSTICA BAMBUÍ - COMARCA; BAMBUI-PJ-UNPJ 1.500,00 0,00 578,00 0,00 0,00 0,00 0,00 0,00 0,00 30/04/2023
63 162700 AECIO RABELO PROMOTOR 2A ENTRANCIA LAVRAS - COMARCA; LAVRAS-PJ-04PJ 1.500,00 0,00 3.013,76 0,00 17.941,60 0,00 0,00 0,00 548,22 30/04/2023
64 97600 AFONSO HENRIQUE DE MIRANDA TEIXEIRA PROCURADOR DE JUSTICA BELO HORIZONTE - COMARCA; CAO-CONFLITOS AGRARIOS 1.500,00 0,00 2.912,45 0,00 32.064,01 0,00 0,00 0,00 734,80 30/04/2023
65 1517000 AFRANIO HENRIQUE PIMENTA BITTENCOURT ESTAGIARIO BOCAIUVA; BOCAIUVA-PJ-03PJ 0,00 0,00 0,00 228,00 0,00 0,00 0,00 0,00 0,00 30/04/2023
66 1600300 AGATHA EMMANUELLE COSTA AMORIM ESTAGIARIO SETE LAGOAS; SETE LAGOAS-PJ-11PJ 0,00 0,00 0,00 108,00 0,00 0,00 0,00 0,00 0,00 30/04/2023
67 610000 AGENOR ANDRADE LEAO PROMOT.ENTRANC.ESPECIAL TEÓFILO OTONI - COMARCA; TEOFILO OTONI-PJ-05PJ 1.500,00 0,00 3.485,91 0,00 17.855,23 0,00 0,00 0,00 545,58 30/04/2023
68 302500 AGENOR JOSE DA SILVA JUNIOR ANALISTA DO MP JUIZ DE FORA - COMARCA; JUIZ DE FORA-PJ-07PJ 1.500,00 0,00 578,00 0,00 5.769,84 0,00 0,00 0,00 528,90 30/04/2023
69 344100 AGNALDO LUCAS COTRIM PROMOT.ENTRANC.ESPECIAL POUSO ALEGRE - COMARCA; POUSO ALEGRE-PJ-02PJ 1.500,00 0,00 2.735,17 0,00 23.806,97 0,00 0,00 0,00 545,58 30/04/2023
70 67400 AIDA FERNANDES LISBOA MARINHO PROCURADOR DE JUSTICA BELO HORIZONTE - COMARCA; GABINETE DE PROCURADOR DE JUSTIÇA - SALA 604 1.500,00 0,00 3.759,00 0,00 20.841,61 0,00 0,00 0,00 734,80 30/04/2023
71 1575900 AILA TAMIRES DA COSTA ESTAGIARIO POUSO ALEGRE; POUSO ALEGRE-PJ-03PJ 0,00 0,00 0,00 240,00 0,00 0,00 0,00 0,00 0,00 30/04/2023
72 1561000 AILANA LAUREN DE PAIVA MATA ESTAGIARIO MIRADOURO; MIRADOURO-PJ-UNPJ 0,00 0,00 0,00 240,00 0,00 0,00 0,00 0,00 0,00 30/04/2023
73 357500 AILSON WAGNER DE ALENCAR SILVA OFICIAL DO MP BELO HORIZONTE - COMARCA; BH-12PJ JUIZO CRIMINAL-SECRETARIA 1.500,00 0,00 578,00 0,00 837,76 0,00 0,00 0,00 76,79 30/04/2023
74 366400 AILTON ALEXSSANDRO ALVES OFICIAL DO MP PARÁ DE MINAS - COMARCA; PARA DE MINAS-PJ-05PJ 1.500,00 0,00 578,00 0,00 0,00 0,00 0,00 0,00 0,00 30/04/2023
75 318900 AILTON DE CASTRO RIBEIRO JUNIOR OFICIAL DO MP CANDEIAS - COMARCA; CANDEIAS-PJ-UNPJ 1.500,00 0,00 578,00 0,00 0,00 0,00 0,00 0,00 0,00 30/04/2023
76 533100 AIMARA DE BRITTO DIAS LEITE CABALEIRO PROMOTOR SUBSTITUTO RIBEIRÃO DAS NEVES - COMARCA; RIBEIRAO DAS NEVES-PJ-11PJ 1.500,00 0,00 3.222,87 0,00 21.485,80 0,00 0,00 0,00 492,38 30/04/2023
77 439100 AIRTON BATISTA COSTA NETO NEPOMUCENO PROMOTOR 2A ENTRANCIA ITUIUTABA - COMARCA; ITUIUTABA-PJ-04PJ 1.500,00 0,00 3.392,49 0,00 16.962,47 0,00 0,00 0,00 518,30 30/04/2023
78 341600 ALAM BAENA BERTOLLA DOS SANTOS PROMOTOR 2A ENTRANCIA ARAGUARI - COMARCA; ARAGUARI-PJ-05PJ 1.500,00 0,00 3.392,49 0,00 16.962,47 0,00 0,00 0,00 518,30 30/04/2023
79 175700 ALAN CARRIJO RAMOS PROMOTOR 1A ENTRANCIA PRATÁPOLIS - COMARCA; PRATAPOLIS-PJ-UNPJ 1.500,00 0,00 3.222,87 0,00 17.044,51 0,00 0,00 0,00 520,80 30/04/2023
80 1577200 ALAN FELIPE GUIMARAES MOREIRA ESTAGIARIO SETE LAGOAS; SETE LAGOAS-PJ-05PJ 0,00 0,00 0,00 240,00 0,00 0,00 0,00 0,00 0,00 30/04/2023
81 464400 ALAN MONTEIRO GASPAR ANALISTA DO MP SETE LAGOAS - COMARCA; SETE LAGOAS-PJ-08PJ 1.500,00 0,00 578,00 0,00 0,00 0,00 0,00 0,00 0,00 30/04/2023
82 1591400 ALANA BARCELOS DA ROCHA ESTAGIARIO SANTA LUZIA; SANTA LUZIA-PJ-07PJ 0,00 0,00 0,00 240,00 0,00 0,00 0,00 0,00 0,00 30/04/2023
83 492000 ALANA DE CASTRO FREITAS OFICIAL DO MP BELO HORIZONTE - COMARCA; SECRETARIA DO PROCON-MG 1.500,00 0,00 578,00 0,00 0,00 0,00 0,00 0,00 0,00 30/04/2023
84 306700 ALANA MARCIA DE OLIVEIRA OFICIAL DO MP BELO HORIZONTE - COMARCA; DIRETORIA DE ADMINISTRACAO FINANCEIRA 1.500,00 0,00 578,00 0,00 0,00 0,00 0,00 0,00 0,00 30/04/2023
85 1523000 ALANA REZENDE BELTRAME ESTAGIARIO DIVINOPOLIS; DIVINOPOLIS-PJ-05PJ 0,00 0,00 0,00 240,00 0,00 0,00 0,00 0,00 0,00 30/04/2023
86 324500 ALANMAR COUTINHO COSTA OFICIAL DO MP LEOPOLDINA - COMARCA; LEOPOLDINA-PJ-02PJ 1.500,00 0,00 578,00 0,00 0,00 0,00 0,00 0,00 0,00 30/04/2023
87 170800 ALBERTO BOGLIOLO SIRIHAL PROMOT.ENTRANC.ESPECIAL BELO HORIZONTE - COMARCA; BH-05PJ JUIZO SUCESSÕES-GAB CARGO 045PJ 1.500,00 0,00 2.938,13 0,00 26.555,40 0,00 0,00 0,00 608,56 30/04/2023
88 407300 ALBERTO LUIZ SOARES DE OLIVEIRA ANALISTA DO MP BELO HORIZONTE - COMARCA; DIRETORIA DE PROJETOS DE EDIFICACOES 1.500,00 0,00 578,00 0,00 0,00 0,00 0,00 0,00 0,00 30/04/2023
89 118200 ALBERTO PEREIRA DA COSTA OFICIAL DO MP DORES DO INDAIÁ - COMARCA; DORES DO INDAIA-PJ-UNPJ 1.500,00 0,00 578,00 0,00 5.206,23 0,00 0,00 0,00 477,24 30/04/2023
90 72000 ALBINO VITORIO BERNARDO PROCURADOR DE JUSTICA BELO HORIZONTE - COMARCA; GABINETE DE PROCURADOR DE JUSTIÇA - SALA 710 1.500,00 0,00 1.519,54 0,00 32.064,01 0,00 0,00 0,00 734,80 30/04/2023
91 660700 ALCIDEZIO JOSE DE OLIVEIRA BISPO JUNIOR PROMOT.ENTRANC.ESPECIAL CARATINGA - COMARCA; CARATINGA-PJ-01PJ 1.500,00 0,00 3.571,05 0,00 17.855,23 0,00 0,00 0,00 545,58 30/04/2023
92 282400 ALCILENE MARISE DE ARAUJO ANALISTA DO MP BELO HORIZONTE - COMARCA; BH-23PJ INF-FISC MED SOC FEC 1.500,00 0,00 578,00 0,00 5.998,28 0,00 0,00 0,00 549,84 30/04/2023
93 112600 ALCIONE DA MOTA JARDIM OFICIAL DO MP BELO HORIZONTE - COMARCA; CAO-CRIANCAS E ADOLESCENTES-SECRETARIA 1.500,00 0,00 578,00 0,00 0,00 0,00 0,00 0,00 0,00 30/04/2023
94 396400 ALCIONE DE FREITAS E SILVA ANALISTA DO MP BELO HORIZONTE - COMARCA; ASSESS JUR DO CONS SUPERIOR DO MINISTERIO PUB 1.500,00 0,00 578,00 0,00 0,00 0,00 0,00 0,00 0,00 30/04/2023
95 657400 ALCIONE MARIA FERREIRA ASSESSOR PROCURADOR JUSTICA BELO HORIZONTE - COMARCA; GABINETE DE PROCURADOR DE JUSTIÇA - SALA 610 1.500,00 950,00 578,00 0,00 5.991,41 0,00 0,00 0,00 549,21 30/04/2023
96 161600 ALCIONE NERY SOUZA ASSESSOR ADMINISTRATIVO III BELO HORIZONTE - COMARCA; BH-18PJ DIREITOS HUMANOS-SECRETARIA 1.500,00 0,00 578,00 0,00 0,00 0,00 0,00 0,00 0,00 30/04/2023
97 92000 ALCIR ARANTES PROMOT.ENTRANC.ESPECIAL UBERABA - COMARCA; UBERABA-PJ-03PJ 1.500,00 0,00 3.571,05 0,00 32.064,01 0,00 0,00 0,00 734,80 30/04/2023
98 376000 ALDA GOMES LANA OFICIAL DO MP BELO HORIZONTE - COMARCA; BH-18PJ VIOLENCIA DOMESTICA-SECRETARIA 1.500,00 0,00 578,00 0,00 2.567,47 0,00 0,00 0,00 235,35 30/04/2023
99 148000 ALDA MARTINS SIMOES OFICIAL DO MP BELO HORIZONTE - COMARCA; BH-23PJ CIVEL- FISC ENT AB POL 1.500,00 0,00 578,00 0,00 0,00 0,00 0,00 0,00 0,00 30/04/2023
100 457700 ALDERICO DE CARVALHO JUNIOR PROMOTOR 2A ENTRANCIA BELO HORIZONTE - COMARCA; PROC JUST ATUACAO TRIBUNAIS SUPERIORES-GAB002 1.500,00 0,00 3.392,49 0,00 16.962,47 0,00 0,00 0,00 518,30 30/04/2023
101 318400 ALDO CREPALDI JUNIOR OFICIAL DO MP BELO HORIZONTE - COMARCA; DIVISAO DE MATERIAIS 1.500,00 0,00 578,00 0,00 0,00 0,00 0,00 0,00 0,00 30/04/2023
102 1434100 ALECSANDER CARDOSO ESTAGIARIO ANDRADAS; ANDRADAS-PJ-02PJ 0,00 0,00 0,00 216,00 0,00 0,00 0,00 0,00 0,00 30/04/2023
103 604500 ALENIZE APARECIDA RODRIGUES HENRIQUE OFICIAL DO MP RIO NOVO - COMARCA; RIO NOVO-PJ-SECRETARIA 1.500,00 0,00 578,00 0,00 0,00 0,00 0,00 0,00 0,00 30/04/2023
104 1574100 ALESANDY DOS SANTOS FERNANDES ESTAGIARIO 0,00 0,00 0,00 240,00 0,00 0,00 0,00 0,00 0,00 30/04/2023
105 197900 ALESSA DE SOUSA E SILVA OFICIAL DO MP OLIVEIRA - COMARCA; OLIVEIRA-PJ-02PJ 1.500,00 0,00 578,00 0,00 0,00 253,23 0,00 0,00 0,00 30/04/2023
106 428500 ALESSANDRA ALVES DINIZ OFICIAL DO MP BELO HORIZONTE - COMARCA; CENTRAL DE APOIO TECNICO-SECRETARIA 1.500,00 0,00 578,00 0,00 5.408,42 0,00 0,00 0,00 495,77 30/04/2023
107 1464000 ALESSANDRA BORGES GONCALVES ESTAGIARIO ITUIUTABA; ITUIUTABA-PJ-06PJ 0,00 0,00 0,00 240,00 0,00 0,00 0,00 0,00 0,00 30/04/2023
108 286801 ALESSANDRA BOTELHO JUNQUEIRA DE MENEZES ANALISTA DO MP PASSOS - COMARCA; PASSOS-PJ-05PJ 1.500,00 950,00 578,00 0,00 5.076,62 0,00 0,00 0,00 465,36 30/04/2023
109 307000 ALESSANDRA CRISTINA SANTOS MENDES ANALISTA DO MP BELO HORIZONTE - COMARCA; BH-18PJ VIOLENCIA DOMESTICA-SECRETARIA 1.500,00 0,00 578,00 0,00 0,00 0,00 0,00 0,00 0,00 30/04/2023
110 264400 ALESSANDRA DE SOUZA SANTOS ANALISTA DO MP BELO HORIZONTE - COMARCA; SECRETARIA DE ASSUNTOS INTERNACIONAIS 1.500,00 0,00 578,00 0,00 0,00 0,00 0,00 0,00 0,00 30/04/2023
111 441500 ALESSANDRA DRUMMOND DE FIGUEIREDO ROSSI ANALISTA DO MP BELO HORIZONTE - COMARCA; DIRETORIA DE PROJETOS DE EDIFICACOES 1.500,00 0,00 578,00 0,00 0,00 0,00 0,00 0,00 0,00 30/04/2023
112 717700 ALESSANDRA HORTA DIAS DE OLIVEIRA PROMOTOR SUBSTITUTO JACINTO - COMARCA; JACINTO-PJ-UNPJ 1.500,00 0,00 1.544,87 0,00 5.371,45 0,00 0,00 0,00 492,38 30/04/2023
113 1309800 ALESSANDRA KELLY DA SILVA ROCHA ESTAGIARIO PEDRO LEOPOLDO; PEDRO LEOPOLDO-PJ-02PJ 0,00 0,00 0,00 132,00 0,00 0,00 0,00 0,00 0,00 30/04/2023
114 524000 ALESSANDRA LUCIOLI DE BARROS GUERRA ANALISTA DO MP BELO HORIZONTE - COMARCA; BH-19PJ SAUDE--SECRETARIA 1.500,00 0,00 578,00 0,00 1.777,48 0,00 0,00 0,00 162,94 30/04/2023
115 479900 ALESSANDRA MARA ANDRADE DE FARIA OFICIAL DO MP UBERABA - COMARCA; UBERABA-PJ-09PJ 1.500,00 0,00 578,00 0,00 0,00 0,00 0,00 0,00 0,00 30/04/2023
116 226700 ALESSANDRA MARA VASCONCELOS REZENDE OFICIAL DO MP CONSELHEIRO LAFAIETE - COMARCA; CONSELHEIRO LAFAIETE-PJ-07PJ 1.500,00 0,00 578,00 0,00 5.899,83 0,00 0,00 0,00 540,82 30/04/2023
117 196500 ALESSANDRA MARIA RIBEIRO LUCIANO OFICIAL DO MP RIO PARANAÍBA - COMARCA; RIO PARANAIBA-PJ-UNPJ 1.500,00 0,00 578,00 0,00 0,00 0,00 0,00 0,00 0,00 30/04/2023
118 290500 ALESSANDRA PINTO CASSIANO PROMOTOR 2A ENTRANCIA BOA ESPERANÇA - COMARCA; BOA ESPERANCA-PJ-02PJ 1.500,00 0,00 1.570,19 0,00 5.654,16 0,00 0,00 0,00 518,30 30/04/2023
119 651700 ALESSANDRA PROFIRIO SOUZA OFICIAL DO MP NOVA ERA - COMARCA; NOVA ERA-PJ-UNPJ 1.500,00 0,00 578,00 0,00 0,00 0,00 0,00 0,00 0,00 30/04/2023
120 384900 ALESSANDRA RODRIGUES ANALISTA DO MP VISCONDE DO RIO BRANCO - COMARCA; VISCONDE DO RIO BRANCO-PJ-03PJ 1.500,00 950,00 578,00 0,00 4.867,42 0,00 0,00 0,00 446,18 30/04/2023
121 390000 ALESSANDRA SPADANO MASSARA VASCONCELOS OFICIAL DO MP BETIM - COMARCA; BETIM-PJ-10PJ 1.500,00 0,00 578,00 0,00 0,00 0,00 0,00 0,00 1.234,36 30/04/2023
122 1373300 ALESSANDRA VIEIRA RODRIGUES ESTAGIARIO MONTES CLAROS; MONTES CLAROS-PJ-07PJ 0,00 0,00 0,00 216,00 0,00 0,00 0,00 0,00 0,00 30/04/2023
123 426500 ALESSANDRO CAMPOS DE PAIVA ANALISTA DO MP BELO HORIZONTE - COMARCA; DIR CRIACAO E MIDIAS 1.500,00 0,00 578,00 0,00 0,00 0,00 0,00 0,00 0,00 30/04/2023
124 623400 ALESSANDRO DE OLIVEIRA REZENDE ANALISTA DO MP BELO HORIZONTE - COMARCA; DIRET DE INFORMACAO E CONHECIMENTO-DINC/CEAF 1.500,00 0,00 578,00 0,00 0,00 0,00 0,00 0,00 0,00 30/04/2023
125 174100 ALESSANDRO GARCIA SILVA PROMOT.ENTRANC.ESPECIAL DIVINÓPOLIS - COMARCA; DIVINOPOLIS-PJ-12PJ 1.500,00 0,00 2.836,47 0,00 6.571,86 0,00 0,00 0,00 602,42 30/04/2023
126 308201 ALESSANDRO RAMOS MACHADO PROMOTOR 2A ENTRANCIA CAMBUÍ - COMARCA; CAMBUI-PJ-02PJ 1.500,00 0,00 3.392,49 0,00 16.962,48 0,00 0,00 0,00 518,30 30/04/2023
127 665700 ALESSANDRO ROGERIO DIAS DE OLIVEIRA PROMOT.ENTRANC.ESPECIAL PATOS DE MINAS - COMARCA; PATOS DE MINAS-PJ-07PJ 1.500,00 0,00 1.671,50 0,00 17.855,23 0,00 0,00 0,00 545,58 30/04/2023
128 420600 ALESSANDRO SILVA OFICIAL DO MP VISCONDE DO RIO BRANCO - COMARCA; VISCONDE DO RIO BRANCO-PJ-02PJ 1.500,00 0,00 578,00 0,00 0,00 0,00 0,00 0,00 0,00 30/04/2023
129 171100 ALESSIA ALVES DE ALVARENGA SANTA BARBARA PROMOT.ENTRANC.ESPECIAL CONSELHEIRO LAFAIETE - COMARCA; CONSELHEIRO LAFAIETE-PJ-06PJ 1.500,00 0,00 3.571,05 0,00 26.417,97 0,00 0,00 0,00 605,41 30/04/2023
130 375301 ALETHEIA PATRICIA ASSIS MORAIS MOREIRA ANALISTA DO MP ITABIRA - COMARCA; ITABIRA-PJ-02PJ 1.500,00 950,00 578,00 0,00 641,86 0,00 0,00 0,00 1.293,20 30/04/2023
131 382300 ALEX CARVALHO LIMA ANALISTA DO MP UBERLÂNDIA - COMARCA; UBERLANDIA-PJ-14PJ 1.500,00 950,00 578,00 0,00 4.942,29 0,00 0,00 0,00 2.325,12 30/04/2023
132 195201 ALEX DE CASTRO PEREIRA ANALISTA DO MP UBERABA - COMARCA; UBERABA-PJ-09PJ 1.500,00 0,00 578,00 0,00 5.167,75 0,00 0,00 0,00 473,71 30/04/2023
133 358900 ALEX DE PAULA LANZA ASSESSOR ADMINISTRATIVO IV BELO HORIZONTE - COMARCA; DIR CONTEUDO JORNALISTICO 1.500,00 950,00 578,00 0,00 0,00 0,00 0,00 0,00 0,00 30/04/2023
134 171400 ALEX FERNANDES SANTIAGO PROMOT.ENTRANC.ESPECIAL JUIZ DE FORA - COMARCA; JUIZ DE FORA-PJ-08PJ 1.500,00 0,00 3.571,05 0,00 13.208,98 0,00 0,00 0,00 0,00 30/04/2023
135 685300 ALEX RAFAEL BITTENCOURT PROMOTOR SUBSTITUTO LEOPOLDINA - COMARCA; LEOPOLDINA-PJ-04PJ 1.500,00 0,00 886,40 0,00 16.114,35 0,00 0,00 0,00 492,38 30/04/2023
136 178400 ALEX RODRIGO SALDANHA GUIMARAES OFICIAL DO MP BELO HORIZONTE - COMARCA; DIRETORIA DE SISTEMAS DE INFORMACAO 1.500,00 0,00 578,00 0,00 0,00 0,00 0,00 0,00 0,00 30/04/2023
137 314100 ALEX SOARES NACIF PROMOT.ENTRANC.ESPECIAL CONTAGEM - COMARCA; CONTAGEM-PJ-15PJ 1.500,00 0,00 1.063,68 0,00 11.903,48 0,00 0,00 0,00 545,58 30/04/2023
138 413500 ALEX VILELA OLIVEIRA ANALISTA DO MP GOVERNADOR VALADARES - COMARCA; COORD REG PJ DEF EDU DIR CRIANCA ADOL RIODOCE 1.500,00 0,00 578,00 0,00 0,00 0,00 0,00 0,00 0,00 30/04/2023
139 1274500 ALEXANDER MAXIMILIANO FERREIRA SILVA ESTAGIARIO BELO HORIZONTE; BH-13PJ JUIZO DE TOXICOS-COORD PJ 0,00 0,00 0,00 96,00 1.295,00 0,00 0,00 0,00 0,00 30/04/2023
140 264300 ALEXANDRA FATIMA SARAIVA SOARES ANALISTA DO MP BELO HORIZONTE - COMARCA; CENTRAL DE APOIO TECN-SETOR DE MEIO AMBIENTE 1.500,00 0,00 578,00 0,00 5.167,75 0,00 0,00 0,00 2.780,74 30/04/2023
141 488000 ALEXANDRA LARA PAIS DE CARVALHO ANALISTA DO MP SABARÁ - COMARCA; SABARA-PJ-04PJ 1.500,00 0,00 578,00 0,00 0,00 0,00 0,00 0,00 0,00 30/04/2023
142 1539700 ALEXANDRA REALINA MENDES DE ARAUJO ESTAGIARIO RIBEIRAO DAS NEVES; RIBEIRAO DAS NEVES-PJ-05PJ 0,00 0,00 0,00 240,00 0,00 0,00 0,00 0,00 0,00 30/04/2023
143 256300 ALEXANDRA SANTOS GOMES OFICIAL DO MP BELO HORIZONTE - COMARCA; DIRETORIA GESTAO COMPRAS LICITACOES 1.500,00 0,00 578,00 0,00 0,00 0,00 0,00 0,00 0,00 30/04/2023
144 236300 ALEXANDRE ALVES DE OLIVEIRA PROMOT.ENTRANC.ESPECIAL BELO HORIZONTE - COMARCA; BH-12PJ JUIZO CRIMINAL-GAB 101PJ 1.500,00 0,00 1.164,98 0,00 18.834,36 0,00 0,00 0,00 575,49 30/04/2023
145 403300 ALEXANDRE AUGUSTO RODRIGUES ANALISTA DO MP ÁGUAS FORMOSAS - COMARCA; AGUAS FORMOSAS-PJ-UNPJ 1.500,00 1.900,00 578,00 0,00 0,00 0,00 0,00 0,00 0,00 30/04/2023
146 640900 ALEXANDRE BARBOSA MASCARENHAS ANALISTA DO MP BETIM - COMARCA; BETIM-PJ-02PJ 1.500,00 0,00 578,00 0,00 0,00 0,00 0,00 0,00 0,00 30/04/2023
147 311700 ALEXANDRE BARCELOS RESENDE OFICIAL DO MP BELO HORIZONTE - COMARCA; BH-13ª PJ JUÍZO DE TÓXICOS-SECRETARIA 1.500,00 950,00 578,00 0,00 0,00 0,00 0,00 0,00 0,00 30/04/2023
148 293700 ALEXANDRE BRASILEIRO DE QUEIROZ PROMOT.ENTRANC.ESPECIAL BELO HORIZONTE - COMARCA; BH-12PJ JUIZO CRIMINAL-GAB 092PJ 1.500,00 0,00 3.571,05 0,00 15.474,53 0,00 0,00 0,00 545,58 30/04/2023
149 285600 ALEXANDRE CAMPOS DE OLIVEIRA OFICIAL DO MP UBERABA - COMARCA; COORD REG BACIAS PARANAIBA BAIXO RIO GRANDE 1.500,00 0,00 578,00 0,00 0,00 0,00 0,00 0,00 0,00 30/04/2023
150 509200 ALEXANDRE CAPUANO DE REZENDE ANALISTA DO MP BELO HORIZONTE - COMARCA; BH-07PJ 03 TRIBUNAL DO JURI-GAB 061PJ 1.500,00 0,00 578,00 0,00 0,00 0,00 0,00 0,00 0,00 30/04/2023
151 229400 ALEXANDRE CARLOS BOTREL SUPERINTENDENTE BELO HORIZONTE - COMARCA; SUPERINTENDENCIA DOS ORGAOS COLEGIADOS 1.500,00 0,00 578,00 0,00 4.510,80 0,00 0,00 0,00 413,49 30/04/2023
152 411900 ALEXANDRE CARVALHO SANTOS RIBEIRO ANALISTA DO MP OLIVEIRA - COMARCA; OLIVEIRA-PJ-02PJ 1.500,00 950,00 578,00 0,00 3.481,11 0,00 0,00 0,00 319,10 30/04/2023
153 641600 ALEXANDRE DA SILVA ASSUNCAO OFICIAL DO MP BELO HORIZONTE - COMARCA; SERVICO MEDICO-DEPTO PERIC MEDICA SAUDE OCUP 1.500,00 0,00 578,00 0,00 0,00 0,00 0,00 0,00 0,00 30/04/2023
154 201200 ALEXANDRE DE ALENCAR CORDEIRO OFICIAL DO MP ÁGUAS FORMOSAS - COMARCA; AGUAS FORMOSAS-PJ-UNPJ 1.500,00 0,00 578,00 0,00 0,00 0,00 0,00 0,00 0,00 30/04/2023
155 288200 ALEXANDRE DE VASCONCELOS COSTA KER ANALISTA DO MP BELO HORIZONTE - COMARCA; BH-03PJ EMPRESARIAL-SECRETARIA 1.500,00 0,00 578,00 0,00 5.769,84 0,00 0,00 0,00 528,90 30/04/2023
156 445000 ALEXANDRE DIOGENES OLIVEIRA ANALISTA DO MP SALINAS - COMARCA; SALINAS-PJ-02PJ 1.500,00 950,00 578,00 0,00 0,00 0,00 0,00 0,00 0,00 30/04/2023
157 665800 ALEXANDRE FIGUEIREDO MORATO PROMOT.ENTRANC.ESPECIAL MANHUAÇU - COMARCA; MANHUACU-PJ-05PJ 1.500,00 0,00 2.257,55 0,00 5.951,74 0,00 0,00 0,00 545,58 30/04/2023
158 1444200 ALEXANDRE FURTADO DE MACEDO CASTRO ESTAGIARIO BELO HORIZONTE; BH-17PJ PATRIMONIO PUBLICO-GAB 120PJ 0,00 0,00 0,00 240,00 0,00 0,00 0,00 0,00 0,00 30/04/2023
159 1475100 ALEXANDRE LABOSSIERE DE ALMEIDA MUZZI ESTAGIARIO BELO HORIZONTE; DIVISAO DE MANUTENCAO PREDIAL 0,00 0,00 0,00 240,00 0,00 0,00 0,00 0,00 0,00 30/04/2023
160 463400 ALEXANDRE LEAL WINKELSTROTER ANALISTA DO MP TEÓFILO OTONI - COMARCA; TEOFILO OTONI-PJ-04PJ 1.500,00 0,00 578,00 0,00 0,00 0,00 0,00 0,00 0,00 30/04/2023
161 96600 ALEXANDRE LIBERO BARONI PROMOT.ENTRANC.ESPECIAL SETE LAGOAS - COMARCA; SETE LAGOAS-PJ-04PJ 1.500,00 0,00 3.418,96 0,00 27.723,48 0,00 0,00 0,00 635,33 30/04/2023
162 615700 ALEXANDRE LUIZ DE CASTRO MACIEL ANALISTA DO MP BELO HORIZONTE - COMARCA; BH-08PJ JUIZADO ESPECIAL-SECRETARIA 1.500,00 0,00 578,00 0,00 0,00 0,00 0,00 0,00 0,00 30/04/2023
163 356900 ALEXANDRE MOISES MENDONCA E ARAUJO OFICIAL DO MP UBERABA - COMARCA; UBERABA-PJ-13PJ 1.500,00 0,00 578,00 0,00 0,00 0,00 0,00 0,00 0,00 30/04/2023
164 232100 ALEXANDRE MOTTA BENEVIDES PROMOT.ENTRANC.ESPECIAL BELO HORIZONTE - COMARCA; BH-12PJ JUIZO CRIMINAL-GAB 094PJ 1.500,00 0,00 2.955,69 0,00 26.555,40 0,00 0,00 0,00 608,56 30/04/2023
165 633300 ALEXANDRE NONATO MARTINS OFICIAL DO MP IGARAPÉ - COMARCA; IGARAPE-PJ-02PJ 1.500,00 0,00 578,00 0,00 0,00 0,00 0,00 0,00 0,00 30/04/2023
166 469900 ALEXANDRE PEREIRA GUEDES ANALISTA DO MP CATAGUASES - COMARCA; CATAGUASES-PJ-03PJ 1.500,00 0,00 578,00 0,00 0,00 0,00 0,00 0,00 0,00 30/04/2023
167 208700 ALEXANDRE RESENDE FRAGA ANALISTA DO MP BELO HORIZONTE - COMARCA; BH-19PJ SAUDE-SECRETARIA 130PJ 1.500,00 0,00 578,00 0,00 0,00 0,00 0,00 0,00 0,00 30/04/2023
168 156900 ALEXANDRE REZENDE GRILLO PROMOTOR 2A ENTRANCIA SÃO GONÇALO DO SAPUCAÍ - COMARCA; SAO GONCALO DO SAPUCAI-PJ-02PJ 1.500,00 0,00 3.241,68 0,00 25.097,08 0,00 0,00 0,00 575,14 30/04/2023
169 216401 ALEXANDRE RIBEIRO DE LIMA MAIORINO ANALISTA DO MP UBERABA - COMARCA; UBERABA-PJ-03PJ 1.500,00 0,00 578,00 0,00 4.970,94 0,00 0,00 0,00 455,67 30/04/2023
170 475100 ALEXANDRE TEOTONIO COSTA ANALISTA DO MP ARAGUARI - COMARCA; ARAGUARI-PJ-01PJ 1.500,00 0,00 578,00 0,00 0,00 0,00 0,00 0,00 0,00 30/04/2023
171 339000 ALEXANDRE VITOR CARDOSO OFICIAL DO MP BELO HORIZONTE - COMARCA; BH-23PJ INFRACIONAL-SEC EXP 1.500,00 0,00 578,00 0,00 0,00 0,00 0,00 0,00 0,00 30/04/2023
172 694000 ALEXANDRO ANTONIO PORTO E SOUZA INVESTIGADOR DE POLICIA 2 BELO HORIZONTE - COMARCA; GAECO - SETOR POLICIAL CIVIL 1.500,00 0,00 0,00 0,00 0,00 0,00 0,00 0,00 0,00 30/04/2023
173 1558500 ALEXIA CARVALHO RAMOS ESTAGIARIO BELO HORIZONTE; BH-20PJ ORD ECON TRIBUTARIA-GAB 132PJ 0,00 0,00 0,00 240,00 0,00 0,00 0,00 0,00 0,00 30/04/2023
174 1428500 ALEXIA ESTEFANIE ALVES LEANDRO ESTAGIARIO BELO HORIZONTE; BH-19PJ SAUDE-GAB 130PJ 0,00 0,00 0,00 132,00 0,00 0,00 0,00 0,00 0,00 30/04/2023
175 1589700 ALEXIA LANA TEIXEIRA ESTAGIARIO TARUMIRIM; TARUMIRIM-PJ-UNPJ 0,00 0,00 0,00 144,00 0,00 0,00 0,00 0,00 0,00 30/04/2023
176 1311700 ALEXIA VASCONCELOS MOREIRA ESTAGIARIO CONSELHEIRO PENA; CONSELHEIRO PENA-PJ-01PJ 0,00 0,00 0,00 216,00 0,00 0,00 0,00 0,00 0,00 30/04/2023
177 623100 ALEXSANDER BATISTA AGUIAR COORDENADOR II BELO HORIZONTE - COMARCA; DIRETORIA DE SUPORTE E MANUTENCAO 1.500,00 918,33 578,00 0,00 3.613,93 0,00 0,00 0,00 331,28 30/04/2023
178 717800 ALEXSANDER SIQUEIRA SILVA PROMOTOR SUBSTITUTO JEQUITINHONHA - COMARCA; JEQUITINHONHA-PJ-UNPJ 1.500,00 0,00 1.671,50 0,00 5.371,45 0,00 0,00 0,00 492,38 30/04/2023
179 1481100 ALEXSANDRA GONCALVES DA SILVA ESTAGIARIO BELO HORIZONTE; CAO-FUNDACOES 0,00 0,00 0,00 240,00 0,00 0,00 0,00 0,00 0,00 30/04/2023
180 513300 ALFSON MIRANDA BRAGA ANALISTA DO MP BELO HORIZONTE - COMARCA; BH-12PJ JUIZO CRIMINAL-GAB 087PJ 1.500,00 0,00 578,00 0,00 0,00 0,00 0,00 0,00 0,00 30/04/2023
181 157000 ALI MAHMOUD FAYEZ AYOUB PROMOTOR 2A ENTRANCIA GUAXUPÉ - COMARCA; GUAXUPE-PJ-02PJ 1.500,00 0,00 3.392,49 0,00 25.097,08 0,00 0,00 0,00 575,14 30/04/2023
182 1449300 ALICE ANALIA DIAS FARIA ESTAGIARIO BELO HORIZONTE; BH-23PJ CIVEL-SETOR JURIDICO 0,00 0,00 0,00 108,00 0,00 0,00 0,00 0,00 0,00 30/04/2023
183 1524600 ALICE BRAGA MOREIRA DAVI ESTAGIARIO MERCES; MERCES-PJ-UNPJ 0,00 0,00 0,00 240,00 0,00 0,00 0,00 0,00 0,00 30/04/2023
184 1518100 ALICE DE CAMPOS ALVES ESTAGIARIO DIAMANTINA; DIAMANTINA-PJ-02PJ 0,00 0,00 0,00 228,00 0,00 0,00 0,00 0,00 0,00 30/04/2023
185 1369100 ALICE DE FREITAS REZENDE TORRES ESTAGIARIO BELO HORIZONTE; GABINETE DE PROCURADOR DE JUSTIÇA - SALA 814
186 485300 ALICE DE MELLO VILELA PROMOT.ENTRANC.ESPECIAL CONTAGEM - COMARCA; CONTAGEM-PJ-06PJ 1.500,00 0,00 1.013,03 0,00 23.806,97 0,00 0,00 0,00 545,58 30/04/2023
187 1286400 ALICE FARIA TAYACOL ESTAGIARIO ITUIUTABA; ITUIUTABA-PJ-05PJ 0,00 0,00 0,00 228,00 0,00 0,00 0,00 0,00 0,00 30/04/2023
188 1321200 ALICE GOMES AMORIM ESTAGIARIO MONTES CLAROS; MONTES CLAROS-PJ-05PJ 0,00 0,00 0,00 240,00 0,00 0,00 0,00 0,00 0,00 30/04/2023
189 1270700 ALICE LEAO GUERRA ESTAGIARIO JUIZ DE FORA; JUIZ DE FORA-PJ-03PJ 0,00 0,00 0,00 36,00 0,00 0,00 0,00 0,00 0,00 30/04/2023
190 618400 ALICE MAGALHAES MACEDO DE CARVALHO ANALISTA DO MP IPATINGA - COMARCA; IPATINGA-PJ-10PJ 1.500,00 950,00 578,00 0,00 0,00 0,00 0,00 0,00 0,00 30/04/2023
191 707000 ALICE MARIA RIBEIRO DINIZ ASSESSOR PROMOTOR JUSTICA BELO HORIZONTE - COMARCA; PROC JUST ATUACAO TRIBUNAIS SUPERIORES-GAB004 1.500,00 0,00 578,00 0,00 0,00 0,00 0,00 0,00 0,00 30/04/2023
192 1585500 ALICE MARIANA DA SILVA ESTAGIARIO TRES CORACOES; TRES CORACOES-PJ-06PJ 0,00 0,00 0,00 240,00 0,00 0,00 0,00 0,00 0,00 30/04/2023
193 471000 ALICE TITONELI MOREIRA ANALISTA DO MP MIRADOURO - COMARCA; MIRADOURO-PJ-UNPJ 1.500,00 950,00 578,00 0,00 0,00 0,00 0,00 0,00 0,00 30/04/2023
194 1544600 ALICIA CAMPOS ARAUJO ESTAGIARIO BELO HORIZONTE; GABINETE DE PROCURADOR DE JUSTIÇA - SALA 409 0,00 0,00 0,00 216,00 0,00 0,00 0,00 0,00 0,00 30/04/2023
195 1596200 ALICIA GABRIELLA ALVES COSTA MAXIMO ESTAGIARIO BETIM; BETIM-PJ-05PJ 0,00 0,00 0,00 180,00 0,00 0,00 0,00 0,00 0,00 30/04/2023
196 1581300 ALICIA LOREN COSTA ESTAGIARIO DIVINOPOLIS; DIVINOPOLIS-PJ-08PJ 0,00 0,00 0,00 252,00 0,00 0,00 0,00 0,00 41,67 30/04/2023
197 731600 ALICIA PAULA RODRIGUES DE LIMA ASSESSOR PROMOTOR JUSTICA TIROS - COMARCA; TIROS-PJ-UNPJ 1.500,00 0,00 578,00 0,00 0,00 0,00 0,00 0,00 0,00 30/04/2023
198 725800 ALINE ALBIERI FRANCISCO ASSESSOR PROMOTOR JUSTICA BELO HORIZONTE - COMARCA; CAO-ORDEM ECONOMICA E TRIBUTARIA-ASSESS TECN 1.500,00 0,00 578,00 0,00 0,00 0,00 0,00 0,00 0,00 30/04/2023
199 733200 ALINE APARECIDA DO PRADO TERRITO ASSESSOR ADMINISTRATIVO II BELO HORIZONTE - COMARCA; ESCRITORIO DE PROTECAO DE DADOS PESSOAIS 1.500,00 0,00 578,00 0,00 0,00 0,00 0,00 0,00 0,00 30/04/2023
200 622400 ALINE BALBINO PORTUGAL LOPES ANALISTA DO MP TRÊS PONTAS - COMARCA; TRES PONTAS-PJ-03PJ 1.500,00 950,00 578,00 0,00 0,00 0,00 0,00 0,00 0,00 30/04/2023
201 373000 ALINE BOTELHO RESENDE OFICIAL DO MP JUIZ DE FORA - COMARCA; JUIZ DE FORA-PJ-22PJ 1.500,00 0,00 578,00 0,00 0,00 0,00 0,00 0,00 0,00 30/04/2023
202 1538700 ALINE CORREA DA SILVA ESTAGIARIO CONTAGEM; CONTAGEM-PJ-18PJ 0,00 0,00 0,00 228,00 0,00 0,00 0,00 0,00 0,00 30/04/2023
203 699800 ALINE CRISTINA DE OLIVEIRA AMARAL BARBOSA ASSESSOR PROCURADOR JUSTICA BELO HORIZONTE - COMARCA; GABINETE DE PROCURADOR DE JUSTIÇA - SALA 904 1.500,00 0,00 578,00 0,00 0,00 0,00 0,00 0,00 0,00 30/04/2023
204 407700 ALINE CRISTINA RODRIGUES PEREIRA COORDENADOR II BELO HORIZONTE - COMARCA; DIRETORIA DE PROJETOS DE EDIFICACOES 1.500,00 0,00 578,00 0,00 0,00 0,00 0,00 0,00 0,00 30/04/2023
205 193100 ALINE CRISTINA SENA OLIVEIRA OFICIAL DO MP UBERLÂNDIA - COMARCA; UBERLANDIA-PJ-03PJ 1.500,00 950,00 578,00 0,00 5.749,43 0,00 0,00 0,00 527,03 30/04/2023
206 554200 ALINE CRISTINA SILVA SOUZA OFICIAL DO MP TIROS - COMARCA; TIROS-PJ-UNPJ 1.500,00 0,00 578,00 0,00 0,00 0,00 0,00 0,00 0,00 30/04/2023
207 505500 ALINE DA CUNHA MARREIROS OLIVEIRA ANALISTA DO MP EUGENÓPOLIS - COMARCA; EUGENOPOLIS-PJ-UNPJ 1.500,00 1.900,00 578,00 0,00 0,00 0,00 0,00 0,00 0,00 30/04/2023
208 433500 ALINE DE MELO QUEIROZ OFICIAL DO MP BELO HORIZONTE - COMARCA; ASSESSORIA JURIDICA DO PROCON-MG 1.500,00 950,00 578,00 0,00 0,00 0,00 0,00 0,00 0,00 30/04/2023
209 691100 ALINE DE MELO SOUZA ASSESSOR PROCURADOR JUSTICA BELO HORIZONTE - COMARCA; GABINETE DE PROCURADOR DE JUSTIÇA - SALA 401 1.500,00 0,00 578,00 0,00 0,00 0,00 0,00 0,00 0,00 30/04/2023
210 542700 ALINE DE SOUSA ALBINO ANALISTA DO MP CONTAGEM - COMARCA; CONTAGEM-PJ-09PJ 1.500,00 0,00 578,00 0,00 148,12 0,00 0,00 0,00 1.247,94 30/04/2023
211 330000 ALINE DIORIO MAYRINK OFICIAL DO MP BELO HORIZONTE - COMARCA; NUCLEO DE ACORDOS DE NAO PERSECUCAO PENAL BH 1.500,00 0,00 578,00 0,00 0,00 0,00 0,00 0,00 0,00 30/04/2023
212 499000 ALINE FERREIRA LOPES ANALISTA DO MP TEÓFILO OTONI - COMARCA; TEOFILO OTONI-PJ-09PJ 1.500,00 0,00 578,00 0,00 0,00 0,00 0,00 0,00 0,00 30/04/2023
213 405300 ALINE LAIA CARDOZO SUPERINTENDENTE BELO HORIZONTE - COMARCA; SUPERINTENDENCIA LOGISTICA SERVICOS 1.500,00 0,00 578,00 0,00 0,00 0,00 0,00 0,00 0,00 30/04/2023
214 1549400 ALINE MARCAL ALEIXO ESTAGIARIO CONTAGEM; CONTAGEM-PJ-05PJ 0,00 0,00 0,00 228,00 0,00 0,00 0,00 0,00 0,00 30/04/2023
215 278200 ALINE MARCIA FARIA BARBOSA FERNANDES OFICIAL DO MP BARBACENA - COMARCA; BARBACENA-PJ-SECRETARIA 1.500,00 0,00 578,00 0,00 0,00 0,00 0,00 0,00 0,00 30/04/2023
216 1563900 ALINE MARIA SOARES MARTINS ESTAGIARIO BELO HORIZONTE; BH-02PJ FAMILIA-SECRETARIA 0,00 0,00 0,00 240,00 0,00 0,00 0,00 0,00 0,00 30/04/2023
217 1490300 ALINE MENDES CARDOZO ESTAGIARIO CURVELO; CURVELO-PJ-03PJ 0,00 0,00 0,00 240,00 0,00 0,00 0,00 0,00 0,00 30/04/2023
218 1334100 ALINE MORGANE DE SOUZA ESTAGIARIO VARZEA DA PALMA; VARZEA DA PALMA-PJ-02PJ 0,00 0,00 0,00 240,00 0,00 0,00 0,00 0,00 0,00 30/04/2023
219 389000 ALINE NERI NOBRE ANALISTA DO MP MONTES CLAROS - COMARCA; COORD REG PJ DEF EDUC DIR CRIANCA ADOL NORTE 1.500,00 0,00 578,00 0,00 5.241,84 0,00 0,00 0,00 480,50 30/04/2023
220 294600 ALINE PATRICIA SILVA VIEIRA OFICIAL DO MP UBERLÂNDIA - COMARCA; UBERLANDIA-PJ-03PJ 1.500,00 0,00 578,00 0,00 3.395,15 0,00 1.771,66 0,00 311,22 30/04/2023
221 420000 ALINE RODRIGUES CAMOROPIN ANALISTA DO MP SABARÁ - COMARCA; SABARA-PJ-02PJ 1.500,00 0,00 578,00 0,00 5.221,66 0,00 0,00 0,00 478,65 30/04/2023
222 715800 ALINE SANTOS PEDROSA MAIA BARBOSA ASSESSOR PROCURADOR JUSTICA BELO HORIZONTE - COMARCA; GABINETE DE PROCURADOR DE JUSTIÇA - SALA 1010 1.500,00 0,00 578,00 0,00 0,00 0,00 0,00 0,00 0,00 30/04/2023
223 699600 ALINE SEPULVEDA ROSA PIRES ASSESSOR PROCURADOR JUSTICA BELO HORIZONTE - COMARCA; GABINETE DE PROCURADOR DE JUSTIÇA - SALA 905 1.500,00 0,00 578,00 0,00 0,00 0,00 0,00 0,00 0,00 30/04/2023
224 408300 ALINE SILVA ARAUJO DE PAULA ANALISTA DO MP SÃO SEBASTIÃO DO PARAÍSO - COMARCA; SAO SEBASTIAO DO PARAISO-PJ-02PJ 1.500,00 0,00 578,00 0,00 0,00 0,00 0,00 0,00 0,00 30/04/2023
225 665900 ALINE SILVA BARROS PROMOTOR 2A ENTRANCIA VARZEA DA PALMA - COMARCA; VARZEA DA PALMA-PJ-01PJ 1.500,00 0,00 835,75 0,00 16.962,47 0,00 0,00 0,00 518,30 30/04/2023
226 1554300 ALINE SILVA MONTOVANI ESTAGIARIO VARGINHA; GAECO REGIONAL DE VARGINHA 0,00 0,00 0,00 228,00 0,00 0,00 0,00 0,00 0,00 30/04/2023
227 1323500 ALINE SIMAO DE PAULA ESTAGIARIO BELO HORIZONTE; PROC. JUSTICA DIR. DIFUSOS E COLETIVOS
228 734300 ALINE TAVARES GURGEL ASSESSOR ADMINISTRATIVO III BELO HORIZONTE - COMARCA; SECRETARIA-GERAL 2.113,64 0,00 1.156,00 0,00 0,00 0,00 0,00 0,00 3.981,60 30/04/2023
229 425400 ALINE TRINDADE DE FREITAS CAMPOS OFICIAL DO MP BELO HORIZONTE - COMARCA; BH-14PJ DEFESA CONSUMIDOR-SECRETARIA 1.500,00 0,00 578,00 0,00 0,00 0,00 0,00 0,00 0,00 30/04/2023
230 1334800 ALINE VICTORIA SILVA MENDES ESTAGIARIO CONSELHEIRO LAFAIETE; CONSELHEIRO LAFAIETE-PJ-08PJ 0,00 0,00 0,00 120,00 0,00 0,00 0,00 0,00 0,00 30/04/2023
231 1587800 ALINITY DA SILVA CORREIA ESTAGIARIO CARANGOLA; CARANGOLA-PJ-03PJ 0,00 0,00 0,00 120,00 0,00 0,00 0,00 0,00 0,00 30/04/2023
232 1367500 ALINY CRISTINA RODRIGUES ESTAGIARIO BELO HORIZONTE; BH-23PJ CIVEL-SETOR JURIDICO 0,00 0,00 0,00 84,00 416,67 0,00 0,00 0,00 0,00 30/04/2023
233 517200 ALISSOM PEREIRA DA SILVA ANALISTA DO MP BORDA DA MATA - COMARCA; BORDA DA MATA-PJ-UNPJ 1.500,00 950,00 578,00 0,00 0,00 0,00 0,00 0,00 0,00 30/04/2023
234 1335600 ALISSON BRENNER ALVES DE OLIVEIRA ESTAGIARIO SALINAS; SALINAS-PJ-01PJ 0,00 0,00 0,00 240,00 0,00 0,00 0,00 0,00 0,00 30/04/2023
235 442400 ALISSON LABRE ANALISTA DO MP VARGINHA - COMARCA; VARGINHA-PJ-03PJ 1.500,00 0,00 578,00 0,00 0,00 0,00 0,00 0,00 0,00 30/04/2023
236 643800 ALLAN PAUL FONSECA DE CASTRO OFICIAL DO MP CONTAGEM - COMARCA; CONTAGEM-PJ-SECRETARIA 1.500,00 950,00 578,00 0,00 0,00 0,00 0,00 0,00 0,00 30/04/2023
237 612900 ALLAN VINICIUS VIEIRA ARAUJO COORDENADOR II BELO HORIZONTE - COMARCA; DIRETORIA DE GESTAO DOCUMENTAL 1.500,00 0,00 578,00 0,00 3.613,93 0,00 0,00 0,00 331,28 30/04/2023
238 1406800 ALLANA LUISA PIRES DA CUNHA ESTAGIARIO TRES MARIAS; TRES MARIAS-PJ-UNPJ 0,00 0,00 0,00 204,00 0,00 0,00 0,00 0,00 0,00 30/04/2023
239 349000 ALLEC RODRIGUES VIEIRA OFICIAL DO MP CAPINÓPOLIS - COMARCA; CAO-CIVEL 1.500,00 0,00 578,00 0,00 0,00 0,00 0,00 0,00 0,00 30/04/2023
240 532400 ALLENDER BARRETO LIMA DA SILVA PROMOTOR 1A ENTRANCIA BELO HORIZONTE - COMARCA; COORD COMB RACISMO E TODA FORM DISCRIM 1.500,00 0,00 886,40 0,00 0,00 0,00 0,00 0,00 0,00 30/04/2023
241 297300 ALLYSON SALIBA MONTEIRO LAIZO ANALISTA DO MP CONSELHEIRO LAFAIETE - COMARCA; CONSELHEIRO LAFAIETE-PJ-03PJ 1.500,00 950,00 578,00 0,00 5.998,28 0,00 0,00 0,00 549,84 30/04/2023
242 68900 ALMIR ALVES MOREIRA PROCURADOR DE JUSTICA BELO HORIZONTE - COMARCA; GABINETE DE PROCURADOR DE JUSTIÇA - SALA 1012 1.500,00 0,00 2.912,45 0,00 24.048,01 0,00 0,00 0,00 734,80 30/04/2023
243 226601 ALMIR GERALDO GUIMARAES PROMOTOR 2A ENTRANCIA MATEUS LEME - COMARCA; MATEUS LEME-PJ-02PJ 1.500,00 0,00 3.392,49 0,00 21.485,80 0,00 0,00 0,00 518,30 30/04/2023
244 303700 ALMIR LOPES LOURES ANALISTA DO MP BELO HORIZONTE - COMARCA; CENTRAL DE APOIO TECN-SETOR DE MEIO AMBIENTE 1.500,00 0,00 578,00 0,00 5.998,28 0,00 0,00 0,00 549,84 30/04/2023
245 440700 ALOISIO CUNHA SOARES JUNIOR PROMOTOR 2A ENTRANCIA PATROCÍNIO - COMARCA; PATROCINIO-PJ-04PJ 1.500,00 0,00 3.053,94 0,00 16.962,47 0,00 0,00 0,00 518,30 30/04/2023
246 90600 ALOISIO RABELO DE REZENDE PROMOT.ENTRANC.ESPECIAL VARGINHA - COMARCA; VARGINHA-PJ-01PJ 1.500,00 0,00 3.165,71 0,00 20.792,60 0,00 0,00 0,00 635,33 30/04/2023
247 696600 ALOIZIO MARTINS JALES JUNIOR ASSESSOR PROMOTOR JUSTICA CAMPESTRE - COMARCA; CAMPESTRE-PJ-SECRETARIA 1.500,00 0,00 578,00 0,00 0,00 0,00 0,00 0,00 0,00 30/04/2023
248 515900 ALTAIR NEVES JUNIOR OFICIAL DO MP BELO HORIZONTE - COMARCA; BH-01PJ FAZENDA PUBLICA-SECRETARIA 1.500,00 0,00 578,00 0,00 0,00 0,00 0,00 0,00 0,00 30/04/2023
249 290800 ALUISIA BERALDO RIBEIRO PROMOT.ENTRANC.ESPECIAL UBERLÂNDIA - COMARCA; UBERLANDIA-PJ-14PJ 1.500,00 0,00 1.671,49 0,00 13.849,66 0,00 0,00 0,00 577,07 30/04/2023
250 233300 ALVARINDO BATISTA ANALISTA DO MP BELO HORIZONTE - COMARCA; NUCLEO APOIO TECNICO ESP COMUNICACAO 1.500,00 0,00 578,00 0,00 5.167,75 0,00 0,00 0,00 473,71 30/04/2023
251 1402600 ALVARO ARCANJO SILVA PEREIRA ESTAGIARIO FERROS; FERROS-PJ-UNPJ 0,00 0,00 0,00 228,00 0,00 0,00 0,00 0,00 0,00 30/04/2023
252 1440700 ALVARO AUGUSTO RODRIGUES E SILVA ESTAGIARIO UBERLANDIA; UBERLANDIA-PJ-13PJ 0,00 0,00 0,00 228,00 0,00 0,00 0,00 0,00 0,00 30/04/2023
253 1599600 ALYNE MARIA EMERICK RABELO ESTAGIARIO MANHUMIRIM; MANHUMIRIM-PJ-02PJ 0,00 0,00 0,00 108,00 0,00 0,00 0,00 0,00 0,00 30/04/2023
254 344400 ALYSSON CARDOZO CEMBRANEL PROMOT.ENTRANC.ESPECIAL BELO HORIZONTE - COMARCA; BH-17PJ PATRIMONIO PUBLICO-GAB 119PJ 1.500,00 0,00 1.848,78 0,00 23.806,96 0,00 0,00 0,00 545,58 30/04/2023
255 274100 ALYSSON CARVALHO VIDAL DE LACERDA OFICIAL DO MP MANHUAÇU - COMARCA; MANHUACU-PJ-01PJ 1.500,00 0,00 578,00 0,00 0,00 0,00 0,00 0,00 0,00 30/04/2023
256 1410600 AMANDA APARECIDA DE SOUZA SOARES ESTAGIARIO LAJINHA; LAJINHA-PJ-UNPJ 0,00 0,00 0,00 240,00 0,00 0,00 0,00 0,00 0,00 30/04/2023
257 621000 AMANDA BASTOS ALVES ANALISTA DO MP BELO HORIZONTE - COMARCA; BH-07PJ 02 TRIBUNAL DO JURI-GAB 066PJ 1.500,00 0,00 578,00 0,00 0,00 0,00 0,00 0,00 0,00 30/04/2023
258 1564700 AMANDA CARDOSO CORDIBELLI ESTAGIARIO MURIAE; MURIAE-PJ-05PJ 0,00 0,00 0,00 240,00 0,00 0,00 0,00 0,00 0,00 30/04/2023
259 1444400 AMANDA CARVALHO BORGES PEREIRA VALLE ESTAGIARIO ARAXA; ARAXA-PJ-01PJ
260 521700 AMANDA CRISTINA AGUIAR MACHADO OFICIAL DO MP CONGONHAS - COMARCA; CONGONHAS-PJ-01PJ 1.500,00 0,00 578,00 0,00 0,00 0,00 0,00 0,00 0,00 30/04/2023
261 733500 AMANDA CRISTINA GONCALVES ASSESSOR ADMINISTRATIVO I PARACATU - COMARCA; COORD REG AP COM INCL MOB SOCIAIS NOROESTE MG 1.500,00 0,00 578,00 0,00 0,00 0,00 0,00 0,00 0,00 30/04/2023
262 1548200 AMANDA DA SILVA BRAGA ESTAGIARIO BELO HORIZONTE; BH-18PJ VIOLENCIA DOMESTICA-GAB 177PJ 0,00 0,00 0,00 96,00 0,00 0,00 0,00 0,00 0,00 30/04/2023
263 713900 AMANDA DE ARAUJO CARVALHO ASSESSOR PROMOTOR JUSTICA ARAÇUAÍ - COMARCA; ARACUAI-PJ-01PJ 1.500,00 0,00 578,00 0,00 0,00 0,00 0,00 0,00 0,00 30/04/2023
264 613400 AMANDA DE ASSIS IUNES SANTOS ANALISTA DO MP CONGONHAS - COMARCA; CONGONHAS-PJ-01PJ 1.500,00 0,00 578,00 0,00 0,00 0,00 0,00 0,00 0,00 30/04/2023
265 1568800 AMANDA DE MENEZES FERREIRA ESTAGIARIO BELO HORIZONTE; GABINETE DE PROCURADOR DE JUSTIÇA - SALA 803 0,00 0,00 0,00 204,00 0,00 0,00 0,00 0,00 0,00 30/04/2023
266 695900 AMANDA DE OLIVEIRA ASSESSOR PROCURADOR JUSTICA BELO HORIZONTE - COMARCA; PROC JUST ATUACAO TRIBUNAIS SUPERIORES-GAB004 1.500,00 0,00 578,00 0,00 0,00 0,00 0,00 0,00 0,00 30/04/2023
267 1468700 AMANDA DE OLIVEIRA PEIXOTO LOPES ESTAGIARIO DORES DO INDAIA; DORES DO INDAIA-PJ-UNPJ 0,00 0,00 0,00 240,00 0,00 0,00 0,00 0,00 0,00 30/04/2023
268 520800 AMANDA DE SOUZA MACHADO ANALISTA DO MP BAEPENDI - COMARCA; BAEPENDI-PJ-UNPJ 1.500,00 0,00 578,00 0,00 0,00 0,00 0,00 0,00 0,00 30/04/2023
269 663900 AMANDA DENISE GONCALVES DA SILVA ASSESSOR ADMINISTRATIVO I BELO HORIZONTE - COMARCA; BH-12PJ JUIZO CRIMINAL-SECRETARIA 1.500,00 0,00 578,00 0,00 0,00 0,00 0,00 0,00 0,00 30/04/2023
270 1479900 AMANDA DILASCIO RIBEIRO FICHE ESTAGIARIO SAO JOAO DEL REI; SAO JOAO DEL REI-PJ-01PJ 0,00 0,00 0,00 240,00 0,00 0,00 0,00 0,00 0,00 30/04/2023
271 1583100 AMANDA ESTEFFANY VIANA E SILVA ESTAGIARIO RIO PARDO DE MINAS; RIO PARDO DE MINAS-PJ-UNPJ 0,00 0,00 0,00 240,00 0,00 0,00 0,00 0,00 0,00 30/04/2023
272 1572100 AMANDA GABRIELA GONCALVES DE MIRANDA ESTAGIARIO BETIM; BETIM-PJ-04PJ 0,00 0,00 0,00 216,00 0,00 0,00 0,00 0,00 0,00 30/04/2023
273 1378200 AMANDA KAROLINE DIAS SANTOS ESTAGIARIO CONTAGEM; CONTAGEM-PJ-21PJ 0,00 0,00 0,00 216,00 0,00 0,00 0,00 0,00 0,00 30/04/2023
274 677000 AMANDA LETICIA MESSIAS PEGO ASSESSOR PROMOTOR JUSTICA CORAÇÃO DE JESUS - COMARCA; CORACAO DE JESUS-PJ-UNPJ 1.500,00 0,00 578,00 0,00 0,00 0,00 0,00 0,00 0,00 30/04/2023
275 1551900 AMANDA LUIZA NUNES SOARES ESTAGIARIO BELO HORIZONTE; BH-18PJ VIOLENCIA DOMESTICA-GAB 007PJ 0,00 0,00 0,00 96,00 0,00 0,00 0,00 0,00 0,00 30/04/2023
276 666000 AMANDA MERLINI DUTRA OSIPE PROMOTOR 2A ENTRANCIA ITURAMA - COMARCA; ITURAMA - 03ª PJ 1.500,00 0,00 2.279,31 0,00 5.654,16 0,00 0,00 0,00 518,30 30/04/2023
277 1505800 AMANDA NICAELY BARBOSA SANTOS COSTA ESTAGIARIO MONTALVANIA; MONTALVANIA-PJ-UNPJ 0,00 0,00 0,00 228,00 0,00 0,00 0,00 0,00 0,00 30/04/2023
278 1559600 AMANDA PAULA LOPES PALMEIRA ESTAGIARIO RIBEIRAO DAS NEVES; RIBEIRAO DAS NEVES-PJ-07PJ 0,00 0,00 0,00 228,00 0,00 0,00 0,00 0,00 0,00 30/04/2023
279 1579500 AMANDA RIBEIRO MARTINS OLIVEIRA ESTAGIARIO 0,00 0,00 0,00 240,00 0,00 0,00 0,00 0,00 0,00 30/04/2023
280 1546800 AMANDA SILVA MEDEIROS ESTAGIARIO 0,00 0,00 0,00 240,00 0,00 0,00 0,00 0,00 0,00 30/04/2023
281 1468200 AMANDA VIEIRA FREIRE ESTAGIARIO BELO HORIZONTE; BH-13PJ JUIZO DE TOXICOS-GAB 079PJ 0,00 0,00 0,00 96,00 0,00 0,00 0,00 0,00 0,00 30/04/2023
282 543100 AMANDA VIEIRA FREITAS BRESSANE ANALISTA DO MP VARGINHA - COMARCA; COORD REG DEF ORDEM ECON TRIB VARGINHA 1.500,00 0,00 578,00 0,00 0,00 0,00 0,00 0,00 1.234,36 30/04/2023
283 1385400 AMANDA VITORIA SANTOS DIAS ESTAGIARIO JANAUBA; JANAUBA-PJ-03PJ 0,00 0,00 0,00 228,00 0,00 0,00 0,00 0,00 0,00 30/04/2023
284 434400 AMARILIS ASSIS SIMAO CURCIO ANALISTA DO MP BELO HORIZONTE - COMARCA; DIRETORIA GESTAO COMPRAS LICITACOES 1.500,00 0,00 578,00 0,00 0,00 0,00 0,00 0,00 0,00 30/04/2023
285 652000 AMAURI SILVA ALVES ASSESSOR ADMINISTRATIVO III BELO HORIZONTE - COMARCA; BH-23PJ INFRACIONAL-COORD ADM INFRACIONAL 1.500,00 0,00 578,00 0,00 0,00 0,00 0,00 0,00 3.193,80 30/04/2023
286 58000 AMELIA GUARIZE DE CASTRO OFICIAL DO MP JUIZ DE FORA - COMARCA; JUIZ DE FORA-PJ-SECRETARIA 1.500,00 0,00 578,00 0,00 0,00 0,00 0,00 0,00 0,00 30/04/2023
287 324301 AMERICA SUELI FERREIRA DA SILVA ANALISTA DO MP UBERLÂNDIA - COMARCA; UBERLANDIA-PJ-02PJ 1.500,00 0,00 578,00 0,00 0,00 0,00 0,00 0,00 0,00 30/04/2023
288 273300 AMUJACY DE BRITO ASSIZ OFICIAL DO MP BELO HORIZONTE - COMARCA; BH-12PJ JUIZO CRIMINAL-SECRETARIA 1.500,00 0,00 578,00 0,00 0,00 0,00 0,00 0,00 0,00 30/04/2023
289 482200 ANA ALICE LOPES ACHTSCHIN ANALISTA DO MP BELO HORIZONTE - COMARCA; PROC JUST ATUACAO TRIBUNAIS SUPERIORES-GAB003 1.500,00 0,00 578,00 0,00 0,00 0,00 0,00 0,00 0,00 30/04/2023
290 490400 ANA AMELIA PAULINO GARCIA OFICIAL DO MP CONTAGEM - COMARCA; CONTAGEM-PJ-SECRETARIA 1.500,00 950,00 578,00 0,00 0,00 0,00 0,00 0,00 0,00 30/04/2023
291 690400 ANA ANGELICA MOREIRA DA CUNHA ASSESSOR PROMOTOR JUSTICA TIMÓTEO - COMARCA; TIMOTEO-PJ-02PJ 1.500,00 0,00 578,00 0,00 0,00 0,00 0,00 0,00 0,00 30/04/2023
292 671300 ANA BARBARA CANEDO OLIVEIRA PROMOTOR 2A ENTRANCIA PIRAPORA - COMARCA; PIRAPORA-PJ-01PJ 1.500,00 0,00 886,40 0,00 5.654,16 0,00 0,00 0,00 518,30 30/04/2023
293 1471000 ANA BEATRIZ BARBOSA RODRIGUES ESTAGIARIO POUSO ALEGRE; POUSO ALEGRE-PJ-04PJ 0,00 0,00 0,00 228,00 0,00 0,00 0,00 0,00 0,00 30/04/2023
294 1440100 ANA BEATRIZ DE SOUZA ARCANJO BASTOS ESTAGIARIO JOAO MONLEVADE; JOAO MONLEVADE-PJ-02PJ 0,00 0,00 0,00 216,00 0,00 0,00 0,00 0,00 0,00 30/04/2023
295 714900 ANA BEATRIZ LOBATO ALVES DE CARVALHO ASSESSOR PROCURADOR JUSTICA BELO HORIZONTE - COMARCA; GABINETE DE PROCURADOR DE JUSTICA - SALA 309 1.500,00 0,00 578,00 0,00 0,00 0,00 0,00 0,00 0,00 30/04/2023
296 1515700 ANA BEATRIZ VIANA DA SILVA ESTAGIARIO JOAO MONLEVADE; JOAO MONLEVADE-PJ-02PJ 0,00 0,00 0,00 240,00 0,00 0,00 0,00 0,00 0,00 30/04/2023
297 1477500 ANA CARLA GOMES ALVES ESTAGIARIO PASSOS; PASSOS-PJ-04PJ 0,00 0,00 0,00 240,00 0,00 0,00 0,00 0,00 0,00 30/04/2023
298 715000 ANA CARLA RODRIGUES DE SOUZA ASSESSOR PROMOTOR JUSTICA TRÊS CORACOES - COMARCA; TRES CORACOES-PJ-01PJ 1.500,00 0,00 578,00 0,00 0,00 0,00 0,00 0,00 0,00 30/04/2023
299 723200 ANA CAROLINA AMABILE ALVES INVESTIGADOR DE POLICIA 2 1.500,00 0,00 0,00 0,00 0,00 0,00 0,00 0,00 0,00 30/04/2023
300 279100 ANA CAROLINA ARAUJO PEREIRA ANALISTA DO MP BELO HORIZONTE - COMARCA; DIRETORIA DE PROJETOS DE EDIFICACOES 1.500,00 0,00 578,00 0,00 5.998,28 0,00 0,00 0,00 549,84 30/04/2023
301 1460200 ANA CAROLINA BARBOSA FERNANDES ESTAGIARIO ITUIUTABA; ITUIUTABA-PJ-04PJ 0,00 0,00 0,00 240,00 0,00 0,00 0,00 0,00 0,00 30/04/2023
302 1568600 ANA CAROLINA CARVALHO DOMINGUES ESTAGIARIO LAVRAS; LAVRAS-PJ-05PJ 0,00 0,00 0,00 156,00 0,00 0,00 0,00 0,00 0,00 30/04/2023
303 653300 ANA CAROLINA CYRNE DINIZ ASSESSOR ADMINISTRATIVO III BELO HORIZONTE - COMARCA; CENTRAL DE APOIO TECNICO-SETOR CONTABIL 1.500,00 0,00 578,00 0,00 0,00 0,00 0,00 0,00 0,00 30/04/2023
304 1533400 ANA CAROLINA DA SILVA REIS ESTAGIARIO IGARAPE; IGARAPE-PJ-03PJ 0,00 0,00 0,00 228,00 0,00 0,00 0,00 0,00 0,00 30/04/2023
305 359400 ANA CAROLINA DE ABREU FARIA ASSESSOR ADMINISTRATIVO IV BELO HORIZONTE - COMARCA; SUPERINTENDÊNCIA DE ENGENHARIA E ARQUITETURA 1.500,00 950,00 578,00 0,00 0,00 0,00 0,00 0,00 0,00 30/04/2023
306 408500 ANA CAROLINA DE CASTRO CARVALHO ANALISTA DO MP BARBACENA - COMARCA; BARBACENA - SECRETARIA DAS PJS CRIMINAIS 1.500,00 950,00 578,00 0,00 0,00 0,00 0,00 0,00 0,00 30/04/2023
307 1560500 ANA CAROLINA DE FREITAS PAULINO ESTAGIARIO JUIZ DE FORA; JUIZ DE FORA-PJ-16PJ 0,00 0,00 0,00 240,00 0,00 0,00 0,00 0,00 0,00 30/04/2023
308 1487500 ANA CAROLINA DE MELO MARTINS ESTAGIARIO CABO VERDE; CABO VERDE-PJ-UNPJ 0,00 0,00 0,00 228,00 0,00 0,00 0,00 0,00 0,00 30/04/2023
309 1542400 ANA CAROLINA DE OLIVEIRA FROES ESTAGIARIO NOVA LIMA; NOVA LIMA-PJ-03PJ 0,00 0,00 0,00 228,00 0,00 0,00 0,00 0,00 0,00 30/04/2023
310 1551800 ANA CAROLINA DE OLIVEIRA GOMES ESTAGIARIO BELO HORIZONTE; BH-08PJ JUIZADO ESPECIAL-SECRETARIA 0,00 0,00 0,00 240,00 0,00 0,00 0,00 0,00 0,00 30/04/2023
311 688000 ANA CAROLINA DE OLIVEIRA PINTO ASSESSOR PROCURADOR JUSTICA BELO HORIZONTE - COMARCA; GABINETE DE PROCURADOR DE JUSTIÇA - SALA 1005 1.500,00 0,00 578,00 0,00 0,00 0,00 0,00 0,00 0,00 30/04/2023
312 598900 ANA CAROLINA DUARTE DA SILVA INVESTIGADOR DE POLICIA 2 BELO HORIZONTE - COMARCA; PROC JUST ESP ACOES COMP ORIG CRIMINAL-SEC 1.500,00 0,00 0,00 0,00 0,00 0,00 0,00 0,00 0,00 30/04/2023
313 420200 ANA CAROLINA FERNANDES SILVA ANALISTA DO MP BELO HORIZONTE - COMARCA; GABINETE DE PROCURADOR DE JUSTIÇA - SALA 704 1.500,00 0,00 578,00 0,00 0,00 0,00 0,00 0,00 0,00 30/04/2023
314 522100 ANA CAROLINA FERNANDINO VIDAL PEREIRA SANTOS OFICIAL DO MP BELO HORIZONTE - COMARCA; SECRETARIA DO PROCON-MG 1.500,00 0,00 578,00 0,00 0,00 0,00 0,00 0,00 0,00 30/04/2023
315 716000 ANA CAROLINA FIGUEIREDO SILVA ASSESSOR PROCURADOR JUSTICA BELO HORIZONTE - COMARCA; PROC JUST ATUACAO TRIBUNAIS SUPERIORES-GAB006 1.500,00 0,00 578,00 0,00 0,00 0,00 0,00 0,00 0,00 30/04/2023
316 244700 ANA CAROLINA GARCIA COSTA PROMOT.ENTRANC.ESPECIAL BELO HORIZONTE - COMARCA; BH-23PJ INFRACIONAL-GAB 147PJ 1.500,00 0,00 3.571,05 0,00 25.181,20 0,00 0,00 0,00 577,07 30/04/2023
317 502400 ANA CAROLINA GONCALVES FERNANDES ANALISTA DO MP IPATINGA - COMARCA; IPATINGA-PJ-01PJ 1.500,00 1.900,00 578,00 0,00 0,00 0,00 0,00 0,00 0,00 30/04/2023
318 529900 ANA CAROLINA GONCALVES PECANHA CHEQUER ANALISTA DO MP MANHUAÇU - COMARCA; MANHUACU-PJ-04PJ 1.500,00 1.900,00 578,00 0,00 0,00 0,00 0,00 0,00 0,00 30/04/2023
319 1546300 ANA CAROLINA MARQUES RAMOS ESTAGIARIO BRUMADINHO; BRUMADINHO-PJ-02PJ 0,00 0,00 0,00 240,00 0,00 0,00 0,00 0,00 0,00 30/04/2023
320 431900 ANA CAROLINA MOTTA GUATIMOSIM ANALISTA DO MP BELO HORIZONTE - COMARCA; ASSESSORIA JURIDICO-ADMINISTRATIVA 1.500,00 950,00 578,00 0,00 0,00 0,00 0,00 0,00 0,00 30/04/2023
321 1539500 ANA CAROLINA OLIVEIRA DE CARVALHO ESTAGIARIO ITAJUBA; ITAJUBA-PJ-01PJ 0,00 0,00 0,00 240,00 0,00 0,00 0,00 0,00 0,00 30/04/2023
322 1491200 ANA CAROLINA OLIVEIRA DINIZ ESTAGIARIO CONTAGEM; CONTAGEM-PJ-03PJ 0,00 0,00 0,00 180,00 0,00 0,00 0,00 0,00 0,00 30/04/2023
323 1595200 ANA CAROLINA OLIVEIRA LACERDA ESTAGIARIO BELO HORIZONTE; BH-12PJ JUIZO CRIMINAL-GAB 099PJ 0,00 0,00 0,00 180,00 0,00 0,00 0,00 0,00 0,00 30/04/2023
324 1580400 ANA CAROLINA PEREIRA DOS SANTOS ESTAGIARIO BELO HORIZONTE; CENT ESTAD COOPERACAO TECNICO-JURIDICA 0,00 0,00 0,00 12,00 0,00 0,00 0,00 0,00 0,00 30/04/2023
325 1461800 ANA CAROLINA PORTO SEGURO CAMPOS COELHO ESTAGIARIO BELO HORIZONTE; BH-26 CRIME CONT CRIAN ADOL-GAB 169PJ 0,00 0,00 0,00 216,00 0,00 0,00 0,00 0,00 0,00 30/04/2023
326 1524500 ANA CAROLINA VASCONCELOS VALADARES GRAVITO ESTAGIARIO BELO HORIZONTE; BH-23PJ CIVEL-GAB 162PJ 0,00 0,00 0,00 204,00 0,00 0,00 0,00 0,00 0,00 30/04/2023
327 490600 ANA CAROLINA XAVIER GODOY ANALISTA DO MP BELO HORIZONTE - COMARCA; BH-18PJ DIREITOS HUMANOS-SECRETARIA 1.500,00 1.900,00 578,00 0,00 0,00 0,00 0,00 0,00 0,00 30/04/2023
328 313700 ANA CAROLINA ZAMBOM PINTO COELHO PROMOT.ENTRANC.ESPECIAL BELO HORIZONTE - COMARCA; COORD ESTADUAL DE DEFESA DA EDUCACAO 1.500,00 0,00 1.570,19 0,00 17.855,22 0,00 0,00 0,00 545,58 30/04/2023
329 1573900 ANA CAROLINE DA CRUZ ESTAGIARIO NOVA LIMA; NOVA LIMA-PJ-02PJ 0,00 0,00 0,00 240,00 0,00 0,00 0,00 0,00 0,00 30/04/2023
330 1602300 ANA CAROLINE DA SILVA ESTAGIARIO POUSO ALEGRE; POUSO ALEGRE-PJ-03PJ 0,00 0,00 0,00 84,00 0,00 0,00 0,00 0,00 0,00 30/04/2023
331 1501100 ANA CAROLINE DE OLIVEIRA ESTAGIARIO 0,00 0,00 0,00 240,00 0,00 0,00 0,00 0,00 0,00 30/04/2023
332 600300 ANA CAROLINE PEREIRA DINIZ ANALISTA DO MP BELO HORIZONTE - COMARCA; PROC JUST ESP ACOES COMP ORIG CRIMINAL-SEC 1.500,00 950,00 578,00 0,00 0,00 0,00 0,00 0,00 0,00 30/04/2023
333 615800 ANA CAROLINE PEREIRA OLIVEIRA OFICIAL DO MP ALFENAS - COMARCA; ALFENAS-PJ-06PJ 1.500,00 0,00 578,00 0,00 0,00 0,00 0,00 0,00 0,00 30/04/2023
334 1357300 ANA CAROLINE RIBEIRO PRATES ESTAGIARIO 0,00 0,00 0,00 60,00 0,00 0,00 0,00 0,00 0,00 30/04/2023
335 1389400 ANA CAROLINE SOARES GOMES ESTAGIARIO SAO DOMINGOS DO PRATA; SAO DOMINGOS DO PRATA-PJ-UNPJ 0,00 0,00 0,00 240,00 0,00 0,00 0,00 0,00 0,00 30/04/2023
336 1541300 ANA CECILIA BRESSANIN KIMURA ESTAGIARIO POUSO ALEGRE; POUSO ALEGRE-PJ-05PJ 0,00 0,00 0,00 240,00 0,00 0,00 0,00 0,00 0,00 30/04/2023
337 229202 ANA CECILIA JUNQUEIRA GOUVEA PROMOT.ENTRANC.ESPECIAL RIBEIRÃO DAS NEVES - COMARCA; RIBEIRAO DAS NEVES-PJ-08PJ 1.500,00 0,00 2.583,22 0,00 11.903,48 0,00 0,00 0,00 545,58 30/04/2023
338 324800 ANA CECILIA MENDES DA SILVA OFICIAL DO MP OURO FINO - COMARCA; OURO FINO-PJ-01PJ 1.500,00 0,00 578,00 0,00 0,00 0,00 0,00 0,00 0,00 30/04/2023
339 1563200 ANA CLARA ANTUNES DA SILVA FRASSI ESTAGIARIO CONTAGEM; CONTAGEM-PJ-07PJ 0,00 0,00 0,00 228,00 0,00 0,00 0,00 0,00 0,00 30/04/2023
340 1502000 ANA CLARA ANTUNES VASCONCELOS ESTAGIARIO BELO HORIZONTE; GABINETE DE PROCURADOR DE JUSTIÇA - SALA 408 0,00 0,00 0,00 48,00 0,00 0,00 0,00 0,00 0,00 30/04/2023
341 1538300 ANA CLARA DE OLIVEIRA CASTRO ESTAGIARIO NOVA ERA; NOVA ERA-PJ-UNPJ 0,00 0,00 0,00 216,00 0,00 0,00 0,00 0,00 0,00 30/04/2023
342 1327400 ANA CLARA DOS SANTOS PEREIRA ESTAGIARIO SETE LAGOAS; SETE LAGOAS-PJ-11PJ 0,00 0,00 0,00 240,00 0,00 0,00 0,00 0,00 0,00 30/04/2023
343 1465500 ANA CLARA GONCALVES FANTECELE VIEIRA ESTAGIARIO BELO HORIZONTE; BH-10PJ EXECUÇÃO PENAL-GAB 078PJ 0,00 0,00 0,00 228,00 0,00 0,00 0,00 0,00 0,00 30/04/2023
344 1480400 ANA CLARA GRECO VILLANI MARQUES ESTAGIARIO BELO HORIZONTE; BH-23PJ INFRACIONAL-GAB 144PJ 0,00 0,00 0,00 240,00 0,00 0,00 0,00 0,00 0,00 30/04/2023
345 1384200 ANA CLARA GUIMARAES ROSA ESTAGIARIO CONTAGEM; CONTAGEM-PJ-06PJ 0,00 0,00 0,00 108,00 0,00 0,00 0,00 0,00 0,00 30/04/2023
346 1510900 ANA CLARA LINA COSTA ESTAGIARIO BELO HORIZONTE; BH-13PJ JUIZO DE TOXICOS-GAB 149PJ 0,00 0,00 0,00 240,00 0,00 0,00 0,00 0,00 0,00 30/04/2023
347 704100 ANA CLARA MARTINS ALBUQUERQUE ASSESSOR ADMINISTRATIVO I BELO HORIZONTE - COMARCA; CAO-CRIANCAS E ADOLESCENTES-ASS TECNICA 1.500,00 0,00 578,00 0,00 0,00 0,00 0,00 0,00 0,00 30/04/2023
348 1322000 ANA CLARA RESGALA BARTHOLDY ESTAGIARIO BELO HORIZONTE; PROC. JUSTICA DIR. DIFUSOS E COLETIVOS 0,00 0,00 0,00 48,00 0,00 0,00 0,00 0,00 0,00 30/04/2023
349 698700 ANA CLARA SANTOS ALMEIDA ASSESSOR PROMOTOR JUSTICA SABINÓPOLIS - COMARCA; SABINOPOLIS-PJ-UNPJ 1.500,00 0,00 578,00 0,00 0,00 0,00 0,00 0,00 0,00 30/04/2023
350 441300 ANA CLAUDIA ALKIMIM MIRANDA BOMTEMPO ANALISTA DO MP MONTES CLAROS - COMARCA; MONTES CLAROS-PJ-11PJ 1.500,00 0,00 578,00 0,00 0,00 0,00 0,00 0,00 0,00 30/04/2023
351 1490100 ANA CLAUDIA ALVES MACHADO ESTAGIARIO BELO HORIZONTE; BH-18PJ VIOLENCIA DOMESTICA 0,00 0,00 0,00 228,00 0,00 0,00 0,00 0,00 0,00 30/04/2023
352 642500 ANA CLAUDIA DA COSTA NAVES OFICIAL DO MP MONTE CARMELO - COMARCA; MONTE CARMELO-PJ-02PJ 1.500,00 950,00 578,00 0,00 0,00 105,12 0,00 0,00 0,00 30/04/2023
353 716800 ANA CLAUDIA DOURADO MENDES ASSESSOR PROMOTOR JUSTICA ARAÇUAÍ - COMARCA; ARACUAI-PJ-02PJ 1.500,00 0,00 578,00 0,00 0,00 0,00 0,00 0,00 0,00 30/04/2023
354 1392700 ANA CLAUDIA GOIANAZES MOREIRA ESTAGIARIO BELO HORIZONTE; GABINETE DE PROCURADOR DE JUSTIÇA - SALA 705
355 341500 ANA CLAUDIA LOPES PROMOT.ENTRANC.ESPECIAL BELO HORIZONTE - COMARCA; BH-07PJ 01 TRIBUNAL DO JURI-GAB 077PJ 1.500,00 0,00 1.164,98 0,00 23.806,97 0,00 0,00 0,00 545,58 30/04/2023
356 604900 ANA CLAUDIA OLIVEIRA DE MIRANDA OFICIAL DO MP PONTE NOVA - COMARCA; PONTE NOVA-PJ-04PJ 1.500,00 0,00 578,00 0,00 0,00 0,00 0,00 0,00 0,00 30/04/2023
357 1381200 ANA CLAUDIA SARAIVA MARTINS FERREIRA ESTAGIARIO BELO HORIZONTE; BH-18PJ DIREITOS HUMANOS-GAB 125PJ 0,00 0,00 0,00 240,00 0,00 0,00 0,00 0,00 0,00 30/04/2023
358 379300 ANA CRISTINA ALVES FLAVIO ANALISTA DO MP SÃO GOTARDO - COMARCA; SAO GOTARDO-PJ-01PJ 1.500,00 950,00 578,00 0,00 0,00 0,00 0,00 0,00 0,00 30/04/2023
359 461200 ANA CRISTINA ALVES PASCHOAL ANALISTA DO MP BELO HORIZONTE - COMARCA; BH-07PJ 03 TRIBUNAL DO JURI-GAB 064PJ 1.500,00 0,00 578,00 0,00 0,00 0,00 0,00 0,00 0,00 30/04/2023
360 514100 ANA CRISTINA ARAUJO ASSUNCAO ANALISTA DO MP BELO HORIZONTE - COMARCA; ASSESS JUR DO CONS SUPERIOR DO MINISTERIO PUB 1.500,00 950,00 578,00 0,00 0,00 0,00 0,00 0,00 0,00 30/04/2023
361 113401 ANA CRISTINA BRAGA ALBUQUERQUE ASSESSOR ADM. ESPECIAL BELO HORIZONTE - COMARCA; DIRETORIA-GERAL 1.500,00 0,00 0,00 0,00 5.602,68 0,00 0,00 0,00 513,58 30/04/2023
362 233800 ANA CRISTINA BRAGA SOARES OFICIAL DO MP BELO HORIZONTE - COMARCA; DIRETORIA DE CONTABILIDADE 1.500,00 0,00 578,00 0,00 0,00 0,00 0,00 0,00 0,00 30/04/2023
363 186400 ANA CRISTINA DE AZEVEDO LOPES OFICIAL DO MP UBÁ - COMARCA; UBA-PJ-01PJ 1.500,00 0,00 578,00 0,00 5.749,43 0,00 0,00 0,00 527,03 30/04/2023
364 693000 ANA CRISTINA DE MELO SILVEIRA ASSESSOR PROCURADOR JUSTICA BELO HORIZONTE - COMARCA; COORD DE CONTROLE CONSTITUCIONALIDADE 1.500,00 950,00 578,00 0,00 0,00 0,00 0,00 0,00 0,00 30/04/2023
365 465100 ANA CRISTINA DE OLIVEIRA GUIMARAES ANALISTA DO MP ITAJUBA - COMARCA; ITAJUBA-PJ-05PJ 1.500,00 950,00 578,00 0,00 0,00 0,00 0,00 0,00 0,00 30/04/2023
366 500600 ANA CRISTINA LATADO SUDARIO ANALISTA DO MP UBERLÂNDIA - COMARCA; UBERLANDIA-PJ-09PJ 1.500,00 0,00 578,00 0,00 0,00 0,00 0,00 0,00 0,00 30/04/2023
367 331400 ANA CRISTINA RIBEIRO ALVES OFICIAL DO MP BAMBUÍ - COMARCA; BAMBUI-PJ-UNPJ 1.500,00 0,00 578,00 0,00 0,00 0,00 0,00 0,00 0,00 30/04/2023
368 1585900 ANA CRISTINY GOMES OLIVEIRA ESTAGIARIO UNAI; UNAI-PJ-01PJ 0,00 0,00 0,00 240,00 0,00 0,00 0,00 0,00 0,00 30/04/2023
369 1552300 ANA ELISA TEIXEIRA GONCALVES ESTAGIARIO IBIRITE; IBIRITE-PJ-06PJ 0,00 0,00 0,00 168,00 0,00 0,00 0,00 0,00 0,00 30/04/2023
370 249300 ANA ELOINA MARTINS OFICIAL DO MP BETIM - COMARCA; BETIM-PJ-02PJ 1.500,00 0,00 578,00 0,00 5.267,70 0,00 0,00 0,00 482,87 30/04/2023
371 611500 ANA FLAVIA AFONSO DRUMOND AMORIM PROMOTOR 2A ENTRANCIA PIRAPORA - COMARCA; PIRAPORA-PJ-02PJ 1.500,00 0,00 0,00 0,00 9.046,65 0,00 0,00 0,00 518,30 30/04/2023
372 1466700 ANA FLAVIA ALVES ARAUJO ESTAGIARIO NOVA LIMA; NOVA LIMA-PJ-SECRETARIA 0,00 0,00 0,00 240,00 0,00 0,00 0,00 0,00 0,00 30/04/2023
373 257400 ANA FLAVIA CAMBRAIA ANALISTA DO MP BELO HORIZONTE - COMARCA; BH-19PJ SAUDE-SECRETARIA 150PJ 1.500,00 0,00 578,00 0,00 0,00 0,00 0,00 0,00 0,00 30/04/2023
374 248201 ANA FLAVIA DE MORAIS SOUZA ANALISTA DO MP DIVINÓPOLIS - COMARCA; DIVINOPOLIS-PJ-01PJ 1.500,00 0,00 578,00 0,00 837,76 0,00 0,00 0,00 76,79 30/04/2023
375 621100 ANA FLAVIA DINIZ TEODORO OFICIAL DO MP SANTA LUZIA - COMARCA; SANTA LUZIA-PJ-06PJ 1.500,00 0,00 578,00 0,00 0,00 0,00 0,00 0,00 0,00 30/04/2023
376 238600 ANA FLAVIA FRANCO OFICIAL DO MP BELO HORIZONTE - COMARCA; DIRETORIA DE PESSOAL ADMINISTRATIVO - DPAD 1.500,00 0,00 578,00 0,00 5.076,62 0,00 0,00 0,00 465,36 30/04/2023
377 690000 ANA FLAVIA LURIAN DE PAIVA ASSESSOR PROCURADOR JUSTICA BELO HORIZONTE - COMARCA; GABINETE DE PROCURADOR DE JUSTIÇA - SALA 609 1.500,00 0,00 578,00 0,00 0,00 0,00 0,00 0,00 0,00 30/04/2023
378 402900 ANA FLAVIA PORTES DE CARVALHO ANALISTA DO MP BELO HORIZONTE - COMARCA; DIRET DE PLANOS PROJETOS E PROGRAMAS INST 1.500,00 0,00 578,00 0,00 3.594,40 0,00 0,00 0,00 329,49 30/04/2023
379 1336700 ANA FLAVIA SANTOS PARAISO ESTAGIARIO BRASILIA DE MINAS; BRASILIA DE MINAS-PJ-01PJ 0,00 0,00 0,00 240,00 0,00 0,00 0,00 0,00 0,00 30/04/2023
380 1297100 ANA GABRIELA BOLDRIN TRINCA ESTAGIARIO POCOS DE CALDAS; POCOS DE CALDAS-PJ-07PJ 0,00 0,00 0,00 228,00 0,00 0,00 0,00 0,00 0,00 30/04/2023
381 526300 ANA GABRIELA BRITO MELO ROCHA PROMOTOR 2A ENTRANCIA TRÊS PONTAS - COMARCA; TRES PONTAS-PJ-03PJ 1.500,00 0,00 2.026,06 0,00 16.962,47 0,00 0,00 0,00 518,30 30/04/2023
382 1604100 ANA GABRIELLA OLIVEIRA BARBOSA ESTAGIARIO PERDIZES; PERDIZES-PJ-UNPJ 0,00 0,00 0,00 60,00 0,00 0,00 0,00 0,00 0,00 30/04/2023
383 1515200 ANA GABRIELLY SILVA ESTAGIARIO RIBEIRAO DAS NEVES; RIBEIRAO DAS NEVES-PJ-09PJ 0,00 0,00 0,00 228,00 0,00 0,00 0,00 0,00 0,00 30/04/2023
384 1476700 ANA JULIA ALVES SOARES ESTAGIARIO GUARANESIA; GUARANESIA-PJ-UNPJ 0,00 0,00 0,00 132,00 333,33 0,00 0,00 0,00 0,00 30/04/2023
385 1488400 ANA JULIA DIXINI CARVALHO ESTAGIARIO TRES PONTAS; TRES PONTAS-PJ-03PJ 0,00 0,00 0,00 228,00 0,00 0,00 0,00 0,00 0,00 30/04/2023
386 1412300 ANA JULIA PEREIRA BELLEI GOMES ESTAGIARIO JUIZ DE FORA; JUIZ DE FORA-PJ-03PJ 0,00 0,00 0,00 240,00 0,00 0,00 0,00 0,00 0,00 30/04/2023
387 1483100 ANA JULIA RODRIGUES CAMPOS ESTAGIARIO ITAUNA; ITAUNA-PJ-05PJ 0,00 0,00 0,00 240,00 0,00 0,00 0,00 0,00 0,00 30/04/2023
388 1537300 ANA JULIA SOUSA DE JESUS ESTAGIARIO PAINS; ALFENAS-PJ-05PJ 0,00 0,00 0,00 240,00 0,00 0,00 0,00 0,00 0,00 30/04/2023
389 382700 ANA KARENINA SALDANHA GONTIJO ANALISTA DO MP BELO HORIZONTE - COMARCA; ASSESS TECNICO-JUR JUNTO AS PROC. DE JUST 1.500,00 0,00 578,00 0,00 0,00 0,00 0,00 0,00 0,00 30/04/2023
390 620500 ANA KARINE DE ANDRADE OLIVEIRA ANALISTA DO MP RIBEIRÃO DAS NEVES - COMARCA; RIBEIRAO NEVES-SEC PJ EXECUCAO PENAL 1.500,00 0,00 578,00 0,00 0,00 0,00 0,00 0,00 0,00 30/04/2023
391 1412600 ANA KAROLINE ARAUJO DA SILVA ESTAGIARIO BELO HORIZONTE; BH-12PJ JUIZO CRIMINAL-GAB 083PJ 0,00 0,00 0,00 240,00 0,00 0,00 0,00 0,00 0,00 30/04/2023
392 1259400 ANA KAROLINE DOS SANTOS ESTAGIARIO 0,00 0,00 0,00 0,00 801,67 0,00 0,00 0,00 1.850,00 30/04/2023
393 1520600 ANA KAROLYNA OLIVEIRA MORAIS ESTAGIARIO BELO HORIZONTE; BH-17PJ PATRIMONIO PUBLICO-GAB 121PJ 0,00 0,00 0,00 240,00 0,00 0,00 0,00 0,00 0,00 30/04/2023
394 1420700 ANA LAURA CARVALHO GENEROSO ESTAGIARIO BELO HORIZONTE; GABINETE DE PROCURADOR DE JUSTIÇA - SALA 1013
395 1417200 ANA LAURA FERREIRA DA SILVA ESTAGIARIO UBERABA; UBERABA-PJ-16PJ 0,00 0,00 0,00 204,00 0,00 0,00 0,00 0,00 0,00 30/04/2023
396 1457800 ANA LAURA GONCALVES DE MENEZES ESTAGIARIO UBERLANDIA; GAECO REGIONAL DE UBERLANDIA 0,00 0,00 0,00 240,00 0,00 0,00 0,00 0,00 0,00 30/04/2023
397 1562000 ANA LAURA MENDONCA SILVA DE ARAUJO ESTAGIARIO CONTAGEM; CONTAGEM-PJ-08PJ 0,00 0,00 0,00 228,00 0,00 0,00 0,00 0,00 0,00 30/04/2023
398 1503800 ANA LAURA PEREIRA MORAIS ESTAGIARIO CONCEICAO DAS ALAGOAS; CONCEICAO DAS ALAGOAS-PJ-01PJ 0,00 0,00 0,00 192,00 0,00 0,00 0,00 0,00 0,00 30/04/2023
399 57400 ANA LEIA SALOMAO E RIBEIRO PROMOT.ENTRANC.ESPECIAL JUIZ DE FORA - COMARCA; JUIZ DE FORA-PJ-17PJ 1.500,00 0,00 1.519,54 0,00 24.048,00 0,00 0,00 0,00 734,80 30/04/2023
400 224300 ANA LETICIA MARTINS DE SOUZA PROMOT.ENTRANC.ESPECIAL CONTAGEM - COMARCA; CONTAGEM-PJ-13PJ 1.500,00 0,00 1.063,68 0,00 11.903,49 0,00 0,00 0,00 0,00 30/04/2023
401 1587400 ANA LICIA SALES LAFETA ESTAGIARIO 0,00 0,00 0,00 240,00 0,00 0,00 0,00 0,00 0,00 30/04/2023
402 1476300 ANA LIVIA DE FREITAS SILVA ESTAGIARIO PARAOPEBA; PARAOPEBA-PJ-UNPJ 0,00 0,00 0,00 240,00 0,00 0,00 0,00 0,00 0,00 30/04/2023
403 1391300 ANA LIVIA DO NASCIMENTO TORQUATO ESTAGIARIO GUAXUPE; GUAXUPE-PJ-01PJ 0,00 0,00 0,00 240,00 0,00 0,00 0,00 0,00 0,00 30/04/2023
404 462200 ANA LUCIA ANDRADE TOMICH OTTONI ANALISTA DO MP TEÓFILO OTONI - COMARCA; TEOFILO OTONI-PJ-07PJ 1.500,00 950,00 578,00 0,00 0,00 0,00 0,00 0,00 0,00 30/04/2023
405 504100 ANA LUCIA CATAO DE CARVALHO OFICIAL DO MP BELO HORIZONTE - COMARCA; DIR RELACOES INSTITUCIONAIS 1.500,00 0,00 578,00 0,00 0,00 0,00 0,00 0,00 0,00 30/04/2023
406 274700 ANA LUCIA DE ALENCAR BRAGATO OFICIAL DO MP UBERABA - COMARCA; UBERABA-PJ-07PJ 1.500,00 0,00 578,00 0,00 0,00 0,00 0,00 0,00 0,00 30/04/2023
407 509400 ANA LUCIA DORNELAS MALLOSTO ANALISTA DO MP JUIZ DE FORA - COMARCA; JUIZ DE FORA-PJ-25PJ 1.500,00 0,00 578,00 0,00 0,00 0,00 0,00 0,00 0,00 30/04/2023
408 114600 ANA LUCIA JUNQUEIRA MUZZI CAVALIERI PROMOT.ENTRANC.ESPECIAL JUIZ DE FORA - COMARCA; JUIZ DE FORA-PJ-14PJ 1.500,00 0,00 3.571,05 0,00 24.009,90 0,00 0,00 0,00 733,64 30/04/2023
409 302600 ANA LUCIA LOPES SANTOS OFICIAL DO MP BELO HORIZONTE - COMARCA; DIVISÃO DE FISCALIZAÇÃO DAS RELAÇÕES DE CONSU 1.500,00 0,00 578,00 0,00 0,00 0,00 1.771,66 0,00 0,00 30/04/2023
410 1409600 ANA LUISA COSTA DA SILVA ARAUJO ESTAGIARIO GOVERNADOR VALADARES; GOVERNADOR VALADARES-PJ-13PJ 0,00 0,00 0,00 216,00 0,00 0,00 0,00 0,00 0,00 30/04/2023
411 716700 ANA LUISA DE LANA COELHO ASSESSOR PROCURADOR JUSTICA BELO HORIZONTE - COMARCA; GABINETE DE PROCURADOR DE JUSTIÇA - SALA 715 1.500,00 0,00 578,00 0,00 0,00 0,00 0,00 0,00 0,00 30/04/2023
412 702000 ANA LUISA DE OLIVEIRA RIBEIRO ASSESSOR PROCURADOR JUSTICA BELO HORIZONTE - COMARCA; ASSESS TECNICO-JUR JUNTO AS PROC. DE JUST 1.500,00 0,00 578,00 0,00 0,00 0,00 0,00 0,00 0,00 30/04/2023
413 493400 ANA LUISA NOGUEIRA MOREIRA ANALISTA DO MP BELO HORIZONTE - COMARCA; BH-19PJ SAUDE-SECRETARIA 130PJ 1.500,00 0,00 578,00 0,00 0,00 0,00 0,00 0,00 0,00 30/04/2023
414 389300 ANA LUISA REUTER LIMA ANALISTA DO MP BELO HORIZONTE - COMARCA; DIRETORIA DE SISTEMAS DE INFORMACAO 1.500,00 0,00 578,00 0,00 0,00 0,00 0,00 0,00 0,00 30/04/2023
415 1560300 ANA LUISA SIMAN VAZ ESTAGIARIO GOVERNADOR VALADARES; GOVERNADOR VALADARES-PJ-04PJ 0,00 0,00 0,00 240,00 0,00 0,00 0,00 0,00 0,00 30/04/2023
416 1422600 ANA LUIZA ALVES FERREIRA ESTAGIARIO BELO HORIZONTE; BH-23PJ INFRACIONAL-GAB 039PJ 0,00 0,00 0,00 240,00 0,00 0,00 0,00 0,00 0,00 30/04/2023
417 1580300 ANA LUIZA ANDRADE KOLASCO ESTAGIARIO BELO HORIZONTE; BH-13PJ JUIZO DE TOXICOS-COORD PJ 0,00 0,00 0,00 108,00 0,00 0,00 0,00 0,00 0,00 30/04/2023
418 1391000 ANA LUIZA ANTUNES DE OLIVEIRA ESTAGIARIO NANUQUE; NANUQUE-PJ-01PJ 0,00 0,00 0,00 240,00 0,00 0,00 0,00 0,00 0,00 30/04/2023
419 1405100 ANA LUIZA CUNHA ALVES ESTAGIARIO JUIZ DE FORA; JUIZ DE FORA-PJ-18PJ 0,00 0,00 0,00 240,00 0,00 0,00 0,00 0,00 0,00 30/04/2023
420 441100 ANA LUIZA DA COSTA E CRUZ PROMOTOR 2A ENTRANCIA PEDRO LEOPOLDO - COMARCA; PEDRO LEOPOLDO-PJ-03PJ 1.500,00 0,00 2.205,58 0,00 16.962,47 0,00 0,00 0,00 518,30 30/04/2023
421 161000 ANA LUIZA DE ABREU MOREIRA PROMOT.ENTRANC.ESPECIAL BELO HORIZONTE - COMARCA; BH-03PJ EMPRESARIAL-GAB 037PJ 1.500,00 0,00 3.571,05 0,00 13.277,70 0,00 0,00 0,00 608,56 30/04/2023
422 480600 ANA LUIZA FERNANDES FRAGA E GRECO COORDENADOR I BELO HORIZONTE - COMARCA; OUVIDORIA DO MPMG 1.500,00 0,00 578,00 0,00 790,52 0,00 0,00 0,00 72,46 30/04/2023
423 726800 ANA LUIZA GOMES PEREIRA ASSESSOR ADMINISTRATIVO I BELO HORIZONTE - COMARCA; OUVIDORIA DO MPMG 1.500,00 0,00 578,00 0,00 0,00 0,00 0,00 0,00 0,00 30/04/2023
424 685400 ANA LUIZA HENRIQUES BERGER MACHADO PROMOTOR 2A ENTRANCIA ARAÇUAÍ - COMARCA; ARACUAI-PJ-01PJ 1.500,00 0,00 835,75 0,00 16.962,48 0,00 0,00 0,00 518,30 30/04/2023
425 733600 ANA LUIZA MACHADO RODRIGUES ASSESSOR PROMOTOR JUSTICA CARMO DA MATA - COMARCA; CARMO DA MATA-PJ-UNPJ 1.500,00 0,00 578,00 0,00 0,00 0,00 0,00 0,00 0,00 30/04/2023
426 517800 ANA LUIZA MAGALHAES CIRINO PIOTO DE MELO OFICIAL DO MP BELO HORIZONTE - COMARCA; DIVISAO DE MATERIAIS 1.500,00 1.900,00 578,00 0,00 0,00 0,00 0,00 0,00 0,00 30/04/2023
427 1311400 ANA LUIZA MENDES VIANA ESTAGIARIO BELO HORIZONTE; BH-12PJ JUIZO CRIMINAL-GAB 086PJ 0,00 0,00 0,00 240,00 0,00 0,00 0,00 0,00 0,00 30/04/2023
428 1547500 ANA LUIZA REIS MARTINS ESTAGIARIO BELO HORIZONTE; BH-02PJ FAMILIA-GAB 019PJ 0,00 0,00 0,00 240,00 0,00 0,00 0,00 0,00 0,00 30/04/2023
429 1554800 ANA LUIZA SILVA SANTIAGO ESTAGIARIO BELO HORIZONTE; GABINETE DE PROCURADOR DE JUSTIÇA - SALA 610 0,00 0,00 0,00 192,00 0,00 0,00 0,00 0,00 0,00 30/04/2023
430 1431000 ANA LUIZA SOARES CARDOSO ESTAGIARIO CONTAGEM; CONTAGEM-PJ-19PJ 0,00 0,00 0,00 228,00 0,00 0,00 0,00 0,00 0,00 30/04/2023
431 1603300 ANA LUIZA VALERIA TORRES ESTAGIARIO BELO HORIZONTE; BH-25PJ DEFESA DA EDUCACAO-SECRETARIA 0,00 0,00 0,00 36,00 0,00 0,00 0,00 0,00 0,00 30/04/2023
432 481400 ANA MARCIA CANDIDA FERREIRA OFICIAL DO MP BRUMADINHO - COMARCA; BRUMADINHO-PJ-02PJ 1.500,00 0,00 578,00 0,00 0,00 0,00 0,00 0,00 0,00 30/04/2023
433 114700 ANA MARIA CAMILO DA HORA E ROCHA PROMOT.ENTRANC.ESPECIAL MONTES CLAROS - COMARCA; MONTES CLAROS-PJ-05PJ 1.500,00 0,00 3.571,05 0,00 32.064,01 0,00 0,00 0,00 734,80 30/04/2023
434 1553700 ANA MARIA DA SILVA PRADO ESTAGIARIO MURIAE; MURIAE-PJ-02PJ 0,00 0,00 0,00 240,00 0,00 0,00 0,00 0,00 0,00 30/04/2023
435 643100 ANA MARIA LOPES MIRANDA ANALISTA DO MP BELO HORIZONTE - COMARCA; CAO-FUNDACOES 1.500,00 950,00 578,00 0,00 0,00 0,00 0,00 0,00 0,00 30/04/2023
436 1446600 ANA MARIA MENDES GOULART ESTAGIARIO BELO HORIZONTE; BH-23PJ INFRACIONAL-GAB 140PJ 0,00 0,00 0,00 228,00 0,00 0,00 0,00 0,00 0,00 30/04/2023
437 556400 ANA MARIA OLIVEIRA SOUZA OFICIAL DO MP ITAPECERICA - COMARCA; ITAPECERICA-PJ-UNPJ 1.500,00 0,00 578,00 0,00 0,00 0,00 0,00 0,00 0,00 30/04/2023
438 409600 ANA OLIVIA FARIA ROSENBURG ANALISTA DO MP BELO HORIZONTE - COMARCA; DIRETORIA DO COLEGIO E DA CAMARA DE PJ 1.500,00 0,00 578,00 0,00 0,00 0,00 0,00 0,00 0,00 30/04/2023
439 461500 ANA PAULA ALVES CARVALHO ANALISTA DO MP UBERLÂNDIA - COMARCA; UBERLANDIA-PJ-25PJ 1.500,00 950,00 578,00 0,00 5.685,36 0,00 0,00 0,00 521,16 30/04/2023
440 523200 ANA PAULA ALVES DA SILVA OFICIAL DO MP GOVERNADOR VALADARES - COMARCA; GOVERNADOR VALADARES-PJ-10PJ 1.500,00 3.800,00 578,00 0,00 0,00 0,00 0,00 0,00 0,00 30/04/2023
441 381200 ANA PAULA BARROS PEREIRA RIGHI ANALISTA DO MP BELO HORIZONTE - COMARCA; PROC JUST ATUACAO TRIBUNAIS SUPERIORES-GAB003 1.500,00 950,00 578,00 0,00 0,00 0,00 0,00 0,00 0,00 30/04/2023
442 696400 ANA PAULA CARVALHO SILVA ASSESSOR PROMOTOR JUSTICA PERDÕES - COMARCA; PERDOES-PJ-UNPJ 1.500,00 950,00 578,00 0,00 0,00 0,00 0,00 0,00 0,00 30/04/2023
443 700900 ANA PAULA CRAVO SALOME ASSESSOR ADMINISTRATIVO I BELO HORIZONTE - COMARCA; PROCURADOR-GERAL DE JUSTIÇA 1.500,00 0,00 578,00 0,00 0,00 0,00 0,00 0,00 0,00 30/04/2023
444 227200 ANA PAULA DA SILVA CAMPOLINA ANALISTA DO MP BELO HORIZONTE - COMARCA; DIRETORIA DE ORCAMENTO-DIOR/SPC 1.500,00 0,00 578,00 0,00 5.536,88 0,00 0,00 0,00 507,55 30/04/2023
445 1589300 ANA PAULA DE ALMEIDA VIEIRA SOUZA ESTAGIARIO IPATINGA; IPATINGA-PJ-06PJ 0,00 0,00 0,00 240,00 0,00 0,00 0,00 0,00 0,00 30/04/2023
446 1438600 ANA PAULA DE SOUZA ESTAGIARIO BRASOPOLIS; BRASOPOLIS-PJ-UNPJ 0,00 0,00 0,00 240,00 0,00 0,00 0,00 0,00 0,00 30/04/2023
447 1275600 ANA PAULA DE SOUZA OLIVEIRA ESTAGIARIO MURIAE; MURIAE-PJ-07PJ 0,00 0,00 0,00 240,00 0,00 0,00 0,00 0,00 0,00 30/04/2023
448 1584000 ANA PAULA DE SOUZA SANTOS ESTAGIARIO RIBEIRAO DAS NEVES; RIBEIRAO NEVES-SEC PJ EXECUCAO PENAL 0,00 0,00 0,00 60,00 0,00 0,00 0,00 0,00 0,00 30/04/2023
449 278500 ANA PAULA DIAS CAPANEMA OFICIAL DO MP BELO HORIZONTE - COMARCA; DIRETORIA DE SEGURANCA 1.500,00 0,00 578,00 0,00 0,00 0,00 0,00 0,00 0,00 30/04/2023
450 1429200 ANA PAULA DO NASCIMENTO LAGES ESTAGIARIO BELO HORIZONTE; BH-17PJ PATRIMONIO PUBLICO-GAB 004PJ 0,00 0,00 0,00 228,00 0,00 0,00 0,00 0,00 0,00 30/04/2023
451 1364900 ANA PAULA FLORINDA MACHADO DO CARMO ESTAGIARIO UBERABA; UBERABA-PJ-15PJ 0,00 0,00 0,00 156,00 0,00 0,00 0,00 0,00 0,00 30/04/2023
452 327300 ANA PAULA GARCIA MAXIMO OFICIAL DO MP UNAÍ - COMARCA; UNAI-PJ-01PJ 1.500,00 0,00 578,00 0,00 3.707,28 0,00 0,00 0,00 339,83 30/04/2023
453 270000 ANA PAULA GOULART CRUZ DE MAGALHAES ANALISTA DO MP BELO HORIZONTE - COMARCA; ASSESSORIA ESPECIAL DO PGJ 1.500,00 0,00 578,00 0,00 5.998,28 0,00 0,00 0,00 549,84 30/04/2023
454 262100 ANA PAULA KOMATSUZAKI ABIJAUDI ANALISTA DO MP BELO HORIZONTE - COMARCA; BH-17PJ PATRIMONIO PUBLICO-SECRETARIA 1.500,00 0,00 578,00 0,00 2.768,44 0,00 0,00 0,00 253,77 30/04/2023
455 671400 ANA PAULA LIMA DA SILVA PROMOTOR 1A ENTRANCIA RIO CASCA - COMARCA; RIO CASCA-PJ-UNPJ 1.500,00 0,00 1.722,15 0,00 16.114,35 0,00 0,00 0,00 492,38 30/04/2023
456 222600 ANA PAULA LOURENCO DE PAULA PROMOTOR 2A ENTRANCIA ITUIUTABA - COMARCA; ITUIUTABA-PJ-03PJ 1.500,00 0,00 3.392,49 0,00 5.980,53 0,00 0,00 0,00 548,22 30/04/2023
457 1418000 ANA PAULA MACHADO DE OLIVEIRA ESTAGIARIO BELO HORIZONTE; BH-23PJ INFRACIONAL-GAB 142PJ 0,00 0,00 0,00 240,00 0,00 0,00 0,00 0,00 0,00 30/04/2023
458 106200 ANA PAULA MENDES RODRIGUES PROCURADOR DE JUSTICA BELO HORIZONTE - COMARCA; PROC JUSTICA DIR DIFUSOS E COLETIVOS-GAB007 1.500,00 0,00 1.392,91 0,00 16.032,01 0,00 0,00 0,00 0,00 30/04/2023
459 278900 ANA PAULA MOREIRA GURGEL ANALISTA DO MP BELO HORIZONTE - COMARCA; ASSESSORIA JURIDICO-ADMINISTRATIVA 1.500,00 0,00 578,00 0,00 4.510,80 0,00 0,00 0,00 2.720,52 30/04/2023
460 1333700 ANA PAULA PACHECO DA SILVA ARAUJO ESTAGIARIO BELO HORIZONTE; GABINETE DE PROCURADOR DE JUSTIÇA - SALA 713 0,00 0,00 0,00 48,00 0,00 0,00 0,00 0,00 0,00 30/04/2023
461 1567000 ANA PAULA PEREIRA ESTAGIARIO VISCONDE DO RIO BRANCO; VISCONDE DO RIO BRANCO-PJ-02PJ 0,00 0,00 0,00 228,00 0,00 0,00 0,00 0,00 0,00 30/04/2023
462 484400 ANA PAULA RESENDE DORNELLAS DE AZEVEDO PROMOTOR SUBSTITUTO CONTAGEM - COMARCA; CONTAGEM-PJ-19PJ 1.500,00 0,00 3.222,87 0,00 16.114,35 0,00 0,00 0,00 492,38 30/04/2023
463 425701 ANA PAULA ROCHA ANALISTA DO MP BELO HORIZONTE - COMARCA; ASSESSORIA DE COMUNICACAO INTEGRADA 1.500,00 950,00 578,00 0,00 0,00 0,00 0,00 0,00 0,00 30/04/2023
464 1511700 ANA PAULA ROSA ESTAGIARIO PATROCINIO; PATROCINIO-PJ-03PJ 0,00 0,00 0,00 228,00 0,00 0,00 0,00 0,00 0,00 30/04/2023
465 395601 ANA PAULA SALGE OLIVEIRA ANALISTA DO MP UBERABA - COMARCA; UBERABA-PJ-15PJ 1.500,00 0,00 578,00 0,00 740,62 0,00 0,00 0,00 1.302,25 30/04/2023
466 473200 ANA PAULA SCOTTON BRASIL ANALISTA DO MP JUIZ DE FORA - COMARCA; JUIZ DE FORA-PJ-09PJ 1.500,00 0,00 578,00 0,00 1.777,48 0,00 0,00 0,00 162,94 30/04/2023
467 633600 ANA PAULA SILVA FERNANDES OFICIAL DO MP CATAGUASES - COMARCA; CATAGUASES-PJ-04PJ 1.500,00 0,00 578,00 0,00 0,00 99,26 0,00 0,00 0,00 30/04/2023
468 1468500 ANA PAULA TEIXEIRA ESTAGIARIO 0,00 0,00 0,00 240,00 0,00 0,00 0,00 0,00 0,00 30/04/2023
469 470900 ANA PAULA VALADARES ANALISTA DO MP PITANGUI - COMARCA; PITANGUI-PJ-01PJ 1.500,00 0,00 578,00 0,00 0,00 0,00 0,00 0,00 0,00 30/04/2023
470 447000 ANA PAULA VALENTIM DE ARAUJO ANALISTA DO MP BELO HORIZONTE - COMARCA; PROC JUST ESP ACOES COMP ORIG CRIMINAL-ASSESS 1.500,00 0,00 578,00 0,00 0,00 0,00 0,00 0,00 0,00 30/04/2023
471 604200 ANA PAULA VIANA E SILVA OFICIAL DO MP BELO HORIZONTE - COMARCA; BH-17PJ PATRIMONIO PUBLICO-SECRETARIA 1.500,00 0,00 578,00 0,00 0,00 0,00 0,00 0,00 0,00 30/04/2023
472 505400 ANA PAULA VIEIRA SOUTO OFICIAL DO MP ALMENARA - COMARCA; ALMENARA-PJ-01PJ 1.500,00 0,00 578,00 0,00 0,00 0,00 0,00 0,00 0,00 30/04/2023
473 280200 ANA RACHEL BRANDAO LADEIRA ROLAND ANALISTA DO MP BELO HORIZONTE - COMARCA; SUPERINTENDENCIA GESTÃO DE PESSOAS 1.500,00 0,00 578,00 0,00 0,00 0,00 0,00 0,00 0,00 30/04/2023
474 691000 ANA RACHEL DOS REIS E SENA COSTA ASSESSOR PROMOTOR JUSTICA BELO HORIZONTE - COMARCA; GABINETE DE PROCURADOR DE JUSTIÇA - SALA 601 1.500,00 0,00 578,00 0,00 0,00 0,00 0,00 0,00 0,00 30/04/2023
475 601200 ANA REGINA RIBEIRO ANALISTA DO MP BELO HORIZONTE - COMARCA; DIV FISCAL ADM CONT TERCEIRIZACAO 1.500,00 0,00 578,00 0,00 0,00 0,00 0,00 0,00 0,00 30/04/2023
476 384700 ANA RODRIGUES PEREIRA MARRA ANALISTA DO MP COROMANDEL - COMARCA; COROMANDEL-PJ-01PJ 1.500,00 0,00 578,00 0,00 0,00 0,00 0,00 0,00 0,00 30/04/2023
477 232700 ANA SILVIA SEMBLANO NAKAMURA OFICIAL DO MP BELO HORIZONTE - COMARCA; CENT DE APOIO TEC-SETOR DEF,IDOSO E INFANC 1.500,00 0,00 578,00 0,00 0,00 0,00 0,00 0,00 0,00 30/04/2023
478 1417800 ANA TARSILA MAIA CORTES ESTAGIARIO BELO HORIZONTE; BH-08PJ JUIZADO ESPECIAL-GAB 070PJ 0,00 0,00 0,00 240,00 0,00 0,00 0,00 0,00 0,00 30/04/2023
479 1437900 ANA TEREZA RIBEIRO ALFENAS ESTAGIARIO UBA; UBA-PJ-01PJ 0,00 0,00 0,00 228,00 0,00 0,00 0,00 0,00 0,00 30/04/2023
480 530300 ANA TEREZA RIBEIRO SALLES GIACOMINI PROMOTOR 2A ENTRANCIA OURO PRETO - COMARCA; OURO PRETO-PJ-02PJ 1.500,00 0,00 3.039,08 0,00 22.616,63 0,00 0,00 0,00 518,30 30/04/2023
481 1434600 ANA VIRGINIA SANTOS DEMUNER ESTAGIARIO OLIVEIRA; OLIVEIRA-PJ-02PJ 0,00 0,00 0,00 240,00 0,00 0,00 0,00 0,00 0,00 30/04/2023
482 602100 ANACLETO FRANCISCO MARCIER PIMENTA OFICIAL DO MP SÃO JOÃO DEL REI - COMARCA; SAO JOAO DEL REI-PJ-03PJ 1.500,00 950,00 578,00 0,00 0,00 0,00 0,00 0,00 0,00 30/04/2023
483 310400 ANADEJE DO CARMO DINIZ ARAUJO OFICIAL DO MP BELO HORIZONTE - COMARCA; DIRETORIA DE PESSOAL ADMINISTRATIVO - DPAD 1.500,00 0,00 578,00 0,00 0,00 0,00 0,00 0,00 0,00 30/04/2023
484 337000 ANAILDES MARIA MENDES OFICIAL DO MP JANAÚBA - COMARCA; JANAUBA-PJ-02PJ 1.500,00 950,00 578,00 0,00 0,00 0,00 0,00 0,00 0,00 30/04/2023
485 1417400 ANALU BATISTA TORQUATO ARAUJO ESTAGIARIO BELO HORIZONTE; PROC JUST ESP ACOES COMP ORIG CRIMINAL-ASSESS 0,00 0,00 0,00 240,00 0,00 0,00 0,00 0,00 0,00 30/04/2023
486 1577800 ANANDA RIBEIRO DOS REIS ESTAGIARIO RIBEIRAO DAS NEVES; RIBEIRAO DAS NEVES-PJ-SEC CRIMINAL 0,00 0,00 0,00 228,00 0,00 0,00 0,00 0,00 0,00 30/04/2023
487 377400 ANDEIRSON DA MATTA BARBOSA ANALISTA DO MP POUSO ALEGRE - COMARCA; POUSO ALEGRE-PJ-01PJ 1.500,00 950,00 578,00 0,00 0,00 0,00 0,00 0,00 0,00 30/04/2023
488 317400 ANDERSON DA SILVA BICALHO OFICIAL DO MP CONTAGEM - COMARCA; CONTAGEM-PJ-SECRETARIA 1.500,00 0,00 578,00 0,00 0,00 0,00 0,00 0,00 0,00 30/04/2023
489 506900 ANDERSON DE SOUZA DAMIANI ANALISTA DO MP BELO HORIZONTE - COMARCA; DIRETORIA DE PAGAMENTO DE PESSOAL-DPAG 1.500,00 0,00 578,00 0,00 3.651,20 0,00 0,00 0,00 334,69 30/04/2023
490 410000 ANDERSON DE SOUZA NETO ASSESSOR ADMINISTRATIVO II BELO HORIZONTE - COMARCA; DIRETORIA DE ADMINISTRACAO FINANCEIRA 1.500,00 0,00 578,00 0,00 0,00 0,00 0,00 0,00 0,00 30/04/2023
491 1300000 ANDERSON EDUARDO DOS SANTOS PEDRO ESTAGIARIO TRES CORACOES; TRES CORACOES-PJ-02PJ 0,00 0,00 0,00 240,00 0,00 0,00 0,00 0,00 0,00 30/04/2023
492 1584400 ANDERSON FELIPPE FERREIRA ESTAGIARIO BELO HORIZONTE; OUVIDORIA DO MPMG 0,00 0,00 0,00 240,00 0,00 0,00 0,00 0,00 0,00 30/04/2023
493 181900 ANDERSON FLAVIO DE OLIVEIRA OFICIAL DO MP ITAGUARA - COMARCA; ITAGUARA-PJ-SECRETARIA 1.500,00 0,00 578,00 0,00 0,00 0,00 0,00 0,00 0,00 30/04/2023
494 333200 ANDERSON JOSE DE FREITAS OFICIAL DO MP IPATINGA - COMARCA; IPATINGA-PJ-04PJ 1.500,00 950,00 578,00 0,00 0,00 0,00 1.771,66 0,00 0,00 30/04/2023
495 1555400 ANDERSON LUCAS DE ANDRADE SILVA ESTAGIARIO PRADOS; PRADOS-PJ-UNPJ 0,00 0,00 0,00 216,00 0,00 0,00 0,00 0,00 0,00 30/04/2023
496 699400 ANDERSON LUIZ CABRAL ASSESSOR PROMOTOR JUSTICA ALÉM PARAÍBA - COMARCA; ALEM PARAIBA-PJ-03PJ 1.500,00 0,00 578,00 0,00 0,00 0,00 0,00 0,00 0,00 30/04/2023
497 462100 ANDERSON LUIZ GUIMARAES CARDOSO ANALISTA DO MP BARBACENA - COMARCA; BARBACENA-PJ-02PJ 1.500,00 0,00 578,00 0,00 0,00 0,00 0,00 0,00 0,00 30/04/2023
498 429700 ANDERSON MELO DE SOUZA COORDENADOR II BELO HORIZONTE - COMARCA; DIRET DE ESTAGIOS E CONVENIOS ACADEMICOS 1.500,00 0,00 578,00 0,00 985,62 0,00 0,00 0,00 90,35 30/04/2023
499 545600 ANDERSON MENDES PROCOPIO FERREIRA ANALISTA DO MP BELO HORIZONTE - COMARCA; BH-12PJ JUIZO CRIMINAL-GAB 089PJ 1.500,00 0,00 578,00 0,00 641,86 0,00 0,00 0,00 1.293,20 30/04/2023
500 519900 ANDERSON MOREIRA DOEHLER ANALISTA DO MP TEÓFILO OTONI - COMARCA; COORD REG SAUDE MACRORREGIAO SANIT NORDESTE 1.500,00 0,00 578,00 0,00 0,00 0,00 0,00 0,00 0,00 30/04/2023
501 1379900 ANDERSON NASCIMENTO DOS SANTOS ESTAGIARIO MARIANA; MARIANA-PJ-01PJ 0,00 0,00 0,00 240,00 0,00 0,00 0,00 0,00 0,00 30/04/2023
502 103000 ANDERSON TADEU DE DEUS ASSESSOR ADMINISTRATIVO II BELO HORIZONTE - COMARCA; BH-26 CRIME CONT CRIAN ADOL-SECRETARIA 1.500,00 0,00 578,00 0,00 5.044,50 0,00 0,00 0,00 49,54 30/04/2023
503 652500 ANDERSON TADEU LOPES INVESTIGADOR DE POLICIA 2 CONTAGEM - COMARCA; COORD REG DEF ORDEM ECON TRIB CONTAGEM 1.500,00 0,00 0,00 0,00 0,00 0,00 0,00 0,00 0,00 30/04/2023
504 309200 ANDITYAS SOARES DE MOURA COSTA MATOS ANALISTA DO MP BELO HORIZONTE - COMARCA; GABINETE DE PROCURADOR DE JUSTIÇA - SALA 909 1.500,00 0,00 578,00 0,00 0,00 0,00 0,00 0,00 2.053,37 30/04/2023
505 1471100 ANDRE BAMBIRRA DE PAULA REIS ESTAGIARIO BELO HORIZONTE; GABINETE DE PROCURADOR DE JUSTIÇA - SALA 715 0,00 0,00 0,00 240,00 0,00 0,00 0,00 0,00 0,00 30/04/2023
506 519200 ANDRE BORJA LANA ANALISTA DO MP BELO HORIZONTE - COMARCA; DIR CONTEUDO JORNALISTICO 1.500,00 0,00 578,00 0,00 0,00 0,00 0,00 0,00 0,00 30/04/2023
507 486000 ANDRE CARDOSO CAVALCANTI PROMOTOR 2A ENTRANCIA ITAJUBA - COMARCA; ITAJUBA-PJ-02PJ 1.500,00 0,00 3.392,49 0,00 22.616,63 0,00 0,00 0,00 518,30 30/04/2023
508 1512600 ANDRE CHAVES REIS ESTAGIARIO BELO HORIZONTE; GABINETE DE PROCURADOR DE JUSTIÇA - SALA 407 0,00 0,00 0,00 12,00 0,00 0,00 0,00 0,00 0,00 30/04/2023
509 224900 ANDRE CHIO MAXIMO PROMOT.ENTRANC.ESPECIAL VESPASIANO - COMARCA; VESPASIANO-PJ-02PJ 1.500,00 0,00 3.571,05 0,00 6.261,80 0,00 0,00 0,00 574,00 30/04/2023
510 1526200 ANDRE DA SILVA RODRIGUES ESTAGIARIO IBIRITE; IBIRITE-PJ-04PJ 0,00 0,00 0,00 216,00 0,00 0,00 0,00 0,00 0,00 30/04/2023
511 102400 ANDRE DE OLIVEIRA ANDRADE PROMOT.ENTRANC.ESPECIAL BELO HORIZONTE - COMARCA; BH-02PJ FAMILIA-GAB 030PJ 1.500,00 0,00 3.571,05 0,00 32.064,00 0,00 0,00 0,00 734,80 30/04/2023
512 656000 ANDRE DE OLIVEIRA SOUSA INVESTIGADOR DE POLICIA 2 BELO HORIZONTE - COMARCA; GAECO - SETOR POLICIAL CIVIL 1.500,00 0,00 0,00 0,00 0,00 0,00 0,00 0,00 0,00 30/04/2023
513 79200 ANDRE ESTEVAO UBALDINO PEREIRA PROCURADOR DE JUSTICA BELO HORIZONTE - COMARCA; GABINETE DE PROCURADOR DE JUSTIÇA - SALA 502 1.500,00 0,00 3.759,00 0,00 25.651,21 0,00 0,00 0,00 23.288,78 30/04/2023
514 1519800 ANDRE FELIPE MURTA LEMES ESTAGIARIO NOVA LIMA; NOVA LIMA-PJ-03PJ 0,00 0,00 0,00 192,00 0,00 0,00 0,00 0,00 0,00 30/04/2023
515 1489700 ANDRE FELIPE REIS MENDES ESTAGIARIO BELO HORIZONTE; BH-09PJ AUDITORIA MILITAR-GAB 074PJ 0,00 0,00 0,00 240,00 0,00 0,00 0,00 0,00 0,00 30/04/2023
516 637200 ANDRE FERNANDES DA CUNHA OFICIAL DO MP MORADA NOVA DE MINAS - COMARCA; MORADA NOVA DE MINAS-PJ-UNPJ 1.500,00 0,00 578,00 0,00 0,00 0,00 0,00 0,00 0,00 30/04/2023
517 162800 ANDRE FERNANDO COLUCCO PROMOTOR 2A ENTRANCIA CASSIA - COMARCA; CASSIA-PJ-02PJ 1.500,00 0,00 3.392,49 0,00 12.548,54 0,00 0,00 0,00 0,00 30/04/2023
518 651500 ANDRE GONCALVES MARANHAO OFICIAL DO MP ANDRADAS - COMARCA; ANDRADAS-PJ-02PJ 1.500,00 0,00 578,00 0,00 5.902,67 0,00 0,00 0,00 541,08 30/04/2023
519 1603900 ANDRE HENRIQUE BARBOSA CAMPOS ESTAGIARIO RIBEIRAO DAS NEVES; RIBEIRAO DAS NEVES-PJ-SEC CRIMINAL 0,00 0,00 0,00 36,00 0,00 0,00 0,00 0,00 0,00 30/04/2023
520 439200 ANDRE LEITE DE ALMEIDA PROMOT.ENTRANC.ESPECIAL VESPASIANO - COMARCA; VESPASIANO-PJ-03PJ 1.500,00 0,00 1.570,19 0,00 17.855,23 0,00 0,00 0,00 545,58 30/04/2023
521 1559100 ANDRE LUCAS GOMES DE BRITO ESTAGIARIO UBERABA; UBERABA-PJ-05PJ 0,00 0,00 0,00 240,00 0,00 0,00 0,00 0,00 0,00 30/04/2023
522 166900 ANDRE LUIS ALVES DE MELO PROMOTOR 2A ENTRANCIA ARAGUARI - COMARCA; ARAGUARI-PJ-01PJ 1.500,00 0,00 3.392,49 0,00 25.097,08 0,00 0,00 0,00 575,14 30/04/2023
523 85000 ANDRE LUIS GARCIA DE PINHO PROMOT.ENTRANC.ESPECIAL BELO HORIZONTE - COMARCA; SUPER DE GESTAO DE PESSOAS-EM DISPONIBILIDADE 0,00 0,00 3.047,76 0,00 0,00 0,00 0,00 0,00 0,00 30/04/2023
524 521900 ANDRE LUIS GOMES SILVA ANALISTA DO MP FORMIGA - COMARCA; FORMIGA-PJ-02PJ 1.500,00 1.900,00 578,00 0,00 0,00 0,00 0,00 0,00 0,00 30/04/2023
525 340800 ANDRE LUIS MACHADO ARANTES PROMOTOR 2A ENTRANCIA PARÁ DE MINAS - COMARCA; PARA DE MINAS-PJ-05PJ 1.500,00 0,00 3.571,05 0,00 23.806,97 0,00 0,00 0,00 2.331,10 30/04/2023
526 1551400 ANDRE LUIS RESENDE ESTAGIARIO DIVINOPOLIS; DIVINOPOLIS-PJ-01PJ 0,00 0,00 0,00 192,00 0,00 0,00 0,00 0,00 0,00 30/04/2023
527 304300 ANDRE LUIZ AVELAR ANALISTA DO MP BELO HORIZONTE - COMARCA; DIRETORIA DE REDES E BANCOS DE DADOS 1.500,00 0,00 578,00 0,00 0,00 0,00 0,00 0,00 0,00 30/04/2023
528 666100 ANDRE LUIZ FERREIRA VALADARES PROMOTOR 2A ENTRANCIA VARZEA DA PALMA - COMARCA; VARZEA DA PALMA-PJ-02PJ 1.500,00 0,00 835,75 0,00 16.962,48 0,00 0,00 0,00 518,30 30/04/2023
529 530200 ANDRE LUIZ NOLLI MERRIGHI PROMOT.ENTRANC.ESPECIAL SETE LAGOAS - COMARCA; SETE LAGOAS-PJ-03PJ 1.500,00 0,00 3.571,05 0,00 17.855,23 0,00 0,00 0,00 545,58 30/04/2023
530 1569500 ANDRE MAGNO ALVES LOPES ESTAGIARIO BELO HORIZONTE; PROC JUST ATUACAO TRIBUNAIS SUPERIORES-GAB002 0,00 0,00 0,00 240,00 0,00 0,00 0,00 0,00 0,00 30/04/2023
531 718800 ANDRE OBERG LEMOS PROMOTOR SUBSTITUTO GRAO MOGOL - COMARCA; GRAO MOGOL-PJ-UNPJ 1.500,00 0,00 3.222,87 0,00 5.371,45 0,00 0,00 0,00 492,38 30/04/2023
532 397400 ANDRE PATARO MYRRHA DE PAULA E SILVA ANALISTA DO MP BELO HORIZONTE - COMARCA; ASSESSORIA JURIDICO-ADMINISTRATIVA 1.500,00 950,00 578,00 0,00 0,00 0,00 0,00 0,00 0,00 30/04/2023
533 533200 ANDRE PEREIRA MAFIA PROMOTOR 2A ENTRANCIA ALÉM PARAÍBA - COMARCA; ALEM PARAIBA-PJ-01PJ 1.500,00 0,00 886,40 0,00 12.439,15 0,00 0,00 0,00 518,30 30/04/2023
534 441200 ANDRE SALLES DIAS PINTO PROMOTOR 2A ENTRANCIA IGARAPÉ - COMARCA; IGARAPE-PJ-01PJ 1.500,00 0,00 3.392,49 0,00 16.962,47 0,00 0,00 0,00 518,30 30/04/2023
535 237800 ANDRE SILVARES VASCONCELOS PROMOTOR 2A ENTRANCIA PIUMHI - COMARCA; PIUMHI-PJ-02PJ 1.500,00 0,00 2.963,10 0,00 23.922,13 0,00 0,00 0,00 548,22 30/04/2023
536 231800 ANDRE SPERLING PRADO PROMOT.ENTRANC.ESPECIAL BELO HORIZONTE - COMARCA; BH-19PJ SAUDE-GAB 047PJ 1.500,00 0,00 3.292,33 0,00 26.555,40 0,00 0,00 0,00 608,56 30/04/2023
537 666300 ANDRE TANURE DOMINGUES FIGUEIREDO PROMOTOR 2A ENTRANCIA PONTE NOVA - COMARCA; PONTE NOVA-PJ-05PJ 1.500,00 0,00 1.671,50 0,00 5.654,16 0,00 0,00 0,00 518,30 30/04/2023
538 650100 ANDRE THOME VARGAS OFICIAL DO MP LEOPOLDINA - COMARCA; LEOPOLDINA-PJ-04PJ 1.500,00 0,00 578,00 0,00 0,00 0,00 0,00 0,00 0,00 30/04/2023
539 231600 ANDRE TUMA DELBIM FERREIRA PROMOT.ENTRANC.ESPECIAL UBERABA - COMARCA; UBERABA-PJ-10PJ 1.500,00 0,00 1.063,68 0,00 25.181,20 0,00 0,00 0,00 577,07 30/04/2023
540 671500 ANDRE VALDERRAMAS FRANCO PROMOTOR 2A ENTRANCIA MONTE CARMELO - COMARCA; MONTE CARMELO-PJ-02PJ 1.500,00 0,00 835,75 0,00 16.962,47 0,00 0,00 0,00 518,30 30/04/2023
541 548500 ANDRE VINICIUS CARVALHO MEIRA ANALISTA DO MP JUIZ DE FORA - COMARCA; JUIZ DE FORA-PJ-24PJ 1.500,00 0,00 578,00 0,00 5.974,31 0,00 0,00 0,00 547,65 30/04/2023
542 297200 ANDRE WILLE ROSARIO ANALISTA DO MP BELO HORIZONTE - COMARCA; ASSESSORIA ESPECIAL DO PGJ 1.500,00 0,00 578,00 0,00 5.998,28 0,00 0,00 0,00 549,84 30/04/2023
543 224500 ANDREA BASILIO GONCALVES GOLLOP PROMOT.ENTRANC.ESPECIAL BELO HORIZONTE - COMARCA; BH-18PJ VIOLENCIA DOMESTICA-GAB 186PJ 1.500,00 0,00 3.571,05 0,00 0,00 0,00 0,00 0,00 0,00 30/04/2023
544 666400 ANDREA CLEMENTE BARBOSA DE SOUZA PROMOTOR SUBSTITUTO ITAÚNA - COMARCA; ITAUNA-PJ-03PJ 1.500,00 0,00 3.032,52 0,00 15.040,06 0,00 0,00 0,00 492,38 30/04/2023
545 423600 ANDREA COSTA GUALBERTO ALVES ANALISTA DO MP GOVERNADOR VALADARES - COMARCA; COORD REG PJ DEF EDU DIR CRIANCA ADOL RIODOCE 1.500,00 0,00 578,00 0,00 0,00 0,00 0,00 0,00 0,00 30/04/2023
546 230600 ANDREA CRISTINA CALDAS SANTIAGO PROMOT.ENTRANC.ESPECIAL CONSELHEIRO LAFAIETE - COMARCA; CONSELHEIRO LAFAIETE-PJ-07PJ 1.500,00 0,00 1.899,42 0,00 13.763,82 0,00 0,00 0,00 0,00 30/04/2023
547 467300 ANDREA DE CASSIA PENNA ALVERNAZ ANALISTA DO MP PONTE NOVA - COMARCA; PONTE NOVA-PJ-01PJ 1.500,00 0,00 578,00 0,00 0,00 0,00 0,00 0,00 0,00 30/04/2023
548 308000 ANDREA DE CASSIA SANTOS OLIVEIRA ANALISTA DO MP BELO HORIZONTE - COMARCA; COORD DE GABINETE DO PGJ 1.500,00 0,00 578,00 0,00 0,00 0,00 0,00 0,00 0,00 30/04/2023
549 106300 ANDREA DE FIGUEIREDO SOARES PROCURADOR DE JUSTICA BELO HORIZONTE - COMARCA; GABINETE DE PROCURADOR DE JUSTIÇA - SALA 709 1.500,00 0,00 3.570,92 0,00 24.048,01 0,00 0,00 0,00 734,80 30/04/2023
550 349500 ANDREA DE OLIVEIRA LOIOLA REGIS OFICIAL DO MP IGUATAMA - COMARCA; IGUATAMA-PJ-UNPJ 1.500,00 0,00 578,00 0,00 0,00 0,00 0,00 0,00 0,00 30/04/2023
551 287900 ANDREA FERNANDES PENA MARTINS OFICIAL DO MP MONTES CLAROS - COMARCA; MONTES CLAROS-PJ-09PJ 1.500,00 0,00 578,00 0,00 0,00 0,00 0,00 0,00 0,00 30/04/2023
552 300800 ANDREA FERREIRA ANALISTA DO MP LAVRAS - COMARCA; LAVRAS-PJ-04PJ 1.500,00 0,00 578,00 0,00 5.550,10 0,00 0,00 0,00 508,76 30/04/2023
553 395100 ANDREA LANNA MENDES NOVAIS ANALISTA DO MP BELO HORIZONTE - COMARCA; PROMOT ESTADUAL DE DEF PATRI CULT E TUR DE MG 1.500,00 0,00 578,00 0,00 0,00 0,00 0,00 0,00 1.872,08 30/04/2023
554 67300 ANDREA LEAO MAGALHAES ROQUE ASSESSOR ADMINISTRATIVO IV BELO HORIZONTE - COMARCA; GRUPO ATUACAO ESP COMB CRIMES CIBER 1.500,00 0,00 578,00 0,00 0,00 0,00 0,00 0,00 0,00 30/04/2023
555 335700 ANDREA LOPES PEREIRA ANALISTA DO MP GOVERNADOR VALADARES - COMARCA; COORD REG DO MA DA BACIA DO RIO DOCE 1.500,00 0,00 578,00 0,00 0,00 0,00 0,00 0,00 0,00 30/04/2023
556 224700 ANDREA MARIA NESSRALLA BAHURY PROMOT.ENTRANC.ESPECIAL BELO HORIZONTE - COMARCA; BH-12PJ JUIZO CRIMINAL-GAB 089PJ 1.500,00 0,00 3.571,05 0,00 0,00 0,00 0,00 0,00 0,00 30/04/2023
557 167000 ANDREA MISMOTTO CARELLI PROMOT.ENTRANC.ESPECIAL BELO HORIZONTE - COMARCA; BH-26 CRIME CONT CRIAN ADOL-GAB 048PJ 1.500,00 0,00 1.164,98 0,00 19.916,55 0,00 0,00 0,00 608,56 30/04/2023
558 1436600 ANDREA ROSA DE SOUSA ESTAGIARIO TEOFILO OTONI; TEOFILO OTONI-PJ-04PJ 0,00 0,00 0,00 240,00 0,00 0,00 0,00 0,00 0,00 30/04/2023
559 389200 ANDREA TUPINI DOS SANTOS TRISTAO DA ROCHA GESTOR ADM. SECRETARIA IV BELO HORIZONTE - COMARCA; BH-13ª PJ JUÍZO DE TÓXICOS-SECRETARIA 1.500,00 0,00 578,00 0,00 0,00 0,00 0,00 0,00 0,00 30/04/2023
560 419000 ANDREIA BARBOSA DE ALMEIDA ANALISTA DO MP BELO HORIZONTE - COMARCA; CENT ESTAD COOPERACAO TECNICO-JURIDICA 1.500,00 0,00 578,00 0,00 3.371,33 0,00 0,00 0,00 309,04 30/04/2023
561 281501 ANDREIA CARLA COSTA ANALISTA DO MP UBÁ - COMARCA; UBA-PJ-02PJ 1.500,00 0,00 578,00 0,00 3.481,11 0,00 0,00 0,00 319,10 30/04/2023
562 477100 ANDREIA DE ALMEIDA RIBEIRO MELO OFICIAL DO MP CONTAGEM - COMARCA; CONTAGEM-PJ-SECRETARIA 1.500,00 0,00 578,00 0,00 0,00 0,00 0,00 0,00 0,00 30/04/2023
563 619000 ANDREIA FERREIRA NORONHA COORDENADOR II BELO HORIZONTE - COMARCA; DIRETORIA DE SERVICO CRIMINAL 1.500,00 0,00 578,00 0,00 3.613,93 0,00 0,00 0,00 331,28 30/04/2023
564 424000 ANDREIA LUCIA COUTO ANALISTA DO MP BELO HORIZONTE - COMARCA; BH-18PJ DIREITOS HUMANOS-SECRETARIA 1.500,00 0,00 578,00 0,00 0,00 0,00 0,00 0,00 0,00 30/04/2023
565 370100 ANDREIA MARIA SILVA PINTO OFICIAL DO MP CORONEL FABRICIANO - COMARCA; CORONEL FABRICIANO-PJ-01PJ 1.500,00 950,00 578,00 0,00 0,00 0,00 0,00 0,00 0,00 30/04/2023
566 382100 ANDREIA NATALI PEREIRA DE OLIVEIRA OFICIAL DO MP PRADOS - COMARCA; PRADOS-PJ-UNPJ 1.500,00 0,00 578,00 0,00 0,00 0,00 0,00 0,00 0,00 30/04/2023
567 198701 ANDREIA NUNES DURAES PROMOTOR 2A ENTRANCIA BOCAIÚVA - COMARCA; BOCAIUVA-PJ-02PJ 1.500,00 0,00 0,00 0,00 22.616,63 0,00 0,00 0,00 518,30 30/04/2023
568 275200 ANDREIA RIBEIRO FREITAS OFICIAL DO MP VIÇOSA - COMARCA; VICOSA-PJ-04PJ 1.500,00 0,00 578,00 0,00 0,00 0,00 0,00 0,00 0,00 30/04/2023
569 352200 ANDREIA XAVIER PEREIRA OFICIAL DO MP CLÁUDIO - COMARCA; CLAUDIO-PJ-UNPJ 1.500,00 1.425,00 578,00 0,00 0,00 0,00 0,00 0,00 0,00 30/04/2023
570 638500 ANDRESA ALVES FEITOSA CASAGRANDE ANALISTA DO MP LAVRAS - COMARCA; COORD REG DO MA DA BACIA DO RIO GRANDE 1.500,00 0,00 578,00 0,00 0,00 0,00 0,00 0,00 0,00 30/04/2023
571 1566800 ANDRESON FERREIRA DE SOUZA ESTAGIARIO UBA; UBA-PJ-01PJ 0,00 0,00 0,00 240,00 0,00 0,00 0,00 0,00 0,00 30/04/2023
572 1331800 ANDRESSA ALBUQUERQUE BATISTA ESTAGIARIO JUIZ DE FORA; JUIZ DE FORA-PJ-15PJ 0,00 0,00 0,00 216,00 0,00 0,00 0,00 0,00 0,00 30/04/2023
573 1466400 ANDRESSA BARROS TOMAZ ESTAGIARIO ITUMIRIM; ITUMIRIM-PJ-UNPJ 0,00 0,00 0,00 240,00 0,00 0,00 0,00 0,00 0,00 30/04/2023
574 1559800 ANDRESSA CAROLYNE MEDEIROS ROCHA ESTAGIARIO UBERLANDIA; UBERLANDIA-PJ-12PJ 0,00 0,00 0,00 228,00 0,00 0,00 0,00 0,00 0,00 30/04/2023
575 1523900 ANDRESSA CRISTINA MARTINS PEREIRA ESTAGIARIO 0,00 0,00 0,00 216,00 0,00 0,00 0,00 0,00 0,00 30/04/2023
576 1475200 ANDRESSA DA SILVA COUTO ESTAGIARIO BELO HORIZONTE; GABINETE DE PROCURADOR DE JUSTIÇA - SALA 702 0,00 0,00 0,00 36,00 0,00 0,00 0,00 0,00 0,00 30/04/2023
577 210000 ANDRESSA DE OLIVEIRA LANCHOTTI PROMOT.ENTRANC.ESPECIAL BELO HORIZONTE - COMARCA; BH-12PJ JUIZO CRIMINAL-GAB 104PJ 1.500,00 0,00 3.571,05 0,00 6.278,12 0,00 0,00 0,00 575,49 30/04/2023
578 1372300 ANDRESSA DE OLIVEIRA RESENDE ESTAGIARIO ARAGUARI; ARAGUARI-PJ-06PJ 0,00 0,00 0,00 180,00 0,00 0,00 0,00 0,00 0,00 30/04/2023
579 383700 ANDRESSA EDUARDO SOUZA ANALISTA DO MP OURO BRANCO - COMARCA; OURO BRANCO-PJ-SECRETARIA 1.500,00 760,00 578,00 0,00 0,00 0,00 0,00 0,00 0,00 30/04/2023
580 1393200 ANDRESSA ESTEVAO ESTAGIARIO POUSO ALEGRE; POUSO ALEGRE-PJ-04PJ 0,00 0,00 0,00 144,00 555,00 0,00 0,00 0,00 0,00 30/04/2023
581 485500 ANDRESSA ISABELLE FERREIRA BARRETO PROMOTOR 2A ENTRANCIA CONCEICAO DAS ALAGOAS - COMARCA; CONCEICAO DAS ALAGOAS-PJ-02PJ 1.500,00 0,00 3.392,49 0,00 16.962,47 0,00 0,00 0,00 518,30 30/04/2023
582 678400 ANDRESSA LUIZA SILVA LOPES ASSESSOR PROMOTOR JUSTICA CARMO DO PARANAÍBA - COMARCA; CARMO DO PARANAIBA-PJ-02PJ 1.500,00 0,00 578,00 0,00 0,00 0,00 0,00 0,00 0,00 30/04/2023
583 426200 ANDRESSA MENDES CASAL OFICIAL DO MP BELO HORIZONTE - COMARCA; DIR ESTRUTURA E PROCESSOS ORGANIZACIONAIS 1.500,00 950,00 578,00 0,00 0,00 0,00 0,00 0,00 0,00 30/04/2023
584 390100 ANDRESSA RIBEIRO PUCCI OFICIAL DO MP UBERABA - COMARCA; UBERABA-PJ-14PJ 1.500,00 0,00 578,00 0,00 0,00 0,00 0,00 0,00 0,00 30/04/2023
585 1564200 ANDRESSA RODRIGUES DOS SANTOS ESTAGIARIO GUAXUPE; GUAXUPE-PJ-02PJ 0,00 0,00 0,00 240,00 0,00 0,00 0,00 0,00 0,00 30/04/2023
586 1537800 ANDRESSA VILELA FERREIRA ESTAGIARIO ITUIUTABA; ITUIUTABA-PJ-01PJ 0,00 0,00 0,00 240,00 0,00 0,00 0,00 0,00 0,00 30/04/2023
587 462500 ANDREZA APARECIDA COSTA E SILVA ANALISTA DO MP CONSELHEIRO LAFAIETE - COMARCA; CONSELHEIRO LAFAIETE-PJ-02PJ 1.500,00 1.900,00 578,00 0,00 0,00 0,00 0,00 0,00 0,00 30/04/2023
588 1406200 ANDREZA APARECIDA RABELO BELO ESTAGIARIO ITAGUARA; ITAGUARA-PJ-UNPJ 0,00 0,00 0,00 240,00 0,00 0,00 0,00 0,00 0,00 30/04/2023
589 1515300 ANDREZA CRISTINA DA SILVA SOUZA ESTAGIARIO BELO HORIZONTE; BH-19PJ SAUDE-SECRETARIA 047PJ 0,00 0,00 0,00 240,00 0,00 0,00 0,00 0,00 0,00 30/04/2023
590 677700 ANDREZA DE LOURDES FERREIRA DE PAIVA ASSESSOR PROMOTOR JUSTICA ABRE CAMPO - COMARCA; ABRE CAMPO-PJ-01PJ 1.500,00 0,00 578,00 0,00 0,00 0,00 0,00 0,00 0,00 30/04/2023
591 1483200 ANDREZA FARIA MOSELI ESTAGIARIO VARGINHA; VARGINHA-PJ-04PJ 0,00 0,00 0,00 228,00 0,00 0,00 0,00 0,00 0,00 30/04/2023
592 1447600 ANDREZZA CRISTINA DIAS DE ANDRADE ESTAGIARIO SANTOS DUMONT; SANTOS DUMONT-PJ-01PJ 0,00 0,00 0,00 240,00 0,00 0,00 0,00 0,00 0,00 30/04/2023
593 537800 ANDREZZA LUZIA DE OLIVEIRA ALVES ANALISTA DO MP PATOS DE MINAS - COMARCA; COORD REG PJ DEF EDU DIR CRI ADO AL PAR NOROE 1.500,00 0,00 578,00 0,00 0,00 0,00 0,00 0,00 0,00 30/04/2023
594 491600 ANE PATRICIA RIBEIRO DUARTE ANALISTA DO MP SETE LAGOAS - COMARCA; SETE LAGOAS-PJ-11PJ 1.500,00 0,00 578,00 0,00 0,00 0,00 0,00 0,00 0,00 30/04/2023
595 361900 ANELISA CARDOSO RIBEIRO PROMOT.ENTRANC.ESPECIAL CONTAGEM - COMARCA; CONTAGEM-PJ-05PJ 1.500,00 0,00 2.127,36 0,00 23.806,97 0,00 0,00 0,00 545,58 30/04/2023
596 465800 ANELISE GAMA ASSESSOR ADMINISTRATIVO III BELO HORIZONTE - COMARCA; BH-18PJ VIOLENCIA DOMESTICA-SECRETARIA 1.500,00 0,00 578,00 0,00 0,00 0,00 0,00 0,00 0,00 30/04/2023
597 535200 ANELIZE FERNANDA ALVES VILARINHO OFICIAL DO MP CAPINÓPOLIS - COMARCA; CAPINOPOLIS-PJ-UNPJ 1.500,00 950,00 578,00 0,00 0,00 0,00 0,00 0,00 0,00 30/04/2023
598 197200 ANGELA COELHO SALDANHA OFICIAL DO MP PARÁ DE MINAS - COMARCA; PARA DE MINAS-PJ-03PJ 1.500,00 0,00 578,00 0,00 0,00 0,00 0,00 0,00 0,00 30/04/2023
599 307400 ANGELA CRISTINA GONCALVES MUNIZ ANALISTA DO MP UBERLÂNDIA - COMARCA; UBERLANDIA-PJ-SEC FAMILIA 1.500,00 0,00 578,00 0,00 0,00 0,00 0,00 0,00 0,00 30/04/2023
600 157100 ANGELA FABERO PROMOT.ENTRANC.ESPECIAL BELO HORIZONTE - COMARCA; BH-23PJ INFRACIONAL-GAB 145PJ 1.500,00 0,00 3.571,05 0,00 32.064,00 0,00 0,00 0,00 734,80 30/04/2023
601 191800 ANGELA MARIA DE OLIVEIRA OFICIAL DO MP GUARANÉSIA - COMARCA; GUARANESIA-PJ-SECRETARIA 1.500,00 0,00 578,00 0,00 5.206,24 0,00 0,00 0,00 477,24 30/04/2023
602 497400 ANGELA MARIA HENRIQUES ANALISTA DO MP BELO HORIZONTE - COMARCA; COORD REG BACIAS RIO VELHAS E PARAOPEBA 1.500,00 0,00 578,00 0,00 0,00 0,00 0,00 0,00 0,00 30/04/2023
603 54600 ANGELA MARIA PEREIRA GRAVINA PROMOT.ENTRANC.ESPECIAL JUIZ DE FORA - COMARCA; JUIZ DE FORA-PJ-11PJ 1.500,00 0,00 1.519,54 0,00 32.064,01 0,00 0,00 0,00 734,80 30/04/2023
604 1482400 ANGELI COSTA MARTINS ESTAGIARIO ARAGUARI; ARAGUARI-PJ-04PJ 0,00 0,00 0,00 228,00 0,00 0,00 0,00 0,00 0,00 30/04/2023
605 260700 ANGELICA CRISTINA AZEVEDO MOREIRA MOUCO OFICIAL DO MP UBÁ - COMARCA; UBA-PJ-05PJ 1.500,00 0,00 578,00 0,00 4.916,52 0,00 0,00 0,00 450,68 30/04/2023
606 708300 ANGELICA NUNES VIEIRA DA SILVA ASSESSOR PROMOTOR JUSTICA IBIRITÉ - COMARCA; IBIRITE-PJ-02PJ 1.500,00 0,00 578,00 0,00 0,00 0,00 0,00 0,00 0,00 30/04/2023
607 334600 ANGELICA PANISSA DE FREITAS GALLATI OFICIAL DO MP GUAXUPÉ - COMARCA; GUAXUPE-PJ-02PJ 1.500,00 950,00 578,00 0,00 0,00 0,00 0,00 0,00 0,00 30/04/2023
608 660400 ANGELICA POLLYANA QUEIROZ DE MEDEIROS PROMOTOR 2A ENTRANCIA FRUTAL - COMARCA; FRUTAL-PJ-01PJ 1.500,00 0,00 886,40 0,00 0,00 0,00 0,00 0,00 0,00 30/04/2023
609 521100 ANGELICA SALES MOREIRA OFICIAL DO MP BELO HORIZONTE - COMARCA; BH-02PJ FAMILIA-SECRETARIA 1.500,00 0,00 578,00 0,00 0,00 0,00 0,00 0,00 0,00 30/04/2023
610 1477400 ANGELICA SILVA LEMOS SANTOS ESTAGIARIO DIVINOPOLIS; DIVINOPOLIS-PJ-13PJ 0,00 0,00 0,00 240,00 0,00 0,00 0,00 0,00 0,00 30/04/2023
611 466500 ANGELLO MARQUES AGRELLI ANALISTA DO MP MAR DE ESPANHA - COMARCA; MAR DE ESPANHA-PJ-UNPJ 1.500,00 0,00 578,00 0,00 0,00 0,00 0,00 0,00 0,00 30/04/2023
612 222700 ANGELO ALEXANDRE MARZANO PROMOT.ENTRANC.ESPECIAL BELO HORIZONTE - COMARCA; BH-PJ AUXILIAR-GAB 141PJ 1.500,00 0,00 2.912,45 0,00 28.984,44 0,00 0,00 0,00 664,23 30/04/2023
613 167100 ANGELO ANSANELLI JUNIOR PROMOTOR 2A ENTRANCIA FORMIGA - COMARCA; FORMIGA-PJ-02PJ 1.500,00 0,00 3.392,49 0,00 25.227,63 0,00 0,00 0,00 578,13 30/04/2023
614 1571500 ANGELO ANTONIO BORTOLINI DE BARCELOS ESTAGIARIO CARMO DO PARANAIBA; CARMO DO PARANAIBA-PJ-02PJ 0,00 0,00 0,00 240,00 0,00 0,00 0,00 0,00 0,00 30/04/2023
615 363300 ANGELO VERDOLIN HENRIQUES ANALISTA DO MP SETE LAGOAS - COMARCA; SETE LAGOAS-PJ-04PJ 1.500,00 0,00 578,00 0,00 5.977,03 0,00 0,00 0,00 547,89 30/04/2023
616 267600 ANIBAL TAMAOKI PROMOT.ENTRANC.ESPECIAL BELO HORIZONTE - COMARCA; BH-18PJ VIOLENCIA DOMESTICA-GAB 053PJ 1.500,00 0,00 1.063,68 0,00 5.951,74 0,00 0,00 0,00 545,58 30/04/2023
617 1430100 ANIELLE FERNANDA EDUARDO SILVA ESTAGIARIO ITABIRA; ITABIRA-PJ-01PJ 0,00 0,00 0,00 240,00 0,00 0,00 0,00 0,00 0,00 30/04/2023
618 250900 ANISIO APARECIDO SANTOS OFICIAL DO MP BETIM - COMARCA; BETIM - SECRETARIA DAS PJS CRIMINAIS 1.500,00 0,00 578,00 0,00 0,00 0,00 0,00 0,00 0,00 30/04/2023
619 1588300 ANNA BEATRIZ SILVEIRA CASSIANO ESTAGIARIO MONTE SANTO DE MINAS; MONTE SANTO DE MINAS-PJ-UNPJ 0,00 0,00 0,00 240,00 0,00 0,00 0,00 0,00 0,00 30/04/2023
620 1564800 ANNA CAROLINA BARBOSA METZKER ESTAGIARIO POCOS DE CALDAS; POCOS DE CALDAS-PJ-06PJ 0,00 0,00 0,00 240,00 0,00 0,00 0,00 0,00 0,00 30/04/2023
621 1478900 ANNA CAROLINA DE SENNA BARCANTE ESTAGIARIO FORMIGA; FORMIGA-PJ-04PJ 0,00 0,00 0,00 240,00 0,00 0,00 0,00 0,00 0,00 30/04/2023
622 698100 ANNA CAROLINA POLICARIO BERTOLIN ASSESSOR PROCURADOR JUSTICA BELO HORIZONTE - COMARCA; PROC. JUSTICA DIR. DIFUSOS E COLETIVOS-SEC 1.500,00 0,00 578,00 0,00 0,00 0,00 0,00 0,00 0,00 30/04/2023
623 1459600 ANNA CAROLYNNA SANTOS REZENDE DE ALMEIDA - 2:14596 ESTAGIARIO PONTE NOVA; PONTE NOVA-PJ-01PJ 0,00 0,00 0,00 240,00 0,00 0,00 0,00 0,00 0,00 30/04/2023
624 717900 ANNA CATHARINA MACHADO NORMANTON PROMOTOR SUBSTITUTO UBERABA - COMARCA; UBERABA-PJ-04PJ 1.500,00 0,00 3.222,87 0,00 5.371,45 0,00 0,00 0,00 492,38 30/04/2023
625 1593000 ANNA CLARA ANGELI VIEIRA ESTAGIARIO BELO HORIZONTE; BH-12PJ JUIZO CRIMINAL-GAB 100PJ 0,00 0,00 0,00 192,00 0,00 0,00 0,00 0,00 0,00 30/04/2023
626 253400 ANNA FLAVIA LEHMAN ANALISTA DO MP BELO HORIZONTE - COMARCA; SUPRIN DE PLANEJAMENTO E COORDENACAO 1.500,00 0,00 578,00 0,00 4.510,79 0,00 0,00 0,00 413,49 30/04/2023
627 1372100 ANNA LARA FERREIRA ESTAGIARIO PARA DE MINAS; PARA DE MINAS-PJ-05PJ 0,00 0,00 0,00 240,00 0,00 0,00 0,00 0,00 0,00 30/04/2023
628 1579400 ANNA LUISA BRAZ RODRIGUES ESTAGIARIO BELO HORIZONTE; BH-24PJ JUIZO REG BARREIRO-GAB 003PJ 0,00 0,00 0,00 96,00 0,00 0,00 0,00 0,00 0,00 30/04/2023
629 1395600 ANNA LUISA FERREIRA DE OLIVEIRA ESTAGIARIO CONTAGEM; CONTAGEM-PJ-25PJ 0,00 0,00 0,00 240,00 0,00 0,00 0,00 0,00 41,67 30/04/2023
630 688800 ANNA LUIZA MATTOS DUARTE ASSESSOR PROCURADOR JUSTICA BELO HORIZONTE - COMARCA; GABINETE DE PROCURADOR DE JUSTICA - SALA 311 1.500,00 0,00 578,00 0,00 0,00 0,00 0,00 0,00 0,00 30/04/2023
631 1547200 ANNA LUIZA ULHOA ANDRADE NEVES ESTAGIARIO BELO HORIZONTE; BH-10PJ EXECUÇÃO PENAL-GAB 078PJ 0,00 0,00 0,00 252,00 0,00 0,00 0,00 0,00 61,67 30/04/2023
632 1440200 ANNA MARINA DIAS QUEIROZ PEREIRA ESTAGIARIO MONTES CLAROS; MONTES CLAROS-PJ-01PJ 0,00 0,00 0,00 228,00 0,00 0,00 0,00 0,00 0,00 30/04/2023
633 1446900 ANNA RAFAELA LESSA DA SILVA ESTAGIARIO ITUIUTABA; ITUIUTABA-PJ-03PJ 0,00 0,00 0,00 132,00 0,00 0,00 0,00 0,00 0,00 30/04/2023
634 447600 ANNGELUCE ALCANTARA DE CAMPOS OFICIAL DO MP DIVINÓPOLIS - COMARCA; DIVINOPOLIS-PJ-07PJ 1.500,00 0,00 578,00 0,00 0,00 0,00 0,00 0,00 0,00 30/04/2023
635 1506800 ANOA DIAS QUARESMA CAMPOS ESTAGIARIO JACINTO; JACINTO-PJ-UNPJ 0,00 0,00 0,00 240,00 0,00 0,00 0,00 0,00 0,00 30/04/2023
636 119600 ANSELMO BORGES PARREIRAS OFICIAL DO MP BONFIM - COMARCA; BONFIM-PJ-UNPJ 1.500,00 0,00 578,00 0,00 0,00 0,00 0,00 0,00 0,00 30/04/2023
637 630300 ANTONIA GOMES RAMALHO OFICIAL DO MP NOVO CRUZEIRO - COMARCA; NOVO CRUZEIRO-PJ-UNPJ 1.500,00 1.900,00 578,00 0,00 0,00 0,00 0,00 0,00 0,00 30/04/2023
638 73100 ANTONIO AURELIO SANTOS PROCURADOR DE JUSTICA BELO HORIZONTE - COMARCA; CAO-CONFLITOS AGRARIOS 1.500,00 0,00 3.039,08 0,00 24.048,01 0,00 0,00 0,00 734,80 30/04/2023
639 157300 ANTONIO BORGES DA SILVA PROMOTOR 2A ENTRANCIA SÃO LOURENÇO - COMARCA; SAO LOURENCO-PJ-02PJ 1.500,00 0,00 3.392,49 0,00 24.048,01 0,00 0,00 0,00 734,80 30/04/2023
640 1493700 ANTONIO CARLOS DOMINGUES JUNIOR ESTAGIARIO ESTRELA DO SUL; ESTRELA DO SUL-PJ-UNPJ 0,00 0,00 0,00 240,00 0,00 0,00 0,00 0,00 0,00 30/04/2023
641 1603800 ANTONIO CARLOS FERREIRA DOS SANTOS ESTAGIARIO ARAGUARI; ARAGUARI-PJ-02PJ 0,00 0,00 0,00 24,00 0,00 0,00 0,00 0,00 0,00 30/04/2023
642 401600 ANTONIO CARLOS GUEDES AROUCA ANALISTA DO MP BELO HORIZONTE - COMARCA; ASSESSORIA JURIDICO-ADMINISTRATIVA 1.500,00 0,00 578,00 0,00 0,00 0,00 0,00 0,00 0,00 30/04/2023
643 1298900 ANTONIO DE OLIVEIRA SOUZA JUNIOR ESTAGIARIO UBERLANDIA; UBERLANDIA-PJ-24PJ 0,00 0,00 0,00 240,00 0,00 0,00 0,00 0,00 0,00 30/04/2023
644 76600 ANTONIO DE PADOVA MARCHI JUNIOR PROCURADOR DE JUSTICA BELO HORIZONTE - COMARCA; GABINETE DE PROCURADOR DE JUSTIÇA - SALA 1006 1.500,00 0,00 3.393,64 0,00 32.064,01 0,00 0,00 0,00 734,80 30/04/2023
645 101900 ANTONIO DIAS MAIA PROCURADOR DE JUSTICA BELO HORIZONTE - COMARCA; GABINETE DE PROCURADOR DE JUSTIÇA - SALA 808 1.500,00 0,00 3.039,08 0,00 17.635,21 0,00 0,00 0,00 734,80 30/04/2023
646 84600 ANTONIO DIOGO DA ROCHA PROMOTOR 1A ENTRANCIA BOTELHOS - COMARCA; BOTELHOS-PJ-UNPJ 1.500,00 0,00 3.039,08 0,00 32.064,01 0,00 0,00 0,00 734,80 30/04/2023
647 333900 ANTONIO GONCALVES DE SOUZA FILHO OFICIAL DO MP BELO HORIZONTE - COMARCA; DIRETORIA DE CONTABILIDADE 1.500,00 0,00 578,00 0,00 0,00 0,00 0,00 0,00 0,00 30/04/2023
648 340600 ANTONIO HENRIQUE FRANCO LOPES PROMOT.ENTRANC.ESPECIAL BELO HORIZONTE - COMARCA; ASSESSORIA ESPECIAL-GABINETE DOS ASSESSORES 1.500,00 0,00 2.026,05 0,00 20.235,92 0,00 0,00 0,00 545,58 30/04/2023
649 67600 ANTONIO JOAQUIM SCHELLENBERGER FERNANDES PROCURADOR DE JUSTICA BELO HORIZONTE - COMARCA; PROC JUSTICA DIR DIFUSOS E COLETIVOS-GAB004 1.500,00 0,00 3.759,00 0,00 16.032,00 0,00 0,00 0,00 734,80 30/04/2023
650 77300 ANTONIO JOSE CHINELATO PROCURADOR DE JUSTICA BELO HORIZONTE - COMARCA; GABINETE DE PROCURADOR DE JUSTIÇA - SALA 1008 1.500,00 0,00 0,00 0,00 8.016,00 0,00 0,00 0,00 734,80 30/04/2023
651 211800 ANTONIO JOSE DE OLIVEIRA PROMOTOR 2A ENTRANCIA PASSOS - COMARCA; PASSOS-PJ-06PJ 1.500,00 0,00 3.392,49 0,00 26.533,12 0,00 0,00 0,00 608,05 30/04/2023
652 1593200 ANTONIO LEONARDO AMORIM DA COSTA CAMPOS ESTAGIARIO JUIZ DE FORA; GAECO REGIONAL DA ZONA DA MATA-JUIZ DE FORA 0,00 0,00 0,00 192,00 0,00 0,00 0,00 0,00 0,00 30/04/2023
653 176100 ANTONIO MARCELO CAMPOS CAMPANELLA OFICIAL DO MP BELO HORIZONTE - COMARCA; COORD DE GABINETE DO PGJ 1.500,00 0,00 578,00 0,00 5.123,17 0,00 0,00 0,00 469,62 30/04/2023
654 1438000 ANTONIO MARCIO OLIVEIRA SOUZA ESTAGIARIO BELO HORIZONTE; GABINETE DE PROCURADOR DE JUSTIÇA - SALA 607 0,00 0,00 0,00 84,00 1.110,00 0,00 0,00 0,00 0,00 30/04/2023
655 321001 ANTONIO OLINTO VIEIRA MACHADO ANALISTA DO MP BELO HORIZONTE - COMARCA; CENTRAL DE APOIO TECN-SETOR DE MEIO AMBIENTE 1.500,00 0,00 578,00 0,00 6.647,77 0,00 0,00 0,00 2.481,46 30/04/2023
656 356200 ANTONIO PAULA DA SILVA OFICIAL DO MP JUIZ DE FORA - COMARCA; JUIZ DE FORA-PJ-20PJ 1.500,00 0,00 578,00 0,00 0,00 0,00 0,00 0,00 0,00 30/04/2023
657 63400 ANTONIO PEDRO DA SILVA MELO PROMOT.ENTRANC.ESPECIAL SÃO JOÃO DEL REI - COMARCA; SAO JOAO DEL REI-PJ-01PJ 1.500,00 0,00 3.039,08 0,00 32.064,01 0,00 0,00 0,00 734,80 30/04/2023
658 119900 ANTONIO RODRIGUES DE PINHO OFICIAL DO MP GUANHÃES - COMARCA; GUANHAES-PJ-01PJ 1.500,00 0,00 578,00 0,00 5.913,70 0,00 0,00 0,00 542,09 30/04/2023
659 373300 ANTONIO SERGIO ANANIAS OFICIAL DO MP SÃO JOÃO NEPOMUCENO - COMARCA; SAO JOAO NEPOMUCENO-PJ-01PJ 1.500,00 0,00 578,00 0,00 0,00 0,00 0,00 0,00 0,00 30/04/2023
660 93500 ANTONIO SERGIO ROCHA DE PAULA PROCURADOR DE JUSTICA BELO HORIZONTE - COMARCA; PROC JUSTICA DIR DIFUSOS E COLETIVOS-GAB003 1.500,00 0,00 3.759,00 0,00 24.048,01 0,00 0,00 0,00 734,80 30/04/2023
661 68700 ANTONIO SERGIO TONET PROCURADOR DE JUSTICA BELO HORIZONTE - COMARCA; GABINETE DE PROCURADOR DE JUSTIÇA - SALA 902 1.500,00 0,00 1.519,54 0,00 32.064,01 0,00 0,00 0,00 734,80 30/04/2023
662 608100 ANTONIO SIDINEY VIEIRA LEMOS ANALISTA DO MP PIRAPORA - COMARCA; PIRAPORA-PJ-01PJ 1.500,00 950,00 578,00 0,00 0,00 0,00 0,00 0,00 0,00 30/04/2023
663 374700 ANTONIO SILVA NETO OFICIAL DO MP BELO HORIZONTE - COMARCA; GAECO - SECRETARIA 1.500,00 950,00 578,00 0,00 0,00 0,00 0,00 0,00 0,00 30/04/2023
664 636700 ANTONIUS VITORIANO FERNANDES OFICIAL DO MP BELO HORIZONTE - COMARCA; ASSESSORIA JURIDICA DO PROCON-MG 1.500,00 0,00 578,00 0,00 0,00 0,00 0,00 0,00 0,00 30/04/2023
665 413200 ANY PEREIRA SILVA ANALISTA DO MP TRÊS PONTAS - COMARCA; TRES PONTAS-PJ-01PJ 1.500,00 0,00 578,00 0,00 3.371,33 0,00 0,00 0,00 309,04 30/04/2023
666 151401 APARECIDA DE FATIMA MENDES DE ALMEIDA ASSESSOR ADMINISTRATIVO II JUIZ DE FORA - COMARCA; JUIZ DE FORA-PJ-SECRETARIA 1.500,00 0,00 578,00 0,00 0,00 0,00 0,00 0,00 0,00 30/04/2023
667 329300 APARECIDA MARIA MELO DE ASSIS OFICIAL DO MP BELO HORIZONTE - COMARCA; BH-18PJ DIREITOS HUMANOS-SECRETARIA 1.500,00 0,00 578,00 0,00 0,00 0,00 0,00 0,00 0,00 30/04/2023
668 653000 APARECIDA ROSA DE LIMA ASSESSOR ADMINISTRATIVO III BELO HORIZONTE - COMARCA; SECRETARIA PROCESSOS DISCIPES ADMINISTRATIVOS 1.500,00 0,00 578,00 0,00 0,00 0,00 0,00 0,00 0,00 30/04/2023
669 354500 APARECIDA VIEIRA DE CARVALHO OFICIAL DO MP BELO HORIZONTE - COMARCA; DIVISÃO DE EDUCAÇÃO PARA O CONSUMO 1.500,00 0,00 578,00 0,00 0,00 0,00 0,00 0,00 0,00 30/04/2023
670 551000 ARACELES BICALHO FELIX ANALISTA DO MP MANHUAÇU - COMARCA; MANHUACU-PJ-SECRETARIA 1.500,00 1.900,00 578,00 0,00 0,00 0,00 0,00 0,00 0,00 30/04/2023
671 286200 ARACELI MEDRADO DOS SANTOS LIMA OFICIAL DO MP PARACATU - COMARCA; PARACATU-PJ-03PJ 1.500,00 950,00 578,00 0,00 0,00 0,00 0,00 0,00 0,00 30/04/2023
672 1579600 ARACELLI OLIVEIRA SILVEIRA RIBEIRO ESTAGIARIO UBERLANDIA; UBERLANDIA-PJ-06PJ 0,00 0,00 0,00 240,00 0,00 0,00 0,00 0,00 0,00 30/04/2023
673 112200 ARAQUEM AUGUSTO DE MATOS AGENTE DO MP BELO HORIZONTE - COMARCA; BH-23PJ CIVEL-SEC EXP CIVEIS 1.500,00 0,00 578,00 0,00 0,00 0,00 0,00 0,00 0,00 30/04/2023
674 280600 ARDUINO FRATTEZI ANALISTA DO MP BELO HORIZONTE - COMARCA; CENTRAL DE APOIO TECNICO-SETOR CONTABIL 1.500,00 0,00 578,00 0,00 5.998,28 0,00 0,00 0,00 549,84 30/04/2023
675 67700 ARESLAN EUSTAQUIO MARTINS PROMOTOR 1A ENTRANCIA CARMO DA MATA - COMARCA; CARMO DA MATA-PJ-UNPJ 1.500,00 0,00 3.222,87 0,00 32.064,01 0,00 0,00 0,00 734,80 30/04/2023
676 1481300 ARIANE DA SILVA MENDES - 2:1481300 ESTAGIARIO ABRE CAMPO; ABRE CAMPO-PJ-02PJ 0,00 0,00 0,00 240,00 0,00 0,00 0,00 0,00 0,00 30/04/2023
677 520201 ARIANE DE FATIMA CARVALHO ALMEIDA RODRIGUES ANALISTA DO MP VESPASIANO - COMARCA; VESPASIANO-PJ-SECRETARIA 1.500,00 1.425,00 578,00 0,00 0,00 0,00 0,00 0,00 0,00 30/04/2023
678 1547100 ARIANE MAGALHAES DE PAULA GALDINO ESTAGIARIO CORONEL FABRICIANO; CORONEL FABRICIANO-PJ-04PJ 0,00 0,00 0,00 240,00 0,00 0,00 0,00 0,00 0,00 30/04/2023
679 1577300 ARIEL DE MELO LIMA MARCELINO ESTAGIARIO SANTA LUZIA; SANTA LUZIA-PJ-04PJ 0,00 0,00 0,00 228,00 0,00 0,00 0,00 0,00 0,00 30/04/2023
680 537600 ARIELA FREIRE MONTIJO ANALISTA DO MP ARCOS - COMARCA; ARCOS-PJ-01PJ 1.500,00 0,00 578,00 0,00 0,00 0,00 0,00 0,00 0,00 30/04/2023
681 182000 ARILSON ALEXANDRE MARTINS MAGALHAES OFICIAL DO MP JOÃO MONLEVADE - COMARCA; JOAO MONLEVADE-PJ-01PJ 1.500,00 3.800,00 578,00 0,00 4.928,08 0,00 0,00 0,00 451,74 30/04/2023
682 511000 ARISLANE CAROLINA DA SILVA ANALISTA DO MP MONTE CARMELO - COMARCA; MONTE CARMELO-PJ-02PJ 1.500,00 1.330,00 578,00 0,00 0,00 0,00 0,00 0,00 0,00 30/04/2023
683 212000 ARLEN DE OLIVEIRA FERNANDES PROMOT.ENTRANC.ESPECIAL BELO HORIZONTE - COMARCA; BH-12PJ JUIZO CRIMINAL-GAB 098PJ 1.500,00 0,00 3.450,66 0,00 18.588,78 0,00 0,00 0,00 608,56 30/04/2023
684 170000 ARLEY BRITES DA SILVA ASSESSOR ADMINISTRATIVO II BELO HORIZONTE - COMARCA; BH-14PJ DEFESA CONSUMIDOR-SECRETARIA 1.500,00 0,00 578,00 0,00 0,00 0,00 0,00 0,00 0,00 30/04/2023
685 120400 ARLINDO CASSIO DA CRUZ OFICIAL DO MP SÃO GONÇALO DO SAPUCAÍ - COMARCA; SAO GONCALO DO SAPUCAI-PJ-01PJ 1.500,00 0,00 578,00 0,00 5.206,23 0,00 0,00 0,00 477,24 30/04/2023
686 243700 ARLINDO MARCIO LACERDA OFICIAL DO MP CONTAGEM - COMARCA; CONTAGEM-PJ-SECRETARIA 1.500,00 0,00 578,00 0,00 0,00 0,00 1.771,66 0,00 0,00 30/04/2023
687 111900 ARNALDO ALVES SOARES PROCURADOR DE JUSTICA BELO HORIZONTE - COMARCA; GABINETE DE PROCURADOR DE JUSTIÇA - SALA 903 1.500,00 0,00 3.759,00 0,00 20.825,46 0,00 0,00 0,00 636,33 30/04/2023
688 392100 ARNALDO DE ANDRADE OFICIAL DO MP DIVINÓPOLIS - COMARCA; DIVINOPOLIS-PJ-02PJ 1.500,00 0,00 578,00 0,00 0,00 0,00 1.771,66 0,00 0,00 30/04/2023
689 75900 ARNALDO GOMES RIBEIRO PROCURADOR DE JUSTICA BELO HORIZONTE - COMARCA; GABINETE DE PROCURADOR DE JUSTIÇA - SALA 602 1.500,00 0,00 3.545,59 0,00 32.064,01 0,00 0,00 0,00 734,80 30/04/2023
690 642400 ARTANE INARDE DE SIQUEIRA DAMASCENO ANALISTA DO MP BELO HORIZONTE - COMARCA; SECRETARIA DE ASSUNTOS INTERNACIONAIS 1.500,00 0,00 578,00 0,00 0,00 0,00 0,00 0,00 0,00 30/04/2023
691 1605400 ARTHEMIS GEMAFESI ARAUJO FERREIRA ESTAGIARIO VICOSA; VICOSA-PJ-01PJ 0,00 0,00 0,00 36,00 0,00 0,00 0,00 0,00 0,00 30/04/2023
692 733000 ARTHUR BRANDAO ALBUQUERQUE ASSESSOR ADMINISTRATIVO II BELO HORIZONTE - COMARCA; DIRETORIA DE PAGAMENTO DE PESSOAL-DPAG 1.500,00 0,00 578,00 0,00 0,00 0,00 0,00 0,00 0,00 30/04/2023
693 1261800 ARTHUR DE LIMA SOSSAI ESTAGIARIO LAVRAS; COORD REG DO MA DA BACIA DO RIO GRANDE 0,00 0,00 0,00 12,00 375,00 0,00 0,00 0,00 0,00 30/04/2023
694 1433800 ARTHUR OLIVEIRA CARABETTI DINIZ ESTAGIARIO BELO HORIZONTE; BH-09PJ AUDITORIA MILITAR-GAB 073PJ 0,00 0,00 0,00 204,00 0,00 0,00 0,00 0,00 0,00 30/04/2023
695 1433500 ARTHUR SALIM DE PAULA LEITE ESTAGIARIO BELO HORIZONTE; BH-06PJ JUIZO CIVEL-GAB 049PJ 0,00 0,00 0,00 204,00 0,00 0,00 0,00 0,00 0,00 30/04/2023
696 1525800 ARTUR FERNANDES DE LIMA JUNIOR ESTAGIARIO SANTA RITA DO SAPUCAI; SANTA RITA DO SAPUCAI-PJ-01PJ 0,00 0,00 0,00 240,00 0,00 0,00 0,00 0,00 0,00 30/04/2023
697 712100 ARTUR FONTE BOA TEOFILO ASSESSOR ADMINISTRATIVO I BELO HORIZONTE - COMARCA; DIRET DE ESTAGIOS E CONVENIOS ACADEMICOS 1.500,00 0,00 578,00 0,00 0,00 0,00 0,00 0,00 0,00 30/04/2023
698 221400 ARTUR FORSTER GIOVANNINI PROMOTOR 2A ENTRANCIA TRÊS PONTAS - COMARCA; TRES PONTAS-PJ-01PJ 1.500,00 0,00 3.392,49 0,00 23.922,13 0,00 0,00 0,00 548,22 30/04/2023
699 1599400 ARTUR RESENDE LARA CHAVES ESTAGIARIO RESENDE COSTA; RESENDE COSTA-PJ-UNPJ 0,00 0,00 0,00 108,00 0,00 0,00 0,00 0,00 0,00 30/04/2023
700 313500 ARY PEDROSA BITTENCOURT PROMOT.ENTRANC.ESPECIAL SANTA LUZIA - COMARCA; SANTA LUZIA-PJ-05PJ 1.500,00 0,00 3.571,05 0,00 17.855,23 0,00 0,00 0,00 545,58 30/04/2023
701 1591500 ARYELLE GONCALVES RODRIGUES SILVA ESTAGIARIO CLAUDIO; CLAUDIO-PJ-UNPJ 0,00 0,00 0,00 228,00 0,00 0,00 0,00 0,00 0,00 30/04/2023
702 315700 ATHAIDE FRANCISCO PERES OLIVEIRA PROMOTOR 2A ENTRANCIA UNAÍ - COMARCA; UNAI-PJ-01PJ 1.500,00 0,00 3.392,49 0,00 0,00 0,00 0,00 0,00 0,00 30/04/2023
703 1304600 AUGUSTO JOSE SAD PEREIRA GOMES ESTAGIARIO CATAGUASES; CATAGUASES-PJ-02PJ 0,00 0,00 0,00 216,00 1.110,00 0,00 0,00 0,00 0,00 30/04/2023
704 702900 AUGUSTO PENA FIGUEIREDO CAPITAO BELO HORIZONTE - COMARCA; NUCLEO DE OPERACOES DE SEGURANCA DE PESSOAL 1.500,00 0,00 0,00 0,00 0,00 0,00 0,00 0,00 0,00 30/04/2023
705 666600 AUGUSTO REIS BALLARDIM PROMOTOR 1A ENTRANCIA ITAMARANDIBA - COMARCA; ITAMARANDIBA-PJ-UNPJ 1.500,00 0,00 1.671,50 0,00 16.114,35 0,00 0,00 0,00 492,38 30/04/2023
706 302100 AUGUSTO ROUSSEAU DE CASTRO ANALISTA DO MP CATAGUASES - COMARCA; CATAGUASES-PJ-02PJ 1.500,00 0,00 578,00 0,00 5.998,28 0,00 0,00 0,00 549,84 30/04/2023
707 1534500 AUGUSTO SANAVIA ROCHA ESTAGIARIO BELO HORIZONTE; GABINETE DE PROCURADOR DE JUSTIÇA - SALA 601 0,00 0,00 0,00 240,00 0,00 0,00 0,00 0,00 0,00 30/04/2023
708 540200 AUREA AVELAR BITTENCOURT OFICIAL DO MP BELO HORIZONTE - COMARCA; GRUPO ESP PROM JUST DEF PROB ADM PAT PUB 1.500,00 0,00 578,00 0,00 300,27 0,00 0,00 0,00 778,19 30/04/2023
709 633501 AUREA GONTIJO BIRCHAL ASSESSOR DE GABINETE I BELO HORIZONTE - COMARCA; PROCURADOR-GERAL DE JUSTIÇA 1.500,00 0,00 578,00 0,00 5.801,85 0,00 0,00 0,00 531,84 30/04/2023
710 1286700 AUREA MARIA MILWARD PORTUGAL FLAMINI ESTAGIARIO INHAPIM; INHAPIM-PJ-02PJ 0,00 0,00 0,00 0,00 2.220,00 0,00 0,00 0,00 0,00 30/04/2023
711 734400 AUREA MARIA MILWARD PORTUGAL FLAMINI SANTOS ASSESSOR PROMOTOR JUSTICA INHAPIM - COMARCA; INHAPIM-PJ-02PJ 1.568,18 0,00 1.156,00 0,00 0,00 0,00 0,00 0,00 293,70 30/04/2023
712 183200 AURELIANO MAGELA DE REZENDE OFICIAL DO MP BELO HORIZONTE - COMARCA; COORD DE GABINETE DO PGJ 1.500,00 0,00 578,00 0,00 5.585,16 0,00 0,00 0,00 511,97 30/04/2023
713 106500 AVAIDE MARCOS MARIANO PROMOT.ENTRANC.ESPECIAL UBERLÂNDIA - COMARCA; UBERLANDIA-PJ-13PJ 1.500,00 0,00 1.519,54 0,00 24.048,01 0,00 0,00 0,00 734,80 30/04/2023
714 629400 AYESKA DA COSTA VAL MOURA DABIEN OFICIAL DO MP BELO HORIZONTE - COMARCA; BH-09PJ AUDITORIA MILITAR-SECRETARIA 1.500,00 0,00 578,00 0,00 0,00 0,00 0,00 0,00 0,00 30/04/2023
715 1475000 AYLA FERREIRA LIMA ESTAGIARIO CASSIA; CASSIA-PJ-01PJ 0,00 0,00 0,00 144,00 0,00 0,00 0,00 0,00 0,00 30/04/2023
716 1450800 AYLANNA SOARES ARAUJO ESTAGIARIO BELO HORIZONTE; BH-25PJ DEFESA DA EDUCACAO-SECRETARIA 0,00 0,00 0,00 228,00 0,00 0,00 0,00 0,00 0,00 30/04/2023
717 151800 AYLOR LUIZ MEIRELLES JUNIOR PROMOTOR 2A ENTRANCIA SÃO DOMINGOS DO PRATA - COMARCA; SAO DOMINGOS DO PRATA-PJ-UNPJ 1.500,00 0,00 2.912,45 0,00 31.843,91 0,00 0,00 0,00 729,76 30/04/2023
718 707400 AYMEE JOHANSSENN TYNEE CORREIA ALVES ASSESSOR PROMOTOR JUSTICA NOVA LIMA - COMARCA; NOVA LIMA-PJ-01PJ 1.500,00 0,00 578,00 0,00 0,00 0,00 0,00 0,00 0,00 30/04/2023
719 1323400 BARBARA ARANTES NASCIMENTO SOUZA ESTAGIARIO CRUZILIA; CRUZILIA-PJ-UNPJ 0,00 0,00 0,00 240,00 0,00 0,00 0,00 0,00 0,00 30/04/2023
720 701600 BARBARA CHAVES OLIVEIRA ASSESSOR PROCURADOR JUSTICA BELO HORIZONTE - COMARCA; PROC. JUSTICA DIR. DIFUSOS E COLETIVOS-SEC 1.500,00 0,00 578,00 0,00 0,00 0,00 0,00 0,00 0,00 30/04/2023
721 1579300 BARBARA COLEHO BRANT GOMES ESTAGIARIO BELO HORIZONTE; BH-12PJ JUIZO CRIMINAL-GAB 103PJ 0,00 0,00 0,00 240,00 0,00 0,00 0,00 0,00 0,00 30/04/2023
722 1481800 BARBARA COTTA E SILVA ESTAGIARIO BELO HORIZONTE; GABINETE DE PROCURADOR DE JUSTIÇA - SALA 914 0,00 0,00 0,00 228,00 0,00 0,00 0,00 0,00 0,00 30/04/2023
723 691900 BARBARA COUTINHO REIS ASSESSOR PROCURADOR JUSTICA BELO HORIZONTE - COMARCA; GABINETE DE PROCURADOR DE JUSTIÇA - SALA 910 1.500,00 0,00 578,00 0,00 0,00 0,00 0,00 0,00 0,00 30/04/2023
724 1538200 BARBARA CRISTINA MELO BATISTA ESTAGIARIO BELO HORIZONTE; BH-10PJ EXECUÇÃO PENAL-GAB 080PJ 0,00 0,00 0,00 228,00 0,00 0,00 0,00 0,00 0,00 30/04/2023
725 692200 BARBARA CRISTINA MENDES BANDEIRA DE MELO DUTRA ASSESSOR PROCURADOR JUSTICA BELO HORIZONTE - COMARCA; GABINETE DE PROCURADOR DE JUSTIÇA - SALA 1009 1.500,00 0,00 578,00 0,00 0,00 0,00 0,00 0,00 0,00 30/04/2023
726 1415700 BARBARA CRISTINA SOUZA E SOUSA ESTAGIARIO BELO HORIZONTE; BH-23PJ INFRACIONAL-GAB 054PJ 0,00 0,00 0,00 240,00 0,00 0,00 0,00 0,00 0,00 30/04/2023
727 723400 BARBARA CRISTINA TAVARES CARNEIRO ASSESSOR PROCURADOR JUSTICA BELO HORIZONTE - COMARCA; GABINETE DE PROCURADOR DE JUSTIÇA - SALA 502 1.500,00 0,00 578,00 0,00 0,00 0,00 0,00 0,00 0,00 30/04/2023
728 1306500 BARBARA EVELYN LIMA CHAVES ESTAGIARIO BUENOPOLIS; BUENOPOLIS-PJ-UNPJ 0,00 0,00 0,00 192,00 0,00 0,00 0,00 0,00 0,00 30/04/2023
729 1473700 BARBARA FERREIRA DOS SANTOS ESTAGIARIO PAINS; ALFENAS-PJ-02PJ 0,00 0,00 0,00 240,00 0,00 0,00 0,00 0,00 0,00 30/04/2023
730 314700 BARBARA FRANCINE PRETTE NUNES PROMOTOR 1A ENTRANCIA PERDIZES - COMARCA; PERDIZES-PJ-UNPJ 1.500,00 0,00 3.222,87 0,00 16.114,35 0,00 0,00 0,00 492,38 30/04/2023
731 1539800 BARBARA GEOVANA SILVA SANTOS ESTAGIARIO BELO HORIZONTE; CAO-FUNDACOES 0,00 0,00 0,00 240,00 0,00 0,00 0,00 0,00 0,00 30/04/2023
732 1410100 BARBARA HELENA FROIS GUIMARAES GIL ESTAGIARIO BELO HORIZONTE; GABINETE DE PROCURADOR DE JUSTIÇA - SALA 814
733 1368200 BARBARA ISABELY LIMA OLIVEIRA ESTAGIARIO BELO HORIZONTE; BH-18PJ DIREITOS HUMANOS-GAB 183PJ 0,00 0,00 0,00 240,00 0,00 0,00 0,00 0,00 0,00 30/04/2023
734 652800 BARBARA JULIANNE MOREIRA CASTRO ASSESSOR PROCURADOR JUSTICA BELO HORIZONTE - COMARCA; ASSESS TECNICO-JUR JUNTO AS PROC. DE JUST 1.500,00 0,00 578,00 0,00 0,00 0,00 0,00 0,00 0,00 30/04/2023
735 1546500 BARBARA KATLEN SOARES FERNANDES ESTAGIARIO OURO BRANCO; OURO BRANCO-PJ-UNPJ 0,00 0,00 0,00 216,00 0,00 0,00 0,00 0,00 0,00 30/04/2023
736 1450300 BARBARA LARISSA DAS GRACAS SOUZA ESTAGIARIO BELO HORIZONTE; BH-24PJ JUIZO REG BARREIRO-GAB 003PJ 0,00 0,00 0,00 216,00 0,00 0,00 0,00 0,00 0,00 30/04/2023
737 1457700 BARBARA LEDRES SILVA ESTAGIARIO MEDINA; MEDINA-PJ-UNPJ 0,00 0,00 0,00 240,00 0,00 0,00 0,00 0,00 0,00 30/04/2023
738 707700 BARBARA LOUISE PUFF DE OLIVEIRA ASSESSOR PROMOTOR JUSTICA RIBEIRÃO DAS NEVES - COMARCA; RIBEIRAO DAS NEVES-PJ-02PJ 1.500,00 0,00 578,00 0,00 0,00 0,00 0,00 0,00 0,00 30/04/2023
739 1521500 BARBARA LOURENCO LIMA ESTAGIARIO JANAUBA; JANAUBA-PJ-02PJ 0,00 0,00 0,00 240,00 0,00 0,00 0,00 0,00 0,00 30/04/2023
740 1562500 BARBARA MARINA ALVIM DE CASSIO ESTAGIARIO SAO JOAO DEL REI; SAO JOAO DEL REI-PJ-06PJ 0,00 0,00 0,00 240,00 0,00 0,00 0,00 0,00 0,00 30/04/2023
741 666500 BARBARA MARTINS DE SOUZA PROMOTOR 2A ENTRANCIA PONTE NOVA - COMARCA; PONTE NOVA-PJ-02PJ 1.500,00 0,00 3.201,40 0,00 16.962,48 0,00 0,00 0,00 518,30 30/04/2023
742 1534100 BARBARA MOLINARI VEIGA BARBOSA ESTAGIARIO PONTE NOVA; PONTE NOVA-PJ-02PJ 0,00 0,00 0,00 168,00 0,00 0,00 0,00 0,00 0,00 30/04/2023
743 1536000 BARBARA PRADO KRETLI OLIVEIRA ESTAGIARIO GOVERNADOR VALADARES; GOVERNADOR VALADARES-PJ-16PJ 0,00 0,00 0,00 228,00 0,00 0,00 0,00 0,00 0,00 30/04/2023
744 663600 BARBARA REGINA PEREIRA DE PINHO MAGALHAES ASSESSOR PROMOTOR JUSTICA BELO HORIZONTE - COMARCA; CAO-DH CONT EXT ATIV POLIC E AP COMUNIT 1.500,00 0,00 578,00 0,00 0,00 0,00 0,00 0,00 0,00 30/04/2023
745 685500 BARBARA RODRIGUES DE PAULA PROMOTOR SUBSTITUTO GOVERNADOR VALADARES - COMARCA; GOVERNADOR VALADARES-PJ-10PJ 1.500,00 0,00 835,75 0,00 16.114,35 0,00 0,00 0,00 492,38 30/04/2023
746 692400 BARBARA SOUZA OLIVEIRA ASSESSOR PROMOTOR JUSTICA DIVINO - COMARCA; DIVINO-PJ-UNPJ 1.500,00 0,00 578,00 0,00 0,00 0,00 0,00 0,00 0,00 30/04/2023
747 546500 BARBARA ZACARONI GOULART OFICIAL DO MP BETIM - COMARCA; BETIM-PJ-08PJ 1.500,00 0,00 578,00 0,00 0,00 0,00 0,00 0,00 0,00 30/04/2023
748 1479200 BARBARACAMILA DE SOUZA LARA ESTAGIARIO JOAO PINHEIRO; JOAO PINHEIRO-PJ-02PJ
749 1542800 BARBARAH EMANUELLY SOUZA SANTOS ESTAGIARIO BARBACENA; BARBACENA-PJ-08PJ 0,00 0,00 0,00 240,00 0,00 0,00 0,00 0,00 0,00 30/04/2023
750 316500 BEATRIZ ABILVIA DA SILVA ANALISTA DO MP GOVERNADOR VALADARES - COMARCA; GOVERNADOR VALADARES-PJ-07PJ 1.500,00 0,00 578,00 0,00 5.319,36 0,00 0,00 0,00 487,61 30/04/2023
751 1498900 BEATRIZ APARECIDA DIAS BATISTA ESTAGIARIO MANHUMIRIM; MANHUMIRIM-PJ-02PJ 0,00 0,00 0,00 204,00 0,00 0,00 0,00 0,00 0,00 30/04/2023
752 311800 BEATRIZ APARECIDA SOARES GANEM OFICIAL DO MP ITAMBACURI - COMARCA; ITAMBACURI-PJ-02PJ 1.500,00 0,00 578,00 0,00 760,98 0,00 0,00 0,00 69,76 30/04/2023
753 266800 BEATRIZ AUGUSTA VILACA GOMES DE HUBER OFICIAL DO MP BELO HORIZONTE - COMARCA; BH-05PJ-JUÍZO SUCESSÕES-SEC 1.500,00 0,00 578,00 0,00 0,00 0,00 0,00 0,00 0,00 30/04/2023
754 235200 BEATRIZ BOTELHO BATISTA OFICIAL DO MP MATEUS LEME - COMARCA; MATEUS LEME-PJ-02PJ 1.500,00 0,00 578,00 0,00 0,00 0,00 0,00 0,00 0,00 30/04/2023
755 1480500 BEATRIZ CAMPOS VIEIRA FEIO ESTAGIARIO BELO HORIZONTE; GABINETE DE PROCURADOR DE JUSTICA - SALA 313 0,00 0,00 0,00 144,00 0,00 0,00 0,00 0,00 0,00 30/04/2023
756 1321300 BEATRIZ FERREIRA GUERRA ESTAGIARIO BELO HORIZONTE; BH-12PJ JUIZO CRIMINAL-GAB 093PJ 0,00 0,00 0,00 240,00 0,00 0,00 0,00 0,00 0,00 30/04/2023
757 1543300 BEATRIZ FONSECA FELICE BRASIL ESTAGIARIO 0,00 0,00 0,00 132,00 0,00 0,00 0,00 0,00 0,00 30/04/2023
758 1429500 BEATRIZ MACIEL ALMEIDA RIBEIRO ESTAGIARIO BELO HORIZONTE; PROC. JUSTICA DE HABEAS CORPUS 0,00 0,00 0,00 228,00 0,00 0,00 0,00 0,00 0,00 30/04/2023
759 1541900 BEATRIZ PALHARES CAMPOS ESTAGIARIO BELO HORIZONTE; BH-12PJ JUIZO CRIMINAL-GAB 085PJ 0,00 0,00 0,00 216,00 0,00 0,00 0,00 0,00 0,00 30/04/2023
760 182300 BEATRIZ PAULA SOUSA RAMOS OFICIAL DO MP MARIANA - COMARCA; MARIANA-PJ-01PJ 1.500,00 0,00 578,00 0,00 4.928,08 0,00 0,00 0,00 451,74 30/04/2023
761 1314100 BEATRIZ PAULINO DE FREITAS ESTAGIARIO CALDAS; CALDAS-PJ-UNPJ 0,00 0,00 0,00 228,00 0,00 0,00 0,00 0,00 0,00 30/04/2023
762 1359900 BEATRIZ PEREIRA LAMBOGLIA ESTAGIARIO UBERABA; UBERABA-PJ-13PJ 0,00 0,00 0,00 120,00 0,00 0,00 0,00 0,00 0,00 30/04/2023
763 1590400 BEATRIZ RIBEIRO SOARES MENDES ESTAGIARIO TAIOBEIRAS; TAIOBEIRAS-PJ-UNPJ 0,00 0,00 0,00 240,00 0,00 0,00 0,00 0,00 0,00 30/04/2023
764 507000 BELCHIOR FRANKLIN AMARAL LEITE ANALISTA DO MP BELO HORIZONTE - COMARCA; CAO ORGAOS MPMG DESIG FUNC ELEITORAIS-SEC 1.500,00 0,00 578,00 0,00 0,00 0,00 0,00 0,00 0,00 30/04/2023
765 345100 BENITO ELIAS RODRIGUES ANALISTA DO MP BARBACENA - COMARCA; BARBACENA - SECRETARIA DAS PJS CRIMINAIS 1.500,00 1.520,00 578,00 0,00 5.550,10 0,00 0,00 0,00 508,76 30/04/2023
766 207300 BENITO VIEIRA DOS SANTOS ANALISTA DO MP BELO HORIZONTE - COMARCA; PROC JUST ESP ACOES COMP ORIG CRIMINAL-ASSESS 1.500,00 0,00 578,00 0,00 4.790,80 0,00 0,00 0,00 439,16 30/04/2023
767 84700 BERGSON CARDOSO GUIMARAES PROMOT.ENTRANC.ESPECIAL BELO HORIZONTE - COMARCA; BH-13PJ JUIZO DE TOXICOS-GAB 107PJ 1.500,00 0,00 3.571,05 0,00 24.048,01 0,00 0,00 0,00 734,80 30/04/2023
768 480200 BERNADETE NUNES DOS SANTOS ANALISTA DO MP GUANHÃES - COMARCA; GUANHAES-PJ-02PJ 1.500,00 0,00 578,00 0,00 0,00 0,00 0,00 0,00 0,00 30/04/2023
769 1474100 BERNARDO ANGELI BELO ESTAGIARIO FORMIGA; FORMIGA-PJ-03PJ 0,00 0,00 0,00 240,00 0,00 0,00 0,00 0,00 0,00 30/04/2023
770 1503900 BERNARDO CARVALHO BAUMGRATZ DE MIRANDA ESTAGIARIO BELO HORIZONTE; BH-01PJ FAZENDA PUBLICA-GAB 008PJ 0,00 0,00 0,00 240,00 0,00 0,00 0,00 0,00 0,00 30/04/2023
771 456700 BERNARDO DE MOURA LIMA PAIVA JEHA PROMOTOR 2A ENTRANCIA ITAÚNA - COMARCA; ITAUNA-PJ-01PJ 1.500,00 0,00 3.392,49 0,00 22.616,63 0,00 0,00 0,00 518,30 30/04/2023
772 1504700 BERNARDO SANTI ENGEL ESTAGIARIO BELO HORIZONTE; BH-08PJ JUIZADO ESPECIAL-GAB 168PJ 0,00 0,00 0,00 240,00 0,00 0,00 0,00 0,00 0,00 30/04/2023
773 1508100 BETANIA BEZERRA FIGUEIRA ESTAGIARIO UBERLANDIA; UBERLANDIA-PJ-24PJ 0,00 0,00 0,00 240,00 0,00 0,00 0,00 0,00 0,00 30/04/2023
774 162900 BETANIA CABRAL DE PINA LARCHER PROMOT.ENTRANC.ESPECIAL CONTAGEM - COMARCA; CONTAGEM-PJ-18PJ 1.500,00 0,00 3.571,05 0,00 14.529,88 0,00 0,00 0,00 605,41 30/04/2023
775 378400 BETANIA FARNESI DE SOUZA E SILVA OFICIAL DO MP CURVELO - COMARCA; CURVELO-PJ-01PJ 1.500,00 0,00 578,00 0,00 0,00 0,00 0,00 0,00 0,00 30/04/2023
776 387400 BETANIA MENDONCA DE ASSIS CARVALHO ANALISTA DO MP JUIZ DE FORA - COMARCA; JUIZ DE FORA-PJ-03PJ 1.500,00 950,00 578,00 0,00 0,00 0,00 0,00 0,00 0,00 30/04/2023
777 1573200 BETHANIA SILVA CLEMENTE ESTAGIARIO LEOPOLDINA; LEOPOLDINA-PJ-04PJ 0,00 0,00 0,00 240,00 0,00 0,00 0,00 0,00 0,00 30/04/2023
778 1453100 BIANCA CRISTINA GONZAGA OLIVEIRA ESTAGIARIO BELO HORIZONTE; DIRET DE ESTAGIOS E CONVENIOS ACADEMICOS 0,00 0,00 0,00 168,00 0,00 0,00 0,00 0,00 0,00 30/04/2023
779 714400 BIANCA DE CASTRO RAMOS ASSESSOR PROMOTOR JUSTICA BETIM - COMARCA; BETIM-PJ-13PJ 1.500,00 0,00 578,00 0,00 0,00 0,00 0,00 0,00 0,00 30/04/2023
780 1600700 BIANCA DE MELO PONTES ESTAGIARIO 0,00 0,00 0,00 240,00 0,00 0,00 0,00 0,00 0,00 30/04/2023
781 1278400 BIANCA DE SOUZA VILELA ESTAGIARIO BELO HORIZONTE; BH-13PJ JUIZO DE TOXICOS-GAB 079PJ 0,00 0,00 0,00 72,00 0,00 0,00 0,00 0,00 0,00 30/04/2023
782 1293800 BIANCA GEORJUTTI VIEIRA ESTAGIARIO UBERLANDIA; UBERLANDIA-PJ-05PJ 0,00 0,00 0,00 204,00 0,00 0,00 0,00 0,00 0,00 30/04/2023
783 1579000 BIANCA ISABELA GOULART CORNELIO ESTAGIARIO BELO HORIZONTE; OUVIDORIA DO MPMG 0,00 0,00 0,00 216,00 0,00 0,00 0,00 0,00 0,00 30/04/2023
784 1278100 BIANCA LIDSEY CARVALHO PINTO ESTAGIARIO GUANHAES; GUANHAES-PJ-01PJ 0,00 0,00 0,00 240,00 0,00 0,00 0,00 0,00 0,00 30/04/2023
785 1446400 BIANCA MACHADO DOS SANTOS ESTAGIARIO ARAGUARI; ARAGUARI-PJ-01PJ 0,00 0,00 0,00 240,00 0,00 0,00 0,00 0,00 0,00 30/04/2023
786 1354000 BIANCA NEVES BATISTA COSTA ESTAGIARIO BELO HORIZONTE; PROC JUST ATUACAO TRIBUNAIS SUPERIORES-GAB007 0,00 0,00 0,00 216,00 0,00 0,00 0,00 0,00 0,00 30/04/2023
787 450300 BIANCA OLIVEIRA DE ALBUQUERQUE ANALISTA DO MP BELO HORIZONTE - COMARCA; BH-10PJ EXECUÇÃO PENAL-SECRETARIA 1.500,00 950,00 578,00 0,00 0,00 0,00 0,00 0,00 0,00 30/04/2023
788 535400 BIANCA SALOTO ROSSI ANALISTA DO MP SANTOS DUMONT - COMARCA; SANTOS DUMONT-PJ-01PJ 1.500,00 950,00 578,00 0,00 5.332,44 0,00 0,00 0,00 488,81 30/04/2023
789 1473300 BIANCA SILVA BRANDAO ESTAGIARIO PASSOS; PASSOS-PJ-05PJ 0,00 0,00 0,00 156,00 0,00 0,00 0,00 0,00 0,00 30/04/2023
790 1405700 BIANCA SIQUEIRA BERALDO SILVA ESTAGIARIO SILVIANOPOLIS; SILVIANOPOLIS-PJ-UNPJ 0,00 0,00 0,00 240,00 0,00 0,00 0,00 0,00 0,00 30/04/2023
791 1447200 BIANKA SOUZA VIEIRA ESTAGIARIO SAO ROMAO; SAO ROMAO-PJ-UNPJ 0,00 0,00 0,00 240,00 0,00 0,00 0,00 0,00 0,00 30/04/2023
792 120800 BRAS MARQUES DE SOUZA ANALISTA DO MP BELO HORIZONTE - COMARCA; SUPERINTENDENCIA DE GESTAO ADMINISTRATIVA 1.500,00 0,00 578,00 0,00 5.206,23 0,00 0,00 0,00 477,24 30/04/2023
793 1563700 BRENDA COELHO DA SILVA ESTAGIARIO BELO HORIZONTE; BH-02PJ FAMILIA-GAB 016PJ 0,00 0,00 0,00 240,00 0,00 0,00 0,00 0,00 0,00 30/04/2023
794 1568500 BRENDA CUSTODIO DE ABREU ESTAGIARIO CONCEICAO DAS ALAGOAS; CONCEICAO DAS ALAGOAS-PJ-01PJ 0,00 0,00 0,00 240,00 0,00 0,00 0,00 0,00 0,00 30/04/2023
795 1316700 BRENDA FAULKNER ASSIS DA SILVA ESTAGIARIO BELO HORIZONTE; BH-15PJ M AMB PAT HIST CULT-GAB 114PJ 0,00 0,00 0,00 144,00 0,00 0,00 0,00 0,00 0,00 30/04/2023
796 1501700 BRENDA GONCALVES DE CARVALHO ESTAGIARIO BELO HORIZONTE; GABINETE DE PROCURADOR DE JUSTIÇA - SALA 904 0,00 0,00 0,00 216,00 0,00 0,00 0,00 0,00 0,00 30/04/2023
797 1484800 BRENDA IZABEL GONCALVES FRANCA ESTAGIARIO BELO HORIZONTE; BH-12PJ JUIZO CRIMINAL-GAB 094PJ 0,00 0,00 0,00 240,00 0,00 0,00 0,00 0,00 0,00 30/04/2023
798 1526400 BRENDA MATOZINHO SANTOS ESTAGIARIO BELO HORIZONTE; BH-18PJ VIOLENCIA DOMESTICA-GAB 186PJ 0,00 0,00 0,00 192,00 0,00 0,00 0,00 0,00 0,00 30/04/2023
799 724400 BRENDA PIMENTEL DE SOUZA VIANA ASSESSOR PROMOTOR JUSTICA MANHUMIRIM - COMARCA; MANHUMIRIM-PJ-01PJ 1.500,00 0,00 578,00 0,00 0,00 0,00 0,00 0,00 0,00 30/04/2023
800 1476200 BRENDA RODRIGUES DIAS ESTAGIARIO BETIM; BETIM-PJ-02PJ 0,00 0,00 0,00 240,00 0,00 0,00 0,00 0,00 0,00 30/04/2023
801 1365100 BRENDA VIEIRA JORGE ESTAGIARIO BELO HORIZONTE; BH-23PJ INFRACIONAL-RECEPCAO 0,00 0,00 0,00 240,00 0,00 0,00 0,00 0,00 0,00 30/04/2023
802 710500 BRENNO VINICIUS MAGESTE ROSA ASSESSOR PROMOTOR JUSTICA MANHUAÇU - COMARCA; MANHUACU-PJ-02PJ 1.500,00 0,00 578,00 0,00 0,00 0,00 0,00 0,00 0,00 30/04/2023
803 372400 BRENO COSTA DA SILVA COELHO PROMOTOR 2A ENTRANCIA VISCONDE DO RIO BRANCO - COMARCA; GAECO REGIONAL ZONA MATA-VISCONDE RIO BRANCO 1.500,00 0,00 2.405,94 0,00 11.308,32 0,00 0,00 0,00 518,30 30/04/2023
804 460900 BRENO CRISTIANO DE SOUZA REZENDE ANALISTA DO MP ITAÚNA - COMARCA; ITAUNA-PJ-02PJ 1.500,00 0,00 578,00 0,00 0,00 0,00 0,00 0,00 0,00 30/04/2023
805 96700 BRENO LINHARES LINTZ PROMOT.ENTRANC.ESPECIAL UBERLÂNDIA - COMARCA; UBERLANDIA-PJ-10PJ 1.500,00 0,00 0,00 0,00 32.064,01 0,00 0,00 0,00 734,80 30/04/2023
806 1542200 BRENO MATEUS RAMOS BRAGA ESTAGIARIO MONTES CLAROS; MONTES CLAROS-PJ-14PJ 0,00 0,00 0,00 240,00 0,00 0,00 0,00 0,00 0,00 30/04/2023
807 439500 BRENO MAX DE JESUS SILVEIRA PROMOTOR 2A ENTRANCIA CARANGOLA - COMARCA; CARANGOLA-PJ-02PJ 1.500,00 0,00 1.063,68 0,00 16.962,47 0,00 0,00 0,00 518,30 30/04/2023
808 439300 BRENO NASCIMENTO PACHECO PROMOTOR 2A ENTRANCIA PATROCÍNIO - COMARCA; PATROCINIO-PJ-01PJ 1.500,00 0,00 3.392,49 0,00 16.962,48 0,00 0,00 0,00 518,30 30/04/2023
809 1594500 BRENO TRINDADE CASTRO ESTAGIARIO OLIVEIRA; OLIVEIRA-PJ-01PJ 0,00 0,00 0,00 216,00 0,00 0,00 0,00 0,00 0,00 30/04/2023
810 239000 BRENO VENANCIO ROMANINI OFICIAL DO MP BELO HORIZONTE - COMARCA; BH-20PJ ORD ECON TRIBUTARIA-SECRETARIA 1.500,00 0,00 578,00 0,00 0,00 0,00 0,00 0,00 0,00 30/04/2023
811 1383700 BRIGIDA CRISOSTOMO DA SILVA ESTAGIARIO CARATINGA; CARATINGA-PJ-07PJ 0,00 0,00 0,00 132,00 0,00 0,00 0,00 0,00 0,00 30/04/2023
812 1469400 BRUNA ALMEIDA LOPES ESTAGIARIO JUIZ DE FORA; JUIZ DE FORA-PJ-14PJ 0,00 0,00 0,00 216,00 0,00 0,00 0,00 0,00 0,00 30/04/2023
813 1491400 BRUNA ALVES FERNANDES ESTAGIARIO CAPELINHA; CAPELINHA-PJ-01PJ 0,00 0,00 0,00 240,00 0,00 0,00 0,00 0,00 0,00 30/04/2023
814 1448700 BRUNA BARBOSA SOARES DE SOUZA ESTAGIARIO SAO LOURENCO; SAO LOURENCO-PJ-03PJ 0,00 0,00 0,00 228,00 0,00 0,00 0,00 0,00 0,00 30/04/2023
815 659300 BRUNA BODONI FACCIOLI PROMOTOR 2A ENTRANCIA CARMO DO PARANAÍBA - COMARCA; CARMO DO PARANAIBA-PJ-01PJ 1.500,00 0,00 3.392,49 0,00 11.308,32 0,00 0,00 0,00 518,30 30/04/2023
816 1424500 BRUNA CATAI ALCANTARA ESTAGIARIO PATROCINIO; PATROCINIO-PJ-01PJ 0,00 0,00 0,00 108,00 0,00 0,00 0,00 0,00 0,00 30/04/2023
817 1567900 BRUNA COUTO BOECHAT ESTAGIARIO BELO HORIZONTE; PROC. JUSTICA DIR. DIFUSOS E COLETIVOS 0,00 0,00 0,00 84,00 0,00 0,00 0,00 0,00 0,00 30/04/2023
818 1504100 BRUNA CRISTINA OLIVEIRA DOS SANTOS ESTAGIARIO VESPASIANO; VESPASIANO-PJ-06PJ 0,00 0,00 0,00 240,00 0,00 0,00 0,00 0,00 0,00 30/04/2023
819 1489000 BRUNA DAYANA DA SILVA SOUZA ESTAGIARIO GOVERNADOR VALADARES; GOVERNADOR VALADARES-PJ-13PJ 0,00 0,00 0,00 240,00 0,00 0,00 0,00 0,00 0,00 30/04/2023
820 1408800 BRUNA DE CASTRO VIEIRA ESTAGIARIO CORONEL FABRICIANO; CORONEL FABRICIANO-PJ-01PJ 0,00 0,00 0,00 144,00 0,00 0,00 0,00 0,00 0,00 30/04/2023
821 722700 BRUNA DE SA FERREIRA LIMA ASSESSOR PROMOTOR JUSTICA MANGA - COMARCA; MANGA-PJ-01PJ 1.500,00 0,00 578,00 0,00 0,00 0,00 0,00 0,00 0,00 30/04/2023
822 1557400 BRUNA DO PRADO SANTOS ESTAGIARIO POUSO ALEGRE; POUSO ALEGRE-PJ-06PJ 0,00 0,00 0,00 240,00 0,00 0,00 0,00 0,00 0,00 30/04/2023
823 1360800 BRUNA DOS SANTOS NASCIMENTO MANDOLESI ESTAGIARIO ITAJUBA; ITAJUBA-PJ-04PJ 0,00 0,00 0,00 240,00 0,00 0,00 0,00 0,00 0,00 30/04/2023
824 1432500 BRUNA EDUARDA SANTOS DA SILVA ESTAGIARIO SANTA LUZIA; SANTA LUZIA-PJ-07PJ 0,00 0,00 0,00 240,00 0,00 0,00 0,00 0,00 0,00 30/04/2023
825 1430400 BRUNA FERNANDES ABINEDER FERREIRA ESTAGIARIO BELO HORIZONTE; BH-09PJ AUDITORIA MILITAR-GAB 073PJ 0,00 0,00 0,00 24,00 0,00 0,00 0,00 0,00 0,00 30/04/2023
826 1487700 BRUNA GOULART TAVARES ESTAGIARIO PARAISOPOLIS; PARAISOPOLIS-PJ-UNPJ 0,00 0,00 0,00 240,00 0,00 0,00 0,00 0,00 0,00 30/04/2023
827 722100 BRUNA HENRIQUE DE SOUZA ASSESSOR PROMOTOR JUSTICA PIRAPETINGA - COMARCA; PIRAPETINGA-PJ-UNPJ 1.500,00 0,00 578,00 0,00 0,00 0,00 0,00 0,00 0,00 30/04/2023
828 642300 BRUNA IZABELITA DE FATIMA OLIVEIRA COSTA OFICIAL DO MP BELO HORIZONTE - COMARCA; BH-02PJ FAMILIA-SECRETARIA 1.500,00 0,00 578,00 0,00 0,00 0,00 0,00 0,00 0,00 30/04/2023
829 513600 BRUNA KARLA MARTINS CARVALHO ANALISTA DO MP GOVERNADOR VALADARES - COMARCA; GOVERNADOR VALADARES-PJ-14PJ 1.500,00 0,00 578,00 0,00 0,00 0,00 0,00 0,00 0,00 30/04/2023
830 1439000 BRUNA LUDMILA ALVES RODRIGUES ESTAGIARIO BELO HORIZONTE; BH-15PJ M AMB PAT HIST CULT-GAB 114PJ 0,00 0,00 0,00 144,00 0,00 0,00 0,00 0,00 0,00 30/04/2023
831 1544100 BRUNA LUISA DE ALMEIDA ESTAGIARIO SETE LAGOAS; SETE LAGOAS-PJ-SEC CRIMINAIS 0,00 0,00 0,00 240,00 0,00 0,00 0,00 0,00 0,00 30/04/2023
832 1330800 BRUNA LUISA PINHEIRO PINTO ESTAGIARIO ITAUNA; ITAUNA-PJ-01PJ 0,00 0,00 0,00 216,00 0,00 0,00 0,00 0,00 0,00 30/04/2023
833 1485000 BRUNA LUIZA MACHADO DE FARIA ESTAGIARIO BELO HORIZONTE; BH-02PJ FAMILIA-GAB 014PJ
834 1318500 BRUNA MAIARA DE JESUS BARBOSA ESTAGIARIO UBA; UBA-PJ-06PJ 0,00 0,00 0,00 240,00 0,00 0,00 0,00 0,00 0,00 30/04/2023
835 415100 BRUNA MARIA SOARES OLIVEIRA COSTA RAMOS ANALISTA DO MP UBÁ - COMARCA; COORD REG BACIA DO RIO PARAIBA DO SUL 1.500,00 0,00 578,00 0,00 0,00 0,00 0,00 0,00 0,00 30/04/2023
836 1550600 BRUNA MARTINS FARIA ESTAGIARIO PATOS DE MINAS; PATOS DE MINAS-PJ-06PJ 0,00 0,00 0,00 228,00 0,00 0,00 0,00 0,00 0,00 30/04/2023
837 1558200 BRUNA MAYRA TERRA ESTAGIARIO VESPASIANO; VESPASIANO-PJ-05PJ 0,00 0,00 0,00 192,00 0,00 0,00 0,00 0,00 0,00 30/04/2023
838 692900 BRUNA MENDES COELHO ASSESSOR PROCURADOR JUSTICA BELO HORIZONTE - COMARCA; GABINETE DE PROCURADOR DE JUSTIÇA - SALA 801 1.500,00 0,00 578,00 0,00 0,00 0,00 0,00 0,00 0,00 30/04/2023
839 1575000 BRUNA MENDES DOS SANTOS ESTAGIARIO MONTES CLAROS; COORD REG PJ DEF EDUC DIR CRIANCA ADOL NORTE 0,00 0,00 0,00 240,00 0,00 0,00 0,00 0,00 0,00 30/04/2023
840 470000 BRUNA MORAES ANALISTA DO MP TOMBOS - COMARCA; TOMBOS-PJ-UNPJ 1.500,00 0,00 578,00 0,00 0,00 0,00 0,00 0,00 0,00 30/04/2023
841 1388300 BRUNA MORAIS DE SOUZA ESTAGIARIO ITABIRA; ITABIRA-PJ-02PJ 0,00 0,00 0,00 240,00 0,00 0,00 0,00 0,00 0,00 30/04/2023
842 614700 BRUNA NATTANY DE LIMA OFICIAL DO MP MANTENA - COMARCA; MANTENA-PJ-01PJ 1.500,00 950,00 578,00 0,00 0,00 0,00 0,00 0,00 0,00 30/04/2023
843 729800 BRUNA PAULA AMARAL CEOLIN ASSESSOR PROMOTOR JUSTICA COMARCA - JUATUBA; JUATUBA-PJ-UNPJ 1.500,00 0,00 578,00 0,00 0,00 0,00 0,00 0,00 0,00 30/04/2023
844 631800 BRUNA RAPOSO JORGE OFICIAL DO MP JUIZ DE FORA - COMARCA; JUIZ DE FORA-PJ-06PJ 1.500,00 0,00 578,00 0,00 0,00 0,00 0,00 0,00 0,00 30/04/2023
845 1567200 BRUNA RODRIGUES TORRES ESTAGIARIO CONTAGEM; CONTAGEM-PJ-18PJ 0,00 0,00 0,00 228,00 0,00 0,00 0,00 0,00 0,00 30/04/2023
846 707800 BRUNA ROMIE WERDINE ASSESSOR PROMOTOR JUSTICA IBIRITÉ - COMARCA; IBIRITE-PJ-06PJ 1.500,00 0,00 578,00 0,00 0,00 0,00 0,00 0,00 0,00 30/04/2023
847 1337600 BRUNA SALES VIEIRA ESTAGIARIO FRUTAL; FRUTAL-PJ-02PJ 0,00 0,00 0,00 144,00 0,00 0,00 0,00 0,00 0,00 30/04/2023
848 697400 BRUNA SILVA SANTOS ASSESSOR PROMOTOR JUSTICA TIMÓTEO - COMARCA; TIMOTEO-PJ-04PJ 1.500,00 0,00 578,00 0,00 0,00 0,00 0,00 0,00 0,00 30/04/2023
849 1524700 BRUNA STEHLING SCHIRMER ESTAGIARIO BELO HORIZONTE; PROC. JUSTICA DIR. DIFUSOS E COLETIVOS
850 1380100 BRUNA STEPHANIE TOLEDO FERNANDES ESTAGIARIO SETE LAGOAS; SETE LAGOAS-PJ-03PJ 0,00 0,00 0,00 240,00 0,00 0,00 0,00 0,00 0,00 30/04/2023
851 699300 BRUNA URSINE TIMO ASSESSOR PROCURADOR JUSTICA BELO HORIZONTE - COMARCA; PROC JUST ESP ACOES COMP ORIG CRIMINAL-ASSESS 1.500,00 0,00 578,00 0,00 0,00 0,00 0,00 0,00 0,00 30/04/2023
852 1585200 BRUNA VIDAL DE ALMEIDA ESTAGIARIO ITABIRA; ITABIRA-PJ-03PJ 0,00 0,00 0,00 228,00 0,00 0,00 0,00 0,00 0,00 30/04/2023
853 1364300 BRUNA YASMIM DE OLIVEIRA MOREIRA ESTAGIARIO BELO HORIZONTE; DIRET DE ESTAGIOS E CONVENIOS ACADEMICOS 0,00 0,00 0,00 84,00 0,00 0,00 0,00 0,00 0,00 30/04/2023
854 225100 BRUNO ALEXANDER VIEIRA SOARES PROMOT.ENTRANC.ESPECIAL BELO HORIZONTE - COMARCA; BH-17PJ PATRIMONIO PUBLICO-GAB 004PJ 1.500,00 0,00 2.968,35 0,00 25.181,19 0,00 0,00 0,00 577,07 30/04/2023
855 463800 BRUNO ALVES TEIXEIRA ANALISTA DO MP UBERLÂNDIA - COMARCA; UBERLANDIA-PJ-04PJ 1.500,00 0,00 578,00 0,00 0,00 0,00 0,00 0,00 0,00 30/04/2023
856 1463600 BRUNO ANDRADE ALVARENGA ESTAGIARIO IPATINGA; IPATINGA-PJ-07PJ 0,00 0,00 0,00 240,00 0,00 0,00 0,00 0,00 0,00 30/04/2023
857 538500 BRUNO AUGUSTO DA SILVA OFICIAL DO MP SANTA LUZIA - COMARCA; SANTA LUZIA-PJ-03PJ 1.500,00 0,00 578,00 0,00 0,00 0,00 0,00 0,00 0,00 30/04/2023
858 318200 BRUNO BARROS DE SOUZA OFICIAL DO MP BELO HORIZONTE - COMARCA; DIRETORIA GESTAO CONTRATOS CONVENIOS 1.500,00 0,00 578,00 0,00 0,00 0,00 0,00 0,00 0,00 30/04/2023
859 718900 BRUNO CARVALHO AMARAL DIAS PROMOTOR SUBSTITUTO UBERLÂNDIA - COMARCA; UBERLANDIA-PJ-02PJ 1.500,00 0,00 3.222,87 0,00 5.371,45 0,00 0,00 0,00 492,38 30/04/2023
860 459600 BRUNO CASTELAR LUGAO MENDES GESTOR ADM. SECRETARIA IV BELO HORIZONTE - COMARCA; PROC JUST ATUACAO TRIBUNAIS SUPERIORES 1.500,00 950,00 578,00 0,00 0,00 0,00 0,00 0,00 0,00 30/04/2023
861 361300 BRUNO CESAR MEDEIROS GIARDINI PROMOT.ENTRANC.ESPECIAL IPATINGA - COMARCA; IPATINGA-PJ-06PJ 1.500,00 0,00 3.571,05 0,00 23.806,97 0,00 0,00 0,00 545,58 30/04/2023
862 427400 BRUNO CESAR RIBEIRO DE PAIVA ANALISTA DO MP BELO HORIZONTE - COMARCA; DIRETORIA DO COLEGIO E DA CAMARA DE PJ 1.500,00 0,00 578,00 0,00 0,00 0,00 0,00 0,00 0,00 30/04/2023
863 1425600 BRUNO CEZAR SOARES ESTAGIARIO PEDRO LEOPOLDO; PEDRO LEOPOLDO-PJ-02PJ 0,00 0,00 0,00 240,00 0,00 0,00 0,00 0,00 0,00 30/04/2023
864 380900 BRUNO CIRILO ANTUNES OFICIAL DO MP VARGINHA - COMARCA; VARGINHA-PJ-05PJ 1.500,00 0,00 578,00 0,00 0,00 0,00 0,00 0,00 0,00 30/04/2023
865 666700 BRUNO DE CARVALHO VASCONCELOS PROMOTOR SUBSTITUTO CORINTO - COMARCA; CORINTO-PJ-UNPJ 1.500,00 0,00 2.228,66 0,00 16.114,35 0,00 0,00 0,00 492,38 30/04/2023
866 329000 BRUNO DE MELO REIS ANALISTA DO MP PATROCÍNIO - COMARCA; PATROCINIO-PJ-02PJ 1.500,00 1.900,00 578,00 0,00 4.970,94 0,00 0,00 0,00 455,67 30/04/2023
867 1437500 BRUNO EDUARDO DE ANDRADE GONZAGA ESTAGIARIO BELO HORIZONTE; PROC JUST RECURSOS ESP E EXTRAORD CRIMINAIS 0,00 0,00 0,00 240,00 0,00 0,00 0,00 0,00 0,00 30/04/2023
868 339700 BRUNO FERNANDO TORRES LANA PROMOT.ENTRANC.ESPECIAL UBÁ - COMARCA; UBA-PJ-05PJ 1.500,00 0,00 3.007,28 0,00 23.806,97 0,00 0,00 0,00 545,58 30/04/2023
869 697800 BRUNO GAZZOLA BEZERRA FALCAO ASSESSOR PROCURADOR JUSTICA BELO HORIZONTE - COMARCA; PROCURADOR-GERAL ADJUNTO JURIDICO- GABINETE 1.500,00 0,00 578,00 0,00 0,00 0,00 0,00 0,00 0,00 30/04/2023
870 360300 BRUNO GUERRA DE OLIVEIRA PROMOT.ENTRANC.ESPECIAL UBÁ - COMARCA; UBA-PJ-06PJ 1.500,00 0,00 1.570,19 0,00 23.806,97 0,00 0,00 0,00 545,58 30/04/2023
871 1573800 BRUNO HENRIQUE DE ANDRADE BRUNHARA ESTAGIARIO SANTA RITA DO SAPUCAI; SANTA RITA DO SAPUCAI-PJ-01PJ 0,00 0,00 0,00 228,00 0,00 0,00 0,00 0,00 0,00 30/04/2023
872 1376000 BRUNO HENRIQUE RODRIGUES DOS SANTOS ESTAGIARIO NOVO CRUZEIRO; NOVO CRUZEIRO-PJ-UNPJ 0,00 0,00 0,00 240,00 0,00 0,00 0,00 0,00 0,00 30/04/2023
873 378300 BRUNO HERDY LOPES DE OLIVEIRA ANALISTA DO MP GOVERNADOR VALADARES - COMARCA; GOVERNADOR VALADARES-PJ-03PJ 1.500,00 0,00 578,00 0,00 4.867,42 0,00 0,00 0,00 446,18 30/04/2023
874 529700 BRUNO JOSE BUENO DIAS OFICIAL DO MP SÃO SEBASTIÃO DO PARAÍSO - COMARCA; SAO SEBASTIAO DO PARAISO-PJ-02PJ 1.500,00 0,00 578,00 0,00 0,00 0,00 0,00 0,00 0,00 30/04/2023
875 691600 BRUNO JOSE RIBEIRO ASSESSOR PROMOTOR JUSTICA CLÁUDIO - COMARCA; CLAUDIO-PJ-UNPJ 1.500,00 0,00 578,00 0,00 0,00 0,00 0,00 0,00 0,00 30/04/2023
876 350100 BRUNO LAUD SERRANO DOS REIS OFICIAL DO MP UBÁ - COMARCA; UBA-PJ-02PJ 1.500,00 0,00 578,00 0,00 0,00 0,00 0,00 0,00 0,00 30/04/2023
877 728900 BRUNO LIMA PITANGA ASSESSOR PROMOTOR JUSTICA BELO HORIZONTE - COMARCA; NUCLEO DA EXECUCAO PENAL 1.500,00 0,00 578,00 0,00 0,00 0,00 0,00 0,00 0,00 30/04/2023
878 530600 BRUNO MARQUES DE ALMEIDA ROSSI PROMOTOR 1A ENTRANCIA PRESIDENTE OLEGÁRIO - COMARCA; PRESIDENTE OLEGARIO-PJ-UNPJ 1.500,00 0,00 3.222,87 0,00 16.114,35 0,00 0,00 0,00 492,38 30/04/2023
879 373800 BRUNO MARTINO DE ALBUQUERQUE ANALISTA DO MP PONTE NOVA - COMARCA; PONTE NOVA-PJ-03PJ 1.500,00 0,00 578,00 0,00 0,00 0,00 0,00 0,00 0,00 30/04/2023
880 1545100 BRUNO MIRANDA E SILVA ESTAGIARIO BELO HORIZONTE; BH-09PJ AUDITORIA MILITAR-GAB 161PJ 0,00 0,00 0,00 240,00 0,00 0,00 0,00 0,00 0,00 30/04/2023
881 732900 BRUNO NOGUEIRA GUIMARAES ASSESSOR ADMINISTRATIVO I BELO HORIZONTE - COMARCA; COORD DE INCLUSAO E MOBILIZACAO SOCIAIS 1.500,00 0,00 578,00 0,00 0,00 0,00 0,00 0,00 0,00 30/04/2023
882 470400 BRUNO NOVAIS CABRAL ANALISTA DO MP MUTUM - COMARCA; MUTUM-PJ-UNPJ 1.500,00 0,00 578,00 0,00 0,00 0,00 0,00 0,00 0,00 30/04/2023
883 457300 BRUNO OLIVEIRA MULLER PROMOT.ENTRANC.ESPECIAL ITABIRA - COMARCA; ITABIRA-PJ-04PJ 1.500,00 0,00 3.571,05 0,00 23.806,97 0,00 0,00 0,00 545,58 30/04/2023
884 648600 BRUNO RIBEIRO E MELO COORDENADOR I BELO HORIZONTE - COMARCA; DIR RELACOES INSTITUCIONAIS 1.500,00 0,00 578,00 0,00 0,00 0,00 0,00 0,00 0,00 30/04/2023
885 369200 BRUNO ROBERTO DIAS DE OLIVEIRA OFICIAL DO MP BELO HORIZONTE - COMARCA; BH-22PJ PES COM DEF E IDOSOS-SECRETARIA 1.500,00 0,00 578,00 0,00 0,00 0,00 0,00 0,00 0,00 30/04/2023
886 547700 BRUNO ROBERTO SOUZA GONCALVES ANALISTA DO MP PARACATU - COMARCA; PARACATU-PJ-03PJ 1.500,00 950,00 578,00 0,00 0,00 0,00 0,00 0,00 0,00 30/04/2023
887 546100 BRUNO SA VIEIRA ANALISTA DO MP BARBACENA - COMARCA; BARBACENA-PJ-SECRETARIA 1.500,00 950,00 578,00 0,00 148,12 0,00 0,00 0,00 1.247,94 30/04/2023
888 438200 BRUNO SALES PEREIRA ANALISTA DO MP BELO HORIZONTE - COMARCA; CENTRAL DE APOIO TECNICO-SETOR CONTABIL 1.500,00 0,00 578,00 0,00 765,59 0,00 0,00 0,00 70,18 30/04/2023
889 537400 BRUNO SANT'ANA CESAR ANALISTA DO MP BELO HORIZONTE - COMARCA; BH-12PJ JUIZO CRIMINAL-GAB 105PJ 1.500,00 0,00 578,00 0,00 0,00 0,00 0,00 0,00 0,00 30/04/2023
890 343500 BRUNO SCHIAVO CRUZ PROMOT.ENTRANC.ESPECIAL IPATINGA - COMARCA; GAECO REGIONAL DE IPATINGA 1.500,00 0,00 3.571,05 0,00 23.806,96 0,00 0,00 0,00 545,58 30/04/2023
891 1511200 BRUNO SILVERIO CARVALHO ESTAGIARIO POCOS DE CALDAS; POCOS DE CALDAS-PJ-03PJ 0,00 0,00 0,00 216,00 0,00 0,00 0,00 0,00 0,00 30/04/2023
892 684000 BRUNO TORRANO AMORIM DE ALMEIDA PROMOTOR 2A ENTRANCIA SÃO FRANCISCO - COMARCA; SAO FRANCISCO-PJ-02PJ 1.500,00 0,00 3.392,49 0,00 16.962,48 0,00 0,00 0,00 518,30 30/04/2023
893 720300 BRUNO YOGUI SHIMABUKURO PROMOTOR SUBSTITUTO TEÓFILO OTONI - COMARCA; TEOFILO OTONI-PJ-02PJ 1.500,00 0,00 1.671,50 0,00 0,00 0,00 0,00 0,00 0,00 30/04/2023
894 727700 BYANKA DA SILVA MORAIS ASSESSOR PROCURADOR JUSTICA BELO HORIZONTE - COMARCA; GABINETE DE PROCURADOR DE JUSTIÇA - SALA 805 1.500,00 0,00 578,00 0,00 0,00 0,00 0,00 0,00 0,00 30/04/2023
895 655800 CAEL KALINOWSKI SOUZA MATTA INVESTIGADOR DE POLICIA 2 BELO HORIZONTE - COMARCA; NUCLEO DE INFORMACOES E INTELIGENCIA 1.500,00 0,00 0,00 0,00 0,00 0,00 0,00 0,00 0,00 30/04/2023
896 1556000 CAINAN ANDRADE VALIM GARCIA ESTAGIARIO TRES CORACOES; TRES CORACOES-PJ-03PJ 0,00 0,00 0,00 228,00 0,00 0,00 0,00 0,00 0,00 30/04/2023
897 719000 CAIO AUGUSTO BOGUS PROMOTOR SUBSTITUTO AREADO - COMARCA; AREADO-PJ-UNPJ 1.500,00 0,00 835,75 0,00 5.371,45 0,00 0,00 0,00 492,38 30/04/2023
898 666900 CAIO CESAR ESPIRITO SANTO DO NASCIMENTO PROMOTOR 2A ENTRANCIA SALINAS - COMARCA; SALINAS-PJ-01PJ 1.500,00 0,00 2.029,67 0,00 16.962,47 0,00 0,00 0,00 518,30 30/04/2023
899 685600 CAIO CESAR FERREIRA PROMOTOR SUBSTITUTO CONTAGEM - COMARCA; CONTAGEM-PJ-09PJ 1.500,00 0,00 1.663,05 0,00 10.742,90 0,00 0,00 0,00 492,38 30/04/2023
900 719100 CAIO DEZONTINI BERNARDES PROMOTOR SUBSTITUTO CONCEIÇÃO DO MATO DENTRO - COMARCA; CONCEICAO DO MATO DENTRO-PJ-UNPJ 1.500,00 0,00 835,75 0,00 0,00 0,00 0,00 0,00 0,00 30/04/2023
901 1411800 CAIO EMANUEL FERNANDES GOUVEIA ESTAGIARIO MONTES CLAROS; MONTES CLAROS-PJ-15PJ 0,00 0,00 0,00 216,00 0,00 0,00 0,00 0,00 0,00 30/04/2023
902 405800 CAIO FERNANDO RODRIGUES DE OLIVEIRA ANALISTA DO MP BELO HORIZONTE - COMARCA; ASSESSORIA JURIDICO-ADMINISTRATIVA 1.500,00 0,00 578,00 0,00 0,00 0,00 0,00 0,00 0,00 30/04/2023
903 1428700 CAIO GIOVANNI DE FREITAS MATOS ESTAGIARIO BRASILIA DE MINAS; BRASILIA DE MINAS-PJ-02PJ 0,00 0,00 0,00 240,00 0,00 0,00 0,00 0,00 0,00 30/04/2023
904 530000 CAIO GUEDES DE OLIVEIRA ANALISTA DO MP DIAMANTINA - COMARCA; DIAMANTINA-PJ-02PJ 1.500,00 0,00 578,00 0,00 0,00 0,00 0,00 0,00 0,00 30/04/2023
905 1574600 CAIO JOSE DE SOUZA ESTAGIARIO OURO PRETO; OURO PRETO-PJ-04PJ 0,00 0,00 0,00 240,00 0,00 0,00 0,00 0,00 0,00 30/04/2023
906 1577900 CAIO LAGE OLIVEIRA ESTAGIARIO BELO HORIZONTE; CAO-CRIANCAS E ADOLESCENTES-SECRETARIA 0,00 0,00 0,00 228,00 0,00 0,00 0,00 0,00 0,00 30/04/2023
907 1558300 CAIO MAGNO GONCALVES DOS SANTOS ESTAGIARIO 0,00 0,00 0,00 240,00 0,00 0,00 0,00 0,00 0,00 30/04/2023
908 1551700 CAIO MARINI LIMA COSTA ESTAGIARIO BELO HORIZONTE; CENT ESTAD COOPERACAO TECNICO-JURIDICA
909 491400 CAIO MIRANDA JUNQUEIRA ANALISTA DO MP BUENO BRANDAO - COMARCA; BUENO BRANDAO-PJ-UNPJ 1.500,00 0,00 578,00 0,00 0,00 0,00 0,00 0,00 0,00 30/04/2023
910 668300 CAIO PALLU COSTA PROMOTOR 2A ENTRANCIA MANTENA - COMARCA; MANTENA-PJ-03PJ 1.500,00 0,00 1.970,80 0,00 10.177,49 0,00 0,00 0,00 518,30 30/04/2023
911 1472700 CAIO VIANA MEIRELES ESTAGIARIO MONTES CLAROS; MONTES CLAROS-PJ-03PJ 0,00 0,00 0,00 216,00 0,00 0,00 0,00 0,00 0,00 30/04/2023
912 171000 CAIUS VINICIUS GONZAGA GOULART PROMOT.ENTRANC.ESPECIAL BELO HORIZONTE - COMARCA; BH-12PJ JUIZO CRIMINAL-GAB 106PJ 1.500,00 0,00 3.571,05 0,00 26.555,40 0,00 0,00 0,00 608,56 30/04/2023
913 1543000 CALEBE ARTUR SOUZA FERREIRA ESTAGIARIO RIBEIRAO DAS NEVES; RIBEIRAO DAS NEVES-PJ-SEC CRIMINAL 0,00 0,00 0,00 132,00 0,00 0,00 0,00 0,00 0,00 30/04/2023
914 1436700 CALEBE JUNGER DE JESUS PEREIRA ESTAGIARIO TEOFILO OTONI; COORD REG SAUDE MACRORREGIAO SANIT NORDESTE 0,00 0,00 0,00 216,00 0,00 0,00 0,00 0,00 0,00 30/04/2023
915 82300 CALIXTO OLIVEIRA SOUZA PROMOT.ENTRANC.ESPECIAL DIVINÓPOLIS - COMARCA; DIVINOPOLIS-PJ-01PJ 1.500,00 0,00 3.044,29 0,00 32.064,01 0,00 0,00 0,00 734,80 30/04/2023
916 415800 CAMILA ALVES DA SILVA ANALISTA DO MP CAETÉ - COMARCA; CAETE-PJ-01PJ 1.500,00 0,00 578,00 0,00 3.481,11 0,00 0,00 0,00 319,10 30/04/2023
917 1399600 CAMILA AMIZADAI MOREIRA CAMPOS ESTAGIARIO SANTOS DUMONT; SANTOS DUMONT-PJ-03PJ 0,00 0,00 0,00 228,00 0,00 0,00 0,00 0,00 0,00 30/04/2023
918 684900 CAMILA APARECIDA PIRES PROMOTOR SUBSTITUTO BELO HORIZONTE - COMARCA; BH-26 CRIME CONT CRIAN ADOL 1.500,00 0,00 835,75 0,00 16.114,35 0,00 0,00 0,00 492,38 30/04/2023
919 1469500 CAMILA AZEVEDO BAHIA ESTAGIARIO JUIZ DE FORA; JUIZ DE FORA-PJ-10PJ 0,00 0,00 0,00 240,00 0,00 0,00 0,00 0,00 0,00 30/04/2023
920 1352800 CAMILA CAETANO SANTOS ESTAGIARIO LUZ; LUZ-PJ-UNPJ 0,00 0,00 0,00 228,00 0,00 0,00 0,00 0,00 0,00 30/04/2023
921 555800 CAMILA CAROLINE ROCHA CHAVES OFICIAL DO MP SALINAS - COMARCA; SALINAS-PJ-01PJ 1.500,00 0,00 578,00 0,00 0,00 0,00 0,00 0,00 0,00 30/04/2023
922 445200 CAMILA CONDE ROCHA ANALISTA DO MP CONTAGEM - COMARCA; CONTAGEM-PJ-21PJ 1.500,00 0,00 578,00 0,00 0,00 0,00 0,00 0,00 0,00 30/04/2023
923 720200 CAMILA COSTA GARRIDO TERRES PROMOTOR SUBSTITUTO OURO PRETO - COMARCA; OURO PRETO-PJ-01PJ 1.500,00 0,00 1.772,80 0,00 5.371,45 0,00 0,00 0,00 492,38 30/04/2023
924 1444600 CAMILA CRISTINA SOUZA BARBOSA ESTAGIARIO PIRAPORA; PIRAPORA-PJ-01PJ 0,00 0,00 0,00 192,00 0,00 0,00 0,00 0,00 0,00 30/04/2023
925 419900 CAMILA CUNNINGHAM PIMENTA DE PADUA ANALISTA DO MP BELO HORIZONTE - COMARCA; ASSESSORIA PSICOSSOCIAL 1.500,00 0,00 578,00 0,00 0,00 0,00 0,00 0,00 0,00 30/04/2023
926 1477000 CAMILA DCHANTAL FIGUEIREDO COELHO ESTAGIARIO GOVERNADOR VALADARES; GOVERNADOR VALADARES-PJ-02PJ 0,00 0,00 0,00 156,00 0,00 0,00 0,00 0,00 0,00 30/04/2023
927 1479500 CAMILA DE JESUS FERREIRA ESTAGIARIO VICOSA; VICOSA-PJ-01PJ 0,00 0,00 0,00 240,00 0,00 0,00 0,00 0,00 0,00 30/04/2023
928 714200 CAMILA DE SOUSA CUNHA ASSESSOR PROMOTOR JUSTICA PRADOS - COMARCA; PRADOS-PJ-UNPJ 1.500,00 0,00 578,00 0,00 0,00 0,00 0,00 0,00 0,00 30/04/2023
929 507700 CAMILA ELIZABETH RODRIGUES ANALISTA DO MP BELO HORIZONTE - COMARCA; BH-02PJ FAMILIA-SECRETARIA 1.500,00 0,00 578,00 0,00 0,00 0,00 0,00 0,00 0,00 30/04/2023
930 1577500 CAMILA FERREIRA DA SILVA PEREIRA ESTAGIARIO 0,00 0,00 0,00 228,00 0,00 0,00 0,00 0,00 0,00 30/04/2023
931 372700 CAMILA FONSECA LIMONGE ANALISTA DO MP BETIM - COMARCA; BETIM-PJ-01PJ 1.500,00 0,00 578,00 0,00 4.867,42 0,00 0,00 0,00 446,18 30/04/2023
932 621300 CAMILA GOLFETO DE SOUSA VALENTE OFICIAL DO MP CARANGOLA - COMARCA; CARANGOLA-PJ-SECRETARIA 1.500,00 1.425,00 578,00 0,00 0,00 0,00 0,00 0,00 0,00 30/04/2023
933 409800 CAMILA GONCALVES COSTA RIBEIRO ANALISTA DO MP INHAPIM - COMARCA; INHAPIM-PJ-02PJ 1.500,00 950,00 578,00 0,00 0,00 0,00 0,00 0,00 0,00 30/04/2023
934 335000 CAMILA GONTIJO DE PAIVA ANALISTA DO MP BELO HORIZONTE - COMARCA; COORD DE CONTROLE CONSTITUCIONALIDADE 1.500,00 0,00 578,00 0,00 5.998,28 0,00 0,00 0,00 549,84 30/04/2023
935 693400 CAMILA HECKSHER MONTEIRO ASSESSOR PROCURADOR JUSTICA BELO HORIZONTE - COMARCA; GABINETE DE PROCURADOR DE JUSTIÇA - SALA 613 1.500,00 0,00 578,00 0,00 0,00 0,00 0,00 0,00 0,00 30/04/2023
936 696000 CAMILA IMACULADA OLIVEIRA ASSESSOR PROCURADOR JUSTICA BELO HORIZONTE - COMARCA; GABINETE DE PROCURADOR DE JUSTIÇA - SALA 816 1.500,00 0,00 578,00 0,00 0,00 0,00 0,00 0,00 0,00 30/04/2023
937 1486600 CAMILA KELLEN SILVA ALMONDES ESTAGIARIO MANTENA; MANTENA-PJ-03PJ 0,00 0,00 0,00 240,00 0,00 0,00 0,00 0,00 0,00 30/04/2023
938 1583000 CAMILA KETLEY FERREIRA DA SILVA ESTAGIARIO BARBACENA; BARBACENA-PJ-02PJ 0,00 0,00 0,00 240,00 0,00 0,00 0,00 0,00 0,00 30/04/2023
939 1456800 CAMILA LOBO SILVA ESTAGIARIO CONGONHAS; CONGONHAS-PJ-01PJ 0,00 0,00 0,00 156,00 0,00 0,00 0,00 0,00 0,00 30/04/2023
940 1478300 CAMILA MARIA DE OLIVEIRA ESTAGIARIO CARATINGA; CARATINGA-PJ-04PJ 0,00 0,00 0,00 240,00 0,00 0,00 0,00 0,00 0,00 30/04/2023
941 547800 CAMILA MATTARELLI DE ABREU E SILVA ANALISTA DO MP BELO HORIZONTE - COMARCA; CAO-VIOLENCIA DOMESTICA E FAMILIAR 1.500,00 0,00 578,00 0,00 0,00 0,00 0,00 0,00 0,00 30/04/2023
942 1386700 CAMILA RODRIGUES COSTA ESTAGIARIO UBERABA; UBERABA-PJ-06PJ 0,00 0,00 0,00 240,00 0,00 0,00 0,00 0,00 0,00 30/04/2023
943 1290600 CAMILA RODRIGUES MAURO ESTAGIARIO CONTAGEM; CONTAGEM-PJ-22PJ 0,00 0,00 0,00 216,00 0,00 0,00 0,00 0,00 0,00 30/04/2023
944 1382700 CAMILA SANTOS SANTIAGO ESTAGIARIO BELO HORIZONTE; COORD ESTADUAL DE DEFESA DOS ANIMAIS 0,00 0,00 0,00 240,00 0,00 0,00 0,00 0,00 0,00 30/04/2023
945 1373400 CAMILA STEPHANIE SANTOS SILVA ESTAGIARIO VESPASIANO; VESPASIANO-PJ-03PJ 0,00 0,00 0,00 240,00 0,00 0,00 0,00 0,00 0,00 30/04/2023
946 1508000 CAMILA VIEIRA FREITAS ESTAGIARIO VARGINHA; COORD REG PP SUDOESTE MINAS GERAIS VARGINHA 0,00 0,00 0,00 240,00 0,00 0,00 0,00 0,00 0,00 30/04/2023
947 1347200 CAMILLA MARTINS DE FREITAS ESTAGIARIO CAPINOPOLIS; CAO-CIVEL 0,00 0,00 0,00 228,00 0,00 0,00 0,00 0,00 0,00 30/04/2023
948 1347600 CAMILLA PRINCE CAETANO DE OLIVEIRA ESTAGIARIO BELO HORIZONTE; CAO-CIVEL 0,00 0,00 0,00 240,00 0,00 0,00 0,00 0,00 0,00 30/04/2023
949 1361700 CAMILLA RABELO E SILVA ESTAGIARIO VARZEA DA PALMA; VARZEA DA PALMA-PJ-02PJ 0,00 0,00 0,00 240,00 0,00 0,00 0,00 0,00 0,00 30/04/2023
950 1409900 CAMILLE DE CARVALHO COELHO ESTAGIARIO GUANHAES; GUANHAES-PJ-02PJ 0,00 0,00 0,00 156,00 0,00 0,00 0,00 0,00 0,00 30/04/2023
951 1340100 CAMILLE MOREIRA CARRILHO SOARES ESTAGIARIO BELO HORIZONTE; GABINETE DE PROCURADOR DE JUSTIÇA - SALA 304 0,00 0,00 0,00 84,00 0,00 0,00 0,00 0,00 0,00 30/04/2023
952 430000 CANDIDA MARINA COSTA ANALISTA DO MP BELO HORIZONTE - COMARCA; DIRET DE INFORMACAO E CONHECIMENTO-DINC/CEAF 1.500,00 0,00 578,00 0,00 0,00 0,00 0,00 0,00 0,00 30/04/2023
953 614300 CARINA CORTIELHA OFICIAL DO MP BELO HORIZONTE - COMARCA; BH-23PJ CIVEL-FISC AC POL PUB I 1.500,00 0,00 578,00 0,00 900,09 0,00 0,00 0,00 82,51 30/04/2023
954 380400 CARINA DIAS FACANHA DE SOUZA ANALISTA DO MP SANTA RITA DO SAPUCAÍ - COMARCA; SANTA RITA DO SAPUCAI-PJ-01PJ 1.500,00 950,00 578,00 0,00 4.867,42 0,00 0,00 0,00 446,18 30/04/2023
955 1569700 CARINE RIBEIRO MENDES ESTAGIARIO MONTES CLAROS; MONTES CLAROS-PJ-17PJ 0,00 0,00 0,00 228,00 0,00 0,00 0,00 0,00 0,00 30/04/2023
956 255000 CARLA ADRIANA DE MENEZES OFICIAL DO MP BELO HORIZONTE - COMARCA; CENT DE APOIO TEC-SETOR DEF,IDOSO E INFANC 1.500,00 0,00 578,00 0,00 0,00 0,00 0,00 0,00 0,00 30/04/2023
957 425100 CARLA ADRIANA DINIZ AMARAL OFICIAL DO MP CONTAGEM - COMARCA; CONTAGEM-PJ-SECRETARIA 1.500,00 0,00 578,00 0,00 0,00 0,00 0,00 0,00 0,00 30/04/2023
958 508100 CARLA ALESSANDRA FONSECA ANALISTA DO MP BELO HORIZONTE - COMARCA; CAO-ORDEM ECONOMICA E TRIBUTARIA-SECRETARIA 1.500,00 0,00 578,00 0,00 0,00 0,00 0,00 0,00 0,00 30/04/2023
959 607100 CARLA ANGELICA DIAS MIRANDA OFICIAL DO MP SANTA LUZIA - COMARCA; SANTA LUZIA-PJ-SECRETARIA 1.500,00 0,00 578,00 0,00 0,00 0,00 0,00 0,00 0,00 30/04/2023
960 351500 CARLA APARECIDA MENDES RAMIRIO OFICIAL DO MP PASSOS - COMARCA; PASSOS-PJ-01PJ 1.500,00 0,00 578,00 0,00 3.209,34 0,00 0,00 0,00 294,19 30/04/2023
961 1508200 CARLA CRISTINA REIS ESTAGIARIO CANDEIAS; CANDEIAS-PJ-UNPJ 0,00 0,00 0,00 240,00 0,00 0,00 0,00 0,00 0,00 30/04/2023
962 1599900 CARLA DANIELE COIMBRA ESTAGIARIO TRES PONTAS; TRES PONTAS-PJ-01PJ 0,00 0,00 0,00 108,00 0,00 0,00 0,00 0,00 0,00 30/04/2023
963 713100 CARLA DOS SANTOS SOUZA ASSESSOR PROMOTOR JUSTICA ESPERA FELIZ - COMARCA; ESPERA FELIZ-PJ-UNPJ 1.500,00 0,00 578,00 0,00 0,00 0,00 0,00 0,00 0,00 30/04/2023
964 1498400 CARLA EDUARDA DA SILVA MONCAO ESTAGIARIO MONTES CLAROS; MONTES CLAROS-PJ-17PJ 0,00 0,00 0,00 240,00 0,00 0,00 0,00 0,00 0,00 30/04/2023
965 442800 CARLA GONCALVES COSTA SOALHEIRO ANALISTA DO MP GOVERNADOR VALADARES - COMARCA; GOVERNADOR VALADARES-PJ-11PJ 1.500,00 950,00 578,00 0,00 0,00 0,00 0,00 0,00 0,00 30/04/2023
966 321500 CARLA GONCALVES MASSOTE OFICIAL DO MP CAMPO BELO - COMARCA; CAMPO BELO-PJ-02PJ 1.500,00 0,00 578,00 0,00 0,00 0,00 0,00 0,00 0,00 30/04/2023
967 429200 CARLA HAUTEQUESTT BECHARA ANALISTA DO MP BELO HORIZONTE - COMARCA; DIRET DE INFORMACAO E CONHECIMENTO-DINC/CEAF 1.500,00 0,00 578,00 0,00 0,00 0,00 0,00 0,00 0,00 30/04/2023
968 157400 CARLA MARIA ALESSI LAFETA DE CARVALHO PROMOT.ENTRANC.ESPECIAL BELO HORIZONTE - COMARCA; BH-02PJ FAMILIA-GAB 029PJ 1.500,00 0,00 3.460,45 0,00 0,00 0,00 0,00 0,00 0,00 30/04/2023
969 1594000 CARLA MARTINS SOUZA ESTAGIARIO CONTAGEM; CONTAGEM-PJ-12PJ 0,00 0,00 0,00 204,00 0,00 0,00 0,00 0,00 0,00 30/04/2023
970 247500 CARLA MATILDE GUIMARAES DE OLIVEIRA OFICIAL DO MP ITAJUBA - COMARCA; ITAJUBA-PJ-SECRETARIA 1.500,00 0,00 578,00 0,00 0,00 0,00 0,00 0,00 0,00 30/04/2023
971 226100 CARLA MERLI DA CONCEICAO ANALISTA DO MP BELO HORIZONTE - COMARCA; CENTRAL DE APOIO TECNICO-SETOR CONTABIL 1.500,00 0,00 578,00 0,00 5.167,75 0,00 0,00 0,00 473,71 30/04/2023
972 685700 CARLA PRISCILLA PEREIRA VIANA PROMOTOR SUBSTITUTO GOVERNADOR VALADARES - COMARCA; GOVERNADOR VALADARES-PJ-05PJ 1.500,00 0,00 835,75 0,00 16.114,35 0,00 0,00 0,00 492,38 30/04/2023
973 343100 CARLA REGINA GOULART SALARO DUVANEL PROMOT.ENTRANC.ESPECIAL GOVERNADOR VALADARES - COMARCA; GOVERNADOR VALADARES-PJ-06PJ 1.500,00 0,00 1.519,54 0,00 23.806,97 0,00 0,00 0,00 545,58 30/04/2023
974 1402100 CARLA ROBERTA MONTEIRO NASCIMENTO ESTAGIARIO BELO HORIZONTE; BH-13PJ JUIZO DE TOXICOS-COORD PJ 0,00 0,00 0,00 180,00 0,00 0,00 0,00 0,00 0,00 30/04/2023
975 532600 CARLA RODRIGUES FAZUOLI PROMOTOR 2A ENTRANCIA SACRAMENTO - COMARCA; SACRAMENTO-PJ-02PJ 1.500,00 0,00 3.392,49 0,00 0,00 0,00 0,00 0,00 0,00 30/04/2023
976 1474200 CARLEUGENIA ROCHA GOMES ESTAGIARIO OURO PRETO; OURO PRETO-PJ-04PJ 0,00 0,00 0,00 240,00 0,00 0,00 0,00 0,00 0,00 30/04/2023
977 181401 CARLO MICHEL GAUDENSI COELHO ANALISTA DO MP BELO HORIZONTE - COMARCA; BH-08PJ JUIZADO ESPECIAL-SECRETARIA 1.500,00 0,00 578,00 0,00 5.899,83 0,00 0,00 0,00 540,82 30/04/2023
978 634000 CARLOS ALBERTO AMORMINO TRIGUEIRO ANALISTA DO MP BELO HORIZONTE - COMARCA; DIRET DE APOIO AS PROCURADORIAS DE JUSTICA 1.500,00 950,00 578,00 0,00 0,00 0,00 0,00 0,00 0,00 30/04/2023
979 232300 CARLOS ALBERTO DA SILVEIRA ISOLDI FILHO PROMOT.ENTRANC.ESPECIAL BELO HORIZONTE - COMARCA; CORREGEDORIA-GERAL-ASSESSORIA 1.500,00 0,00 3.571,05 0,00 26.555,40 0,00 0,00 0,00 608,56 30/04/2023
980 637900 CARLOS ALBERTO DE MOURA OFICIAL DO MP SETE LAGOAS - COMARCA; SETE LAGOAS-PJ-07PJ 1.500,00 0,00 578,00 0,00 0,00 0,00 0,00 0,00 0,00 30/04/2023
981 638700 CARLOS ALBERTO FERREIRA BRAGA ANALISTA DO MP VESPASIANO - COMARCA; VESPASIANO-PJ-06PJ 1.500,00 0,00 578,00 0,00 0,00 0,00 0,00 0,00 0,00 30/04/2023
982 54400 CARLOS ALBERTO RIBEIRO MOREIRA PROMOTOR 2A ENTRANCIA LAVRAS - COMARCA; LAVRAS-PJ-02PJ 1.500,00 0,00 3.039,08 0,00 32.064,01 0,00 0,00 0,00 734,80 30/04/2023
983 375801 CARLOS ALBERTO ROCHA ANALISTA DO MP VARGINHA - COMARCA; GAECO REGIONAL DE VARGINHA 1.500,00 950,00 578,00 0,00 0,00 0,00 0,00 0,00 0,00 30/04/2023
984 110700 CARLOS ALBERTO VALERA PROMOT.ENTRANC.ESPECIAL UBERABA - COMARCA; UBERABA-PJ-08PJ 1.500,00 0,00 1.392,91 0,00 27.767,28 0,00 0,00 0,00 636,33 30/04/2023
985 94200 CARLOS ANDRE MARIANI BITTENCOURT PROCURADOR DE JUSTICA BELO HORIZONTE - COMARCA; PROCURADORIA-GERAL ADJUNTA INSTITUCIONAL 1.500,00 0,00 3.759,00 0,00 24.048,01 0,00 0,00 0,00 734,80 30/04/2023
986 462800 CARLOS ANDREI SOARES FAGUNDES ANALISTA DO MP MONTES CLAROS - COMARCA; MONTES CLAROS-PJ-09PJ 1.500,00 0,00 578,00 0,00 0,00 0,00 0,00 0,00 0,00 30/04/2023
987 370300 CARLOS AUGUSTO BUENO DIAS ASSESSOR ADMINISTRATIVO IV BELO HORIZONTE - COMARCA; SUPERINTENDÊNCIA DE ENGENHARIA E ARQUITETURA 1.500,00 0,00 578,00 0,00 0,00 0,00 0,00 0,00 0,00 30/04/2023
988 66200 CARLOS AUGUSTO CANEDO GONCALVES DA SILVA PROCURADOR DE JUSTICA BELO HORIZONTE - COMARCA; GABINETE DE PROCURADOR DE JUSTIÇA - SALA 911 1.500,00 0,00 3.759,00 0,00 8.016,00 0,00 0,00 0,00 23.288,78 30/04/2023
989 83200 CARLOS AUGUSTO ESTEVES DE CARVALHO PROMOT.ENTRANC.ESPECIAL JUIZ DE FORA - COMARCA; JUIZ DE FORA-PJ-16PJ 1.500,00 0,00 2.279,31 0,00 32.064,01 0,00 0,00 0,00 734,80 30/04/2023
990 143500 CARLOS AUGUSTO GOMES BRAGA PROMOT.ENTRANC.ESPECIAL BELO HORIZONTE - COMARCA; BH-03PJ EMPRESARIAL-GAB 036PJ 1.500,00 0,00 3.571,05 0,00 22.213,82 0,00 0,00 0,00 636,33 30/04/2023
991 110800 CARLOS CESAR MARQUES LUZ PROMOTOR 1A ENTRANCIA JACUTINGA - COMARCA; JACUTINGA-PJ-UNPJ 1.500,00 0,00 1.314,93 0,00 30.532,15 0,00 0,00 0,00 699,70 30/04/2023
992 505100 CARLOS CEZAR CARVALHO ANALISTA DO MP CONTAGEM - COMARCA; CONTAGEM-PJ-02PJ 1.500,00 0,00 578,00 0,00 0,00 0,00 0,00 0,00 0,00 30/04/2023
993 344300 CARLOS EDUARDO AVANZI DE ALMEIDA PROMOTOR 2A ENTRANCIA CAMPO BELO - COMARCA; CAMPO BELO-PJ-03PJ 1.500,00 0,00 3.392,49 0,00 22.616,63 0,00 0,00 0,00 518,30 30/04/2023
994 196800 CARLOS EDUARDO DE OLIVEIRA MARINHO OFICIAL DO MP ALPINÓPOLIS - COMARCA; ALPINOPOLIS-PJ-UNPJ 1.500,00 0,00 578,00 0,00 5.806,26 0,00 0,00 0,00 532,24 30/04/2023
995 1485700 CARLOS EDUARDO DOS SANTOS WALTER ESTAGIARIO BETIM; BETIM-PJ-09PJ 0,00 0,00 0,00 240,00 0,00 0,00 0,00 0,00 0,00 30/04/2023
996 157500 CARLOS EDUARDO DUTRA PIRES PROMOT.ENTRANC.ESPECIAL SETE LAGOAS - COMARCA; SETE LAGOAS-PJ-02PJ 1.500,00 0,00 2.405,94 0,00 32.064,01 0,00 0,00 0,00 734,80 30/04/2023
997 483200 CARLOS EDUARDO FERNANDES NEVES RIBEIRO PROMOT.ENTRANC.ESPECIAL BARBACENA - COMARCA; BARBACENA-PJ-08PJ 1.500,00 0,00 3.571,05 0,00 23.806,97 0,00 0,00 0,00 545,58 30/04/2023
998 315400 CARLOS EDUARDO FERREIRA PINTO PROMOT.ENTRANC.ESPECIAL BELO HORIZONTE - COMARCA; CAO-MEIO AMBIENTE 1.500,00 0,00 2.633,87 0,00 17.855,23 0,00 0,00 0,00 15.581,56 30/04/2023
999 1521100 CARLOS EDUARDO FRANKLIN DOS SANTOS ESTAGIARIO 0,00 0,00 0,00 240,00 0,00 0,00 0,00 0,00 0,00 30/04/2023
1000 1549300 CARLOS EDUARDO LACERDA LOPES ESTAGIARIO NOVA SERRANA; NOVA SERRANA-PJ-01PJ 0,00 0,00 0,00 240,00 0,00 0,00 0,00 0,00 0,00 30/04/2023
1001 55300 CARLOS EDUARDO MAFRA CAVALCANTI PROCURADOR DE JUSTICA BELO HORIZONTE - COMARCA; GABINETE DE PROCURADOR DE JUSTIÇA - SALA 503 1.500,00 0,00 3.039,08 0,00 20.841,60 0,00 0,00 0,00 734,80 30/04/2023
1002 650800 CARLOS EDUARDO NIZA DA SILVA OFICIAL DO MP IGARAPÉ - COMARCA; IGARAPE-PJ-01PJ 1.500,00 950,00 578,00 0,00 0,00 0,00 0,00 0,00 0,00 30/04/2023
1003 491800 CARLOS EDUARDO ROMAN OFICIAL DO MP BARBACENA - COMARCA; BARBACENA-PJ-09PJ 1.500,00 0,00 578,00 0,00 0,00 0,00 0,00 0,00 0,00 30/04/2023
1004 1333500 CARLOS EDUARDO SANTOS DIAS ESTAGIARIO ALMENARA; ALMENARA-PJ-01PJ 0,00 0,00 0,00 240,00 0,00 0,00 0,00 0,00 0,00 30/04/2023
1005 157600 CARLOS EUGENIO SOUTO MAIOR FILIZOLA JUNIOR PROMOT.ENTRANC.ESPECIAL BELO HORIZONTE - COMARCA; BH-07PJ 03 TRIBUNAL DO JURI-GAB 061PJ 1.500,00 0,00 0,00 0,00 7.946,51 0,00 0,00 0,00 0,00 30/04/2023
1006 299300 CARLOS HENRIQUE BICALHO ANALISTA DO MP BELO HORIZONTE - COMARCA; BH-17PJ PATRIMONIO PUBLICO-SECRETARIA 1.500,00 950,00 578,00 0,00 5.536,88 0,00 0,00 0,00 507,55 30/04/2023
1007 205100 CARLOS HENRIQUE ESTEVES OFICIAL DO MP ITAMBACURI - COMARCA; ITAMBACURI-PJ-01PJ 1.500,00 0,00 578,00 0,00 0,00 0,00 0,00 0,00 0,00 30/04/2023
1008 351600 CARLOS HENRIQUE FELICIO DA FONSECA OFICIAL DO MP JUIZ DE FORA - COMARCA; JUIZ DE FORA-PJ-21PJ 1.500,00 0,00 578,00 0,00 0,00 0,00 0,00 0,00 0,00 30/04/2023
1009 1598200 CARLOS HENRIQUE GOULART DIAS ESTAGIARIO VARGINHA; VARGINHA-PJ-02PJ 0,00 0,00 0,00 156,00 0,00 0,00 0,00 0,00 0,00 30/04/2023
1010 1473800 CARLOS HENRIQUE PEREIRA DA SILVA ESTAGIARIO CARATINGA; CARATINGA-PJ-06PJ 0,00 0,00 0,00 228,00 0,00 0,00 0,00 0,00 0,00 30/04/2023
1011 729100 CARLOS HENRIQUE TEIXEIRA BRAGA ASSESSOR ADMINISTRATIVO II BELO HORIZONTE - COMARCA; DIRETORIA DE SUPORTE E MANUTENCAO 1.500,00 0,00 578,00 0,00 0,00 0,00 0,00 0,00 0,00 30/04/2023
1012 210900 CARLOS HENRIQUE TORRES DE SOUZA PROMOT.ENTRANC.ESPECIAL BELO HORIZONTE - COMARCA; BH-06PJ JUIZO CIVEL-GAB 055PJ 1.500,00 0,00 3.571,05 0,00 19.916,55 0,00 0,00 0,00 608,56 30/04/2023
1013 104600 CARLOS JOSE E SILVA FORTES PROMOT.ENTRANC.ESPECIAL DIVINÓPOLIS - COMARCA; DIVINOPOLIS-PJ-06PJ 1.500,00 0,00 3.064,40 0,00 20.645,73 0,00 0,00 0,00 630,84 30/04/2023
1014 85400 CARLOS JOSE VIEIRA OFICIAL DO MP BELO HORIZONTE - COMARCA; DIRETORIA DO COLEGIO E DA CAMARA DE PJ 1.500,00 0,00 578,00 0,00 5.206,23 0,00 0,00 0,00 477,24 30/04/2023
1015 1298700 CARLOS MAGNO DE ASSIS DUTRA ESTAGIARIO NOVA SERRANA; NOVA SERRANA-PJ-03PJ 0,00 0,00 0,00 240,00 0,00 0,00 0,00 0,00 0,00 30/04/2023
1016 229100 CARLOS MERCES DE OLIVEIRA ANALISTA DO MP BELO HORIZONTE - COMARCA; CENTRAL DE APOIO TECN-SETOR DE MEIO AMBIENTE 1.500,00 0,00 578,00 0,00 0,00 0,00 0,00 0,00 0,00 30/04/2023
1017 538300 CARLOS RANGEL SILVA DE MELO ANALISTA DO MP BELO HORIZONTE - COMARCA; DIVISAO DE CONTROLE IMOBILIARIO 1.500,00 1.900,00 578,00 0,00 0,00 0,00 0,00 0,00 0,00 30/04/2023
1018 265100 CARLOS REIFF MIRANDA ANALISTA DO MP BELO HORIZONTE - COMARCA; BH-19PJ SAUDE-SECRETARIA 150PJ 1.500,00 0,00 578,00 0,00 0,00 0,00 0,00 0,00 0,00 30/04/2023
1019 305400 CARLOS ROCHA DE SOUZA OFICIAL DO MP MONTALVÂNIA - COMARCA; MONTALVANIA-PJ-SECRETARIA 1.500,00 0,00 578,00 0,00 0,00 1.015,58 0,00 0,00 0,00 30/04/2023
1020 371600 CARLOS SAMUEL BORGES CUNHA PROMOT.ENTRANC.ESPECIAL BARBACENA - COMARCA; BARBACENA-PJ-07PJ 1.500,00 0,00 1.899,43 0,00 23.806,97 0,00 0,00 0,00 545,58 30/04/2023
1021 1436300 CARLOS VINICIUS JOTA COSTA ESTAGIARIO BELO HORIZONTE; GABINETE DE PROCURADOR DE JUSTIÇA - SALA 912 0,00 0,00 0,00 24,00 0,00 0,00 0,00 0,00 0,00 30/04/2023
1022 293400 CARLOS WILDE RIBEIRO DE MELLO PROMOT.ENTRANC.ESPECIAL JUIZ DE FORA - COMARCA; JUIZ DE FORA-PJ-09PJ 1.500,00 0,00 3.140,38 0,00 14.284,18 0,00 0,00 0,00 545,58 30/04/2023
1023 399900 CARMELITA EVANGELISTA DE SOUZA OFICIAL DO MP JOÃO PINHEIRO - COMARCA; JOAO PINHEIRO-PJ-01PJ 1.500,00 0,00 578,00 0,00 521,23 0,00 0,00 0,00 47,78 30/04/2023
1024 202000 CARMEN LUCIA MARIZ DE MACEDO OFICIAL DO MP BELO HORIZONTE - COMARCA; DIRETORIA GESTAO COMPRAS LICITACOES 1.500,00 0,00 578,00 0,00 4.510,80 0,00 0,00 0,00 413,49 30/04/2023
1025 1581200 CAROLAINE CORREA DA SILVA ESTAGIARIO SAO JOAO NEPOMUCENO; SAO JOAO NEPOMUCENO-PJ-02PJ 0,00 0,00 0,00 240,00 0,00 0,00 0,00 0,00 0,00 30/04/2023
1026 1552000 CAROLAINY KENIA DE SALES ESTAGIARIO PEDRO LEOPOLDO; PEDRO LEOPOLDO-PJ-03PJ 0,00 0,00 0,00 240,00 0,00 0,00 0,00 0,00 0,00 30/04/2023
1027 1312300 CAROLINA ABREU DOS SANTOS ESTAGIARIO SETE LAGOAS; SETE LAGOAS-PJ-01PJ 0,00 0,00 0,00 180,00 0,00 0,00 0,00 0,00 0,00 30/04/2023
1028 1462200 CAROLINA AMANDA DA SILVA ESTAGIARIO BAEPENDI; BAEPENDI-PJ-UNPJ 0,00 0,00 0,00 240,00 0,00 0,00 0,00 0,00 0,00 30/04/2023
1029 1315000 CAROLINA AMARAL OLIVEIRA RODRIGUES ESTAGIARIO MONTES CLAROS; COORD REG SAUDE MACRORREGIAO SANITARIA NORTE 0,00 0,00 0,00 216,00 0,00 0,00 0,00 0,00 0,00 30/04/2023
1030 359700 CAROLINA ANDRADE BORGES DE MATTOS PROMOTOR SUBSTITUTO BICAS - COMARCA; BICAS-PJ-UNPJ 1.500,00 0,00 2.633,87 0,00 10.742,90 0,00 0,00 0,00 492,38 30/04/2023
1031 1404300 CAROLINA BARBOSA GUEDES ESTAGIARIO UBERLANDIA; UBERLANDIA-PJ-05PJ 0,00 0,00 0,00 240,00 0,00 0,00 0,00 0,00 0,00 30/04/2023
1032 1582700 CAROLINA BARCELOS BONTEMPO ESTAGIARIO 0,00 0,00 0,00 204,00 0,00 0,00 0,00 0,00 0,00 30/04/2023
1033 1403600 CAROLINA BEDESCHI CALAIS ESTAGIARIO BELO HORIZONTE; GABINETE DE PROCURADOR DE JUSTIÇA - SALA 707 0,00 0,00 0,00 60,00 0,00 0,00 0,00 0,00 0,00 30/04/2023
1034 1582400 CAROLINA CAETANO OLIVEIRA ESTAGIARIO TEOFILO OTONI; COORD REG APOIO COM INC MOB SOC VALE MUCURI 0,00 0,00 0,00 240,00 0,00 0,00 0,00 0,00 0,00 30/04/2023
1035 701900 CAROLINA CARVALHO COSTA ASSESSOR PROCURADOR JUSTICA BELO HORIZONTE - COMARCA; GABINETE DE PROCURADOR DE JUSTIÇA - SALA 811 1.500,00 0,00 578,00 0,00 0,00 0,00 0,00 0,00 0,00 30/04/2023
1036 611000 CAROLINA CERIGATTO PROMOT.ENTRANC.ESPECIAL GOVERNADOR VALADARES - COMARCA; GOVERNADOR VALADARES-PJ-11PJ 1.500,00 0,00 0,00 0,00 23.806,97 0,00 0,00 0,00 545,58 30/04/2023
1037 228500 CAROLINA CHIARELLA DOS SANTOS RIBEIRO COORDENADOR I BELO HORIZONTE - COMARCA; DIVISAO TRANSPORTES 1.500,00 0,00 578,00 0,00 0,00 0,00 0,00 0,00 0,00 30/04/2023
1038 446500 CAROLINA COSTA VAL RODRIGUES ANALISTA DO MP BELO HORIZONTE - COMARCA; DIVISAO DE MATERIAIS 1.500,00 0,00 578,00 0,00 5.553,49 0,00 0,00 0,00 509,07 30/04/2023
1039 1562300 CAROLINA DA SILVA CUNHA ESTAGIARIO JUIZ DE FORA; JUIZ DE FORA-PJ-06PJ 0,00 0,00 0,00 228,00 0,00 0,00 0,00 0,00 0,00 30/04/2023
1040 1501900 CAROLINA DE CAMARGOS PEREIRA BARCELLOS ESTAGIARIO BELO HORIZONTE; BH-09PJ AUDITORIA MILITAR-GAB 161PJ 0,00 0,00 0,00 240,00 0,00 0,00 0,00 0,00 0,00 30/04/2023
1041 603501 CAROLINA DOMINGOS BRANDAO RABELLO ANALISTA DO MP BARROSO - COMARCA; BARROSO-PJ-01PJ 1.500,00 1.900,00 578,00 0,00 5.974,31 0,00 0,00 0,00 547,65 30/04/2023
1042 404300 CAROLINA DOS SANTOS VIEIRA ANALISTA DO MP BELO HORIZONTE - COMARCA; BH-08PJ JUIZADO ESPECIAL-SECRETARIA 1.500,00 0,00 578,00 0,00 0,00 0,00 0,00 0,00 0,00 30/04/2023
1043 1568200 CAROLINA FERREIRA DE FREITAS ESTAGIARIO PERDOES; PERDOES-PJ-UNPJ 0,00 0,00 0,00 240,00 0,00 0,00 0,00 0,00 0,00 30/04/2023
1044 634600 CAROLINA FRARE LAMEIRINHA PROMOTOR 2A ENTRANCIA PATOS DE MINAS - COMARCA; COORD REG BACIAS PARACATU,URUCUIA E ABAETE 1.500,00 0,00 3.133,82 0,00 0,00 0,00 0,00 0,00 0,00 30/04/2023
1045 405401 CAROLINA GENTIL MEDEIROS MARQUEZ PROMOTOR 2A ENTRANCIA LAGOA SANTA - COMARCA; LAGOA SANTA - 03ª PJ 1.500,00 0,00 3.039,08 0,00 22.616,64 0,00 0,00 0,00 518,30 30/04/2023
1046 551200 CAROLINA LOPES ARANTES MASCARENHAS ANALISTA DO MP BELO HORIZONTE - COMARCA; CAO-VIOLENCIA DOMESTICA E FAMILIAR 1.500,00 0,00 578,00 0,00 543,12 0,00 0,00 0,00 49,79 30/04/2023
1047 622600 CAROLINA LOREDO LOPES CATIZANI OFICIAL DO MP RIBEIRÃO DAS NEVES - COMARCA; RIBEIRAO DAS NEVES-PJ-12PJ 1.500,00 0,00 578,00 0,00 0,00 0,00 0,00 0,00 0,00 30/04/2023
1048 362900 CAROLINA MARQUES ANDRADE PROMOT.ENTRANC.ESPECIAL UBERABA - COMARCA; UBERABA-PJ-16PJ 1.500,00 0,00 3.241,68 0,00 23.806,97 0,00 0,00 0,00 545,58 30/04/2023
1049 1551100 CAROLINA MARTINS VITA ESTAGIARIO BELO HORIZONTE; GABINETE DE PROCURADOR DE JUSTIÇA - SALA 303 0,00 0,00 0,00 240,00 0,00 0,00 0,00 0,00 0,00 30/04/2023
1050 457400 CAROLINA MELO CAMPOS PROMOTOR SUBSTITUTO RIBEIRÃO DAS NEVES - COMARCA; RIBEIRAO DAS NEVES-PJ-10PJ 1.500,00 0,00 1.013,03 0,00 21.485,80 0,00 0,00 0,00 492,38 30/04/2023
1051 382200 CAROLINA MENDES CHAVES LIN ANALISTA DO MP BELO HORIZONTE - COMARCA; BH-12PJ JUIZO CRIMINAL-GAB 088PJ 1.500,00 950,00 578,00 0,00 0,00 0,00 0,00 0,00 0,00 30/04/2023
1052 313600 CAROLINA MENDONCA DE SIQUEIRA PROMOT.ENTRANC.ESPECIAL BETIM - COMARCA; BETIM-PJ-08PJ 1.500,00 0,00 1.519,54 0,00 11.903,48 0,00 0,00 0,00 545,58 30/04/2023
1053 461900 CAROLINA MURTA TEIXEIRA DIAS ANALISTA DO MP BELO HORIZONTE - COMARCA; CENTRO AUTOCOMPOSICAO DE CONFLITOS 1.500,00 0,00 578,00 0,00 0,00 0,00 0,00 0,00 0,00 30/04/2023
1054 509600 CAROLINA PINTO DE OLIVEIRA SOUZA ANALISTA DO MP MURIAÉ - COMARCA; MURIAE-PJ-01PJ 1.500,00 950,00 578,00 0,00 0,00 0,00 0,00 0,00 0,00 30/04/2023
1055 526400 CAROLINA QUEIROZ DE CARVALHO PROMOT.ENTRANC.ESPECIAL CONSELHEIRO LAFAIETE - COMARCA; CONSELHEIRO LAFAIETE-PJ-02PJ 1.500,00 0,00 1.487,04 0,00 17.855,23 0,00 0,00 0,00 545,58 30/04/2023
1056 1412700 CAROLINA REIS SILVA ESTAGIARIO PATOS DE MINAS; PATOS DE MINAS-PJ-04PJ 0,00 0,00 0,00 216,00 0,00 0,00 0,00 0,00 0,00 30/04/2023
1057 667000 CAROLINA RITA TORRES GRUBER PROMOTOR 2A ENTRANCIA SÃO FRANCISCO - COMARCA; SAO FRANCISCO-PJ-01PJ 1.500,00 0,00 1.722,15 0,00 10.177,49 0,00 0,00 0,00 518,30 30/04/2023
1058 629100 CAROLINA RODRIGUES AMARAL ANALISTA DO MP BELO HORIZONTE - COMARCA; PROC. JUSTICA DIR. DIFUSOS E COLETIVOS-SEC 1.500,00 0,00 578,00 0,00 0,00 0,00 0,00 0,00 0,00 30/04/2023
1059 502600 CAROLINA RODRIGUES RUBEN ANALISTA DO MP BELO HORIZONTE - COMARCA; BH-18PJ VIOLENCIA DOMESTICA-GAB 007PJ 1.500,00 1.900,00 578,00 0,00 0,00 0,00 0,00 0,00 0,00 30/04/2023
1060 1561300 CAROLINA TORRES HADDAD ESTAGIARIO JUIZ DE FORA; JUIZ DE FORA-PJ-04PJ 0,00 0,00 0,00 108,00 0,00 0,00 0,00 0,00 0,00 30/04/2023
1061 529600 CAROLINA VAZ DE MELO MAMBRINI ANALISTA DO MP BELO HORIZONTE - COMARCA; BH-14PJ DEFESA CONSUMIDOR-GAB 005PJ 1.500,00 0,00 578,00 0,00 0,00 0,00 0,00 0,00 0,00 30/04/2023
1062 619100 CAROLINA ZAKHIA NARDELLI RODRIGUES ANALISTA DO MP NEPOMUCENO - COMARCA; NEPOMUCENO-PJ-UNPJ 1.500,00 950,00 578,00 0,00 0,00 0,00 0,00 0,00 0,00 30/04/2023
1063 517600 CAROLINE ALVES DE OLIVEIRA MULLER ANALISTA DO MP VISCONDE DO RIO BRANCO - COMARCA; VISCONDE DO RIO BRANCO-PJ-01PJ 1.500,00 0,00 578,00 0,00 0,00 0,00 0,00 0,00 0,00 30/04/2023
1064 373200 CAROLINE ANTUNES RIBEIRO OFICIAL DO MP JACUI - COMARCA; JACUI-PJ-UNPJ 1.500,00 0,00 578,00 0,00 0,00 0,00 0,00 0,00 0,00 30/04/2023
1065 1560800 CAROLINE BORGES ASSUNCAO ESTAGIARIO ITAPAGIPE; ITAPAGIPE-PJ-UNPJ 0,00 0,00 0,00 240,00 0,00 0,00 0,00 0,00 0,00 30/04/2023
1066 723500 CAROLINE CORDEIRO FERNANDES MACHADO ASSESSOR PROMOTOR JUSTICA BELO HORIZONTE - COMARCA; COORD DE INCLUSAO E MOBILIZACAO SOCIAIS 1.500,00 0,00 578,00 0,00 0,00 0,00 0,00 0,00 0,00 30/04/2023
1067 556800 CAROLINE DE SOUZA CARDOSO DOMINGUES OFICIAL DO MP BRASÍLIA DE MINAS - COMARCA; BRASILIA DE MINAS-PJ-02PJ 1.500,00 0,00 578,00 0,00 0,00 0,00 0,00 0,00 0,00 30/04/2023
1068 1585300 CAROLINE DO VALLE SILVA ESTAGIARIO JUIZ DE FORA; JUIZ DE FORA-PJ-02PJ 0,00 0,00 0,00 240,00 0,00 0,00 0,00 0,00 0,00 30/04/2023
1069 1561500 CAROLINE DOS SANTOS LOURENCO ESTAGIARIO SAO LOURENCO; SAO LOURENCO-PJ-04PJ 0,00 0,00 0,00 240,00 0,00 0,00 0,00 0,00 0,00 30/04/2023
1070 1540100 CAROLINE FERNANDA ALVES SOUSA ESTAGIARIO ITAUNA; ITAUNA-PJ-01PJ 0,00 0,00 0,00 240,00 0,00 0,00 0,00 0,00 0,00 30/04/2023
1071 1448200 CAROLINE GONCALVES CARVALHO ESTAGIARIO PAINS; ALFENAS-PJ-06PJ 0,00 0,00 0,00 228,00 0,00 0,00 0,00 0,00 0,00 30/04/2023
1072 1428300 CAROLINE GUIMARAES DAMASCENO ESTAGIARIO SANTA LUZIA; SANTA LUZIA-PJ-01PJ 0,00 0,00 0,00 252,00 0,00 0,00 0,00 0,00 41,67 30/04/2023
1073 1498300 CAROLINE LIMA LOIOLA ESTAGIARIO GOVERNADOR VALADARES; GOVERNADOR VALADARES-PJ-08PJ 0,00 0,00 0,00 240,00 0,00 0,00 0,00 0,00 0,00 30/04/2023
1074 499400 CAROLINE MARQUES DE LOURDES MARZULLO OFICIAL DO MP JUIZ DE FORA - COMARCA; JUIZ DE FORA-PJ-08PJ 1.500,00 1.425,00 578,00 0,00 0,00 0,00 0,00 0,00 0,00 30/04/2023
1075 616800 CAROLINE MONTEIRO DE BARROS ANALISTA DO MP CONTAGEM - COMARCA; CONTAGEM-PJ-11PJ 1.500,00 950,00 578,00 0,00 0,00 0,00 0,00 0,00 0,00 30/04/2023
1076 1458900 CAROLINE NOGUEIRA SPINDOLA ESTAGIARIO GRAO MOGOL; GRAO MOGOL-PJ-UNPJ 0,00 0,00 0,00 240,00 0,00 0,00 0,00 0,00 0,00 30/04/2023
1077 1395700 CAROLINE OLIVEIRA MOREIRA DOS SANTOS ESTAGIARIO IBIRITE; IBIRITE-PJ-03PJ 0,00 0,00 0,00 228,00 0,00 0,00 0,00 0,00 0,00 30/04/2023
1078 1401200 CAROLINE ORLETTI GUARISE ESTAGIARIO GOVERNADOR VALADARES; GOVERNADOR VALADARES-PJ-01PJ 0,00 0,00 0,00 192,00 0,00 0,00 0,00 0,00 0,00 30/04/2023
1079 342500 CAROLINE PESTANA GOMES PROMOT.ENTRANC.ESPECIAL VESPASIANO - COMARCA; VESPASIANO-PJ-06PJ 1.500,00 0,00 3.571,05 0,00 23.806,96 0,00 0,00 0,00 545,58 30/04/2023
1080 1368000 CAROLINE SILVA LOPES ESTAGIARIO BELO HORIZONTE; PROC JUSTICA DIR DIFUSOS E COLETIVOS-GAB004
1081 618100 CAROLINE VASCONCELOS COSTA LANZA ANALISTA DO MP PARAOPEBA - COMARCA; PARAOPEBA-PJ-UNPJ 1.500,00 1.900,00 578,00 0,00 0,00 0,00 0,00 0,00 0,00 30/04/2023
1082 699000 CAROLLINA RODRIGUES SOUTO AMARAL ASSESSOR PROCURADOR JUSTICA BELO HORIZONTE - COMARCA; GABINETE DE PROCURADOR DE JUSTIÇA - SALA 405 1.500,00 0,00 578,00 0,00 0,00 0,00 0,00 0,00 0,00 30/04/2023
1083 210600 CASSANDRA DA CONCEICAO DANTAS SERRAO PROMOT.ENTRANC.ESPECIAL BELO HORIZONTE - COMARCA; BH-02PJ FAMILIA-GAB 026PJ 1.500,00 0,00 2.178,00 0,00 10.072,48 0,00 0,00 0,00 577,07 30/04/2023
1084 604000 CASSIA APARECIDA DA SILVA OFICIAL DO MP PARACATU - COMARCA; PARACATU-PJ-01PJ 1.500,00 0,00 578,00 0,00 0,00 0,00 0,00 0,00 0,00 30/04/2023
1085 268800 CASSIA BEATRIZ TEIXEIRA OFICIAL DO MP BELO HORIZONTE - COMARCA; PROC. JUSTICA DE HABEAS CORPUS 1.500,00 0,00 578,00 0,00 5.434,64 0,00 0,00 0,00 498,18 30/04/2023
1086 500000 CASSIA DE OLIVEIRA COSTA VIANA ANALISTA DO MP SETE LAGOAS - COMARCA; SETE LAGOAS-PJ-09PJ 1.500,00 0,00 578,00 0,00 0,00 0,00 0,00 0,00 0,00 30/04/2023
1087 368800 CASSIA LUISA BATISTA MENDONCA WEBER COORDENADOR II BELO HORIZONTE - COMARCA; DIVISÃO DE EDUCAÇÃO PARA O CONSUMO 1.500,00 0,00 578,00 0,00 5.338,75 0,00 0,00 0,00 489,39 30/04/2023
1088 622200 CASSIA VAZ DE AZEVEDO LISBOA MARZANO ASSESSOR ADMINISTRATIVO III BELO HORIZONTE - COMARCA; CGMP-DIR ESTAGIO PROBATORIO E ORIENT 1.500,00 0,00 578,00 0,00 0,00 0,00 0,00 0,00 0,00 30/04/2023
1089 156100 CASSIA VIRGINIA SERRA TEIXEIRA GONTIJO PROCURADOR DE JUSTICA BELO HORIZONTE - COMARCA; GABINETE DE PROCURADOR DE JUSTIÇA - SALA 804 1.500,00 0,00 2.912,45 0,00 16.032,00 0,00 0,00 0,00 734,80 30/04/2023
1090 1532800 CASSIO BRAGA DOS SANTOS ESTAGIARIO JOAO PINHEIRO; JOAO PINHEIRO-PJ-01PJ 0,00 0,00 0,00 240,00 0,00 0,00 0,00 0,00 0,00 30/04/2023
1091 1527300 CASSIO DA SILVA COSTA MOREIRA ESTAGIARIO MATEUS LEME; MATEUS LEME-PJ-02PJ 0,00 0,00 0,00 216,00 0,00 0,00 0,00 0,00 0,00 30/04/2023
1092 121000 CASSIO HENRIQUE AFONSO DA SILVA OFICIAL DO MP BELO HORIZONTE - COMARCA; CGMP-ASSESSORIA TECNICA 1.500,00 0,00 578,00 0,00 4.510,80 0,00 0,00 0,00 413,49 30/04/2023
1093 1374800 CASSIO LUCAS RIBAS NUNES ESTAGIARIO SAO LOURENCO; SAO LOURENCO-PJ-03PJ 0,00 0,00 0,00 240,00 0,00 0,00 0,00 0,00 0,00 30/04/2023
1094 1575700 CASSIO RIBAS VIEIRA ESTAGIARIO TEOFILO OTONI; TEOFILO OTONI-PJ-06PJ 0,00 0,00 0,00 240,00 0,00 0,00 0,00 0,00 0,00 30/04/2023
1095 512001 CATARINA NATALINO CALIXTO COORDENADOR II BELO HORIZONTE - COMARCA; DIRETORIA GESTAO TRANSPORTES 1.500,00 950,00 578,00 0,00 0,00 0,00 0,00 0,00 0,00 30/04/2023
1096 606200 CATARINE DE SIQUEIRA DE QUADROS ANALISTA DO MP CONTAGEM - COMARCA; CONTAGEM-PJ-08PJ 1.500,00 950,00 578,00 0,00 0,00 0,00 0,00 0,00 0,00 30/04/2023
1097 1592300 CATHARINA VENANCIO COSTA ESTAGIARIO BELO HORIZONTE; BH-12PJ JUIZO CRIMINAL-GAB 086PJ 0,00 0,00 0,00 240,00 0,00 0,00 0,00 0,00 0,00 30/04/2023
1098 1557900 CATHARINE VIEIRA CORDEIRO ESTAGIARIO BELO HORIZONTE; GABINETE DE PROCURADOR DE JUSTIÇA - SALA 911
1099 622300 CECILIA APARECIDA PEREIRA ASSUNCAO OFICIAL DO MP TRÊS PONTAS - COMARCA; TRES PONTAS-PJ-SECRETARIA 1.500,00 950,00 578,00 0,00 0,00 0,00 0,00 0,00 0,00 30/04/2023
1100 1602200 CECILIA ARAUJO DE FREITAS ESTAGIARIO BELO HORIZONTE; COORD DE INCLUSAO E MOBILIZACAO SOCIAIS 0,00 0,00 0,00 72,00 0,00 0,00 0,00 0,00 0,00 30/04/2023
1101 538000 CECILIA FONTES DE MATOS PIMENTEL ANALISTA DO MP PALMA - COMARCA; PALMA-PJ-UNPJ 1.500,00 950,00 578,00 0,00 0,00 0,00 0,00 0,00 0,00 30/04/2023
1102 1520200 CECILIA GIAMMINONNI BARBOSA OZOLIO ESTAGIARIO BELO HORIZONTE; ASSESSORIA ESPECIAL DO PGJ 0,00 0,00 0,00 240,00 0,00 0,00 0,00 0,00 0,00 30/04/2023
1103 261300 CECILIO ANTONIO CAMPOS DOS REIS ANALISTA DO MP BELO HORIZONTE - COMARCA; AUDITORIA INTERNA 1.500,00 0,00 578,00 0,00 0,00 0,00 0,00 0,00 0,00 30/04/2023
1104 386400 CEFAS AMORELI DE FIGUEIREDO OFICIAL DO MP CABO VERDE - COMARCA; CABO VERDE-PJ-SECRETARIA 1.500,00 0,00 578,00 0,00 0,00 0,00 0,00 0,00 0,00 30/04/2023
1105 105600 CELIA BEATRIZ GOMES DOS SANTOS PROCURADOR DE JUSTICA BELO HORIZONTE - COMARCA; PROC JUSTICA DIR DIFUSOS E COLETIVOS-GAB006 1.500,00 0,00 2.000,73 0,00 32.064,01 0,00 0,00 0,00 734,80 30/04/2023
1106 421000 CELINA BENEDITA DE SOUZA ALMEIDA OFICIAL DO MP CAMBUÍ - COMARCA; CAMBUI-PJ-01PJ 1.500,00 0,00 578,00 0,00 762,45 0,00 0,00 0,00 69,89 30/04/2023
1107 1515400 CELINA MARINHO CURTINHAS ESTAGIARIO 0,00 0,00 0,00 240,00 0,00 0,00 0,00 0,00 0,00 30/04/2023
1108 1365700 CELIO AUGUSTO SANTOS RODRIGUES ESTAGIARIO PEDRA AZUL; PEDRA AZUL-PJ-01PJ 0,00 0,00 0,00 240,00 0,00 0,00 0,00 0,00 0,00 30/04/2023
1109 252900 CELIO DE MELO CASTOR ANALISTA DO MP BELO HORIZONTE - COMARCA; DIVISAO FROTA 1.500,00 0,00 578,00 0,00 0,00 0,00 0,00 0,00 0,00 30/04/2023
1110 486300 CELIO DIMAS ESTEVES RUAS PROMOT.ENTRANC.ESPECIAL CORONEL FABRICIANO - COMARCA; CORONEL FABRICIANO-PJ-02PJ 1.500,00 0,00 3.571,05 0,00 17.855,23 0,00 0,00 0,00 545,58 30/04/2023
1111 395700 CELIO FERREIRA LIMA OFICIAL DO MP CONTAGEM - COMARCA; CONTAGEM-PJ-SECRETARIA 1.500,00 0,00 578,00 0,00 0,00 0,00 0,00 0,00 1.195,44 30/04/2023
1112 281300 CELMA REGINA PEREIRA SANTOS ANALISTA DO MP BELO HORIZONTE - COMARCA; PROMOT ESTADUAL DE DEF PATRI CULT E TUR DE MG 1.500,00 0,00 578,00 0,00 0,00 0,00 0,00 0,00 0,00 30/04/2023
1113 535600 CELSO MEDEIROS DE PAIVA OFICIAL DO MP RIO PRETO - COMARCA; RIO PRETO-PJ-SECRETARIA 1.500,00 0,00 578,00 0,00 0,00 181,05 0,00 0,00 0,00 30/04/2023
1114 157700 CELSO PENNA FERNANDES JUNIOR PROMOT.ENTRANC.ESPECIAL BELO HORIZONTE - COMARCA; BH-23PJ CIVEL-GAB 162PJ 1.500,00 0,00 2.912,45 0,00 24.048,00 0,00 0,00 0,00 734,80 30/04/2023
1115 93700 CESAR ANTONIO COSSI PROCURADOR DE JUSTICA BELO HORIZONTE - COMARCA; GABINETE DE PROCURADOR DE JUSTIÇA - SALA 805 1.500,00 0,00 3.089,73 0,00 8.016,00 0,00 0,00 0,00 734,80 30/04/2023
1116 293100 CESAR ANTONIO DE LIMA PROMOT.ENTRANC.ESPECIAL POÇOS DE CALDAS - COMARCA; POCOS DE CALDAS-PJ-03PJ 1.500,00 0,00 3.201,63 0,00 11.903,49 0,00 0,00 0,00 0,00 30/04/2023
1117 293800 CESAR AUGUSTO DOS SANTOS PROMOT.ENTRANC.ESPECIAL BELO HORIZONTE - COMARCA; BH-12PJ JUIZO CRIMINAL-GAB 091PJ 1.500,00 0,00 1.063,68 0,00 17.855,23 0,00 0,00 0,00 545,58 30/04/2023
1118 367000 CESAR NARVAES DE AVELAR OFICIAL DO MP BELO HORIZONTE - COMARCA; DIRET DE INFORMACAO E CONHECIMENTO-DINC/CEAF 1.500,00 0,00 578,00 0,00 0,00 0,00 0,00 0,00 0,00 30/04/2023
1119 1492600 CESAR OTAVIO VIEIRA DA SILVA ESTAGIARIO PERDOES; PERDOES-PJ-UNPJ 0,00 0,00 0,00 240,00 0,00 0,00 0,00 0,00 0,00 30/04/2023
1120 226500 CESAR SILVEIRA BARROUIN OFICIAL DO MP BELO HORIZONTE - COMARCA; DIRETORIA DE ADMINISTRACAO FINANCEIRA 1.500,00 0,00 578,00 0,00 5.267,70 0,00 0,00 0,00 482,87 30/04/2023
1121 293500 CESAR YOSHIKAWA PROMOT.ENTRANC.ESPECIAL BELO HORIZONTE - COMARCA; BH-12PJ JUIZO CRIMINAL-GAB 083PJ 1.500,00 0,00 2.836,47 0,00 13.093,83 0,00 0,00 0,00 545,58 30/04/2023
1122 121400 CEZAR MORENO CONCEICAO TAVARES OFICIAL DO MP BELO HORIZONTE - COMARCA; COORD DE INCLUSAO E MOBILIZACAO SOCIAIS 1.500,00 950,00 578,00 0,00 5.206,23 0,00 0,00 0,00 477,24 30/04/2023
1123 1587200 CHARLE ARAUJO FORZAN ESTAGIARIO 0,00 0,00 0,00 240,00 0,00 0,00 0,00 0,00 0,00 30/04/2023
1124 664100 CHARLES BARBOSA DA SILVA 3O. SARGENTO BELO HORIZONTE - COMARCA; NUCLEO DE OPERACOES DE SEGURANCA DE PESSOAL 1.500,00 0,00 0,00 0,00 0,00 0,00 0,00 0,00 0,00 30/04/2023
1125 210400 CHARLES DANIEL FRANCA SALOMAO PROMOT.ENTRANC.ESPECIAL PARÁ DE MINAS - COMARCA; PARA DE MINAS-PJ-02PJ 1.500,00 0,00 2.279,31 0,00 13.208,98 0,00 0,00 0,00 0,00 30/04/2023
1126 669200 CHARLES HENRIQUE SQUARCIO CABO BELO HORIZONTE - COMARCA; GAECO - SETOR POLICIAL MILITAR 1.500,00 0,00 0,00 0,00 0,00 0,00 0,00 0,00 0,00 30/04/2023
1127 243800 CHARLES MARTINS MUNIZ OFICIAL DO MP BELO HORIZONTE - COMARCA; LAB TECNOLOGIA CONTRA LAVAGEM DINHEIRO 1.500,00 0,00 0,00 0,00 2.949,91 0,00 0,00 0,00 270,41 30/04/2023
1128 193500 CHARLIN CESAR KOURLY OFICIAL DO MP ARAGUARI - COMARCA; ARAGUARI-PJ-07PJ 1.500,00 0,00 578,00 0,00 5.977,03 0,00 0,00 0,00 547,89 30/04/2023
1129 385500 CHILLEN PEIXOTO DE MOURA OFICIAL DO MP BELO HORIZONTE - COMARCA; DIVISAO DE MATERIAIS 1.500,00 950,00 578,00 0,00 0,00 0,00 0,00 0,00 0,00 30/04/2023
1130 534500 CHRISTIAN DOUGLAS BRITO RUAS OFICIAL DO MP SÃO JOÃO DA PONTE - COMARCA; SAO JOAO DA PONTE-PJ-SECRETARIA 1.500,00 0,00 578,00 0,00 0,00 0,00 0,00 0,00 0,00 30/04/2023
1131 370600 CHRISTIAN KARINE FELIX PRATES ASSESSOR ADMINISTRATIVO IV BELO HORIZONTE - COMARCA; SUPRIN DE PLANEJAMENTO E COORDENACAO 1.500,00 0,00 578,00 0,00 5.795,29 0,00 0,00 0,00 531,23 30/04/2023
1132 1486200 CHRISTIAN OLIVEIRA DUTRA ESTAGIARIO CORONEL FABRICIANO; CORONEL FABRICIANO-PJ-01PJ 0,00 0,00 0,00 240,00 0,00 0,00 0,00 0,00 0,00 30/04/2023
1133 435800 CHRISTIANA BAHIA ANDRADE PINA ANALISTA DO MP BELO HORIZONTE - COMARCA; LABORATORIO TECNOLOGIA INTELIGENCIA 1.500,00 0,00 578,00 0,00 5.221,66 0,00 0,00 0,00 478,65 30/04/2023
1134 516800 CHRISTIANE FERREIRA DO NASCIMENTO ANALISTA DO MP POUSO ALEGRE - COMARCA; POUSO ALEGRE-PJ-08PJ 1.500,00 0,00 578,00 0,00 0,00 0,00 0,00 0,00 0,00 30/04/2023
1135 176000 CHRISTIANE JUNQUEIRA PULITI ANDRADE DE BARROS ASSESSOR ADM. ESPECIAL BELO HORIZONTE - COMARCA; PROCURADORIA-GERAL ADJUNTA INSTITUCIONAL 1.500,00 0,00 578,00 0,00 5.206,23 0,00 0,00 0,00 477,23 30/04/2023
1136 1521700 CHRISTIANE KENIA GOMES ALVES ESTAGIARIO CURVELO; CURVELO-PJ-05PJ 0,00 0,00 0,00 240,00 0,00 0,00 0,00 0,00 0,00 30/04/2023
1137 319200 CHRISTIANE MARIA DE ASSIS RUSSO OFICIAL DO MP BELO HORIZONTE - COMARCA; CAO-ORDEM ECONOMICA E TRIBUTARIA-SECRETARIA 1.500,00 950,00 578,00 0,00 0,00 0,00 0,00 0,00 0,00 30/04/2023
1138 510300 CHRISTIANE MARY DE CARVALHO FERREIRA ANALISTA DO MP BELO HORIZONTE - COMARCA; DIRETORIA DE SISTEMAS DE INFORMACAO 1.500,00 0,00 578,00 0,00 0,00 0,00 0,00 0,00 0,00 30/04/2023
1139 424900 CHRISTIANE PEREIRA TURNER DE ARAUJO OFICIAL DO MP BELO HORIZONTE - COMARCA; CAO-PATRIMONIO PUBLICO 1.500,00 950,00 578,00 0,00 0,00 0,00 0,00 0,00 0,00 30/04/2023
1140 731000 CHRISTIANE TEIXEIRA ANTUNA ASSESSOR ADMINISTRATIVO III BELO HORIZONTE - COMARCA; DIR CONTEUDO JORNALISTICO 1.500,00 0,00 578,00 0,00 0,00 0,00 0,00 0,00 0,00 30/04/2023
1141 513700 CHRISTIANE VIEIRA SOARES PEDERSOLI COORDENADOR II BELO HORIZONTE - COMARCA; ASSESSORIA JURIDICA DO PROCON-MG 1.500,00 950,00 578,00 0,00 5.913,70 0,00 0,00 0,00 542,09 30/04/2023
1142 163300 CHRISTIANNE COTRIM ASSAD BENSOUSSAN PROMOT.ENTRANC.ESPECIAL BELO HORIZONTE - COMARCA; BH-12PJ JUIZO CRIMINAL-GAB 087PJ 1.500,00 0,00 3.444,29 0,00 10.622,16 0,00 0,00 0,00 608,56 30/04/2023
1143 371400 CHRISTIANO LEONARDO GONZAGA GOMES PROMOTOR 2A ENTRANCIA SABARÁ - COMARCA; SABARA-PJ-01PJ 1.500,00 0,00 2.228,66 0,00 22.616,64 0,00 0,00 0,00 518,30 30/04/2023
1144 1478800 CHRISTOPHER LUCAS SEOLDO ESTAGIARIO CATAGUASES; CATAGUASES-PJ-01PJ 0,00 0,00 0,00 240,00 0,00 0,00 0,00 0,00 0,00 30/04/2023
1145 412300 CHRYSTIAN MACHADO RIBEIRO ANALISTA DO MP VARGINHA - COMARCA; VARGINHA-PJ-04PJ 1.500,00 0,00 578,00 0,00 5.221,66 0,00 0,00 0,00 478,65 30/04/2023
1146 513800 CHRYSTIANE DO NASCIMENTO DE MAGALHAES OFICIAL DO MP UBERLÂNDIA - COMARCA; UBERLANDIA-PJ-10PJ 1.500,00 0,00 578,00 0,00 0,00 0,00 0,00 0,00 0,00 30/04/2023
1147 497900 CIBELE DE FREITAS SANCHES DIAS ANALISTA DO MP SABARÁ - COMARCA; SABARA-PJ-03PJ 1.500,00 0,00 578,00 0,00 1.777,48 0,00 0,00 0,00 162,94 30/04/2023
1148 500900 CIBELLE SILVA PRADO ALVARENGA ANALISTA DO MP ITANHANDU - COMARCA; ITANHANDU-PJ-UNPJ 1.500,00 950,00 578,00 0,00 0,00 0,00 0,00 0,00 0,00 30/04/2023
1149 1364400 CIBELLY OLIVEIRA SOARES ESTAGIARIO TEOFILO OTONI; TEOFILO OTONI-PJ-07PJ 0,00 0,00 0,00 240,00 0,00 0,00 0,00 0,00 0,00 30/04/2023
1150 296400 CINTIA APARECIDA MOREIRA NAVES E RODRIGUES ANALISTA DO MP CAMPO BELO - COMARCA; CAMPO BELO-PJ-01PJ 1.500,00 0,00 578,00 0,00 5.998,28 0,00 0,00 0,00 549,84 30/04/2023
1151 171200 CINTIA MARIA OLIVEIRA DE LUCENA PROMOT.ENTRANC.ESPECIAL BELO HORIZONTE - COMARCA; BH-23PJ INFRACIONAL-GAB 144PJ 1.500,00 0,00 1.671,50 0,00 18.885,89 0,00 0,00 0,00 577,07 30/04/2023
1152 407900 CINTIA NETO COMELLI ANALISTA DO MP BELO HORIZONTE - COMARCA; CENTRAL DE APOIO TECNICO-SETOR CONTABIL 1.500,00 0,00 578,00 0,00 0,00 0,00 0,00 0,00 0,00 30/04/2023
1153 304700 CINTIA QUEIROZ OFICIAL DO MP BELO HORIZONTE - COMARCA; OUVIDORIA DO MPMG 1.500,00 0,00 578,00 0,00 0,00 0,00 0,00 0,00 0,00 30/04/2023
1154 163000 CINTIA ROBERTA GOMES DE LIMA PROMOTOR 2A ENTRANCIA VARGINHA - COMARCA; COORD REG PJ DEF EDUC DIR CRIANCA ADOL SUL 1.500,00 0,00 2.279,31 0,00 12.548,54 0,00 0,00 0,00 0,00 30/04/2023
1155 1514600 CINTYA KALIANA DE QUEIROZ LEITE ESTAGIARIO PIRAPORA; PIRAPORA-PJ-02PJ 0,00 0,00 0,00 240,00 0,00 0,00 0,00 0,00 0,00 30/04/2023
1156 286100 CIRO CANGUSSU CORDEIRO OFICIAL DO MP IPATINGA - COMARCA; IPATINGA-PJ-09PJ 1.500,00 950,00 578,00 0,00 0,00 0,00 0,00 0,00 0,00 30/04/2023
1157 1345100 CIRO SILVA PERES ESTAGIARIO 0,00 0,00 0,00 240,00 0,00 0,00 0,00 0,00 0,00 30/04/2023
1158 689900 CISSA NOGUEIRA COLEN ASSESSOR PROCURADOR JUSTICA BELO HORIZONTE - COMARCA; GABINETE DE PROCURADOR DE JUSTIÇA - SALA 608 1.500,00 0,00 578,00 0,00 0,00 0,00 0,00 0,00 0,00 30/04/2023
1159 1381300 CLARA DE SALES DUARTE ESTAGIARIO BELO HORIZONTE; GABINETE DE PROCURADOR DE JUSTICA - SALA 311 0,00 0,00 0,00 240,00 0,00 0,00 0,00 0,00 0,00 30/04/2023
1160 681700 CLARA FERREIRA ALKIMIM ASSESSOR PROMOTOR JUSTICA PEDRA AZUL - COMARCA; PEDRA AZUL-PJ-02PJ 1.500,00 0,00 578,00 0,00 0,00 0,00 0,00 0,00 0,00 30/04/2023
1161 1485300 CLARA GABRIELA GOUVEIA MONTEIRO ESTAGIARIO BELO HORIZONTE; BH-07PJ 03 TRIBUNAL DO JURI-GAB 064PJ 0,00 0,00 0,00 228,00 0,00 0,00 0,00 0,00 0,00 30/04/2023
1162 715500 CLARA ISABELLE SOUSA FARIA ASSESSOR PROCURADOR JUSTICA BELO HORIZONTE - COMARCA; GABINETE DE PROCURADOR DE JUSTIÇA - SALA 712 1.500,00 0,00 578,00 0,00 0,00 0,00 0,00 0,00 0,00 30/04/2023
1163 1261100 CLARA LIMA LIPOVETSKY ESTAGIARIO BELO HORIZONTE; CORREGEDORIA-GERAL-ASSESSORIA 0,00 0,00 0,00 12,00 833,33 0,00 0,00 0,00 0,00 30/04/2023
1164 484900 CLARA MARIA HOEHNE SEPULVEDA PROMOT.ENTRANC.ESPECIAL SETE LAGOAS - COMARCA; SETE LAGOAS-PJ-09PJ 1.500,00 0,00 3.571,05 0,00 17.855,23 0,00 0,00 0,00 545,58 30/04/2023
1165 723100 CLARA PRADO CAMPOS ASSESSOR PROCURADOR JUSTICA BELO HORIZONTE - COMARCA; GABINETE DE PROCURADOR DE JUSTIÇA - SALA 1006 1.500,00 0,00 578,00 0,00 0,00 0,00 0,00 0,00 0,00 30/04/2023
1166 1572200 CLARA RIHS MATOS VIEIRA ESTAGIARIO TEOFILO OTONI; TEOFILO OTONI-PJ-08PJ 0,00 0,00 0,00 240,00 0,00 0,00 0,00 0,00 0,00 30/04/2023
1167 695500 CLARA RODRIGUES BLACH ASSESSOR PROCURADOR JUSTICA BELO HORIZONTE - COMARCA; GABINETE DE PROCURADOR DE JUSTIÇA - SALA 1003 1.500,00 0,00 578,00 0,00 0,00 0,00 0,00 0,00 0,00 30/04/2023
1168 1598100 CLARA RODRIGUES DE SALLES ESTAGIARIO SANTA LUZIA; SANTA LUZIA-PJ-04PJ 0,00 0,00 0,00 168,00 0,00 0,00 0,00 0,00 0,00 30/04/2023
1169 1324500 CLARA VIEIRA DE REZENDE ESTAGIARIO BELO HORIZONTE; PROC. JUSTICA DIR. DIFUSOS E COLETIVOS
1170 1523100 CLARICE ALVES NOGUEIRA ESTAGIARIO UBERABA; UBERABA-PJ-14PJ 0,00 0,00 0,00 240,00 0,00 0,00 0,00 0,00 0,00 30/04/2023
1171 412500 CLARICE GOMES MAROTTA ANALISTA DO MP BELO HORIZONTE - COMARCA; COORD ESTADUAL DE DEFESA DOS ANIMAIS 1.500,00 0,00 578,00 0,00 5.076,62 0,00 0,00 0,00 465,36 30/04/2023
1172 605300 CLARISSA AZEVEDO ROCHA OFICIAL DO MP BELO HORIZONTE - COMARCA; BH-17PJ PATRIMONIO PUBLICO-SECRETARIA 1.500,00 0,00 578,00 0,00 0,00 0,00 0,00 0,00 0,00 30/04/2023
1173 1387500 CLARISSA DE CARVALHO PATARO ESTAGIARIO PONTE NOVA; PONTE NOVA-PJ-05PJ 0,00 0,00 0,00 180,00 0,00 0,00 0,00 0,00 0,00 30/04/2023
1174 308100 CLARISSA DUARTE BELLONI DIRETOR-GERAL BELO HORIZONTE - COMARCA; DIRETORIA-GERAL 1.500,00 2.850,00 578,00 0,00 4.510,79 0,00 0,00 0,00 413,49 30/04/2023
1175 730500 CLARISSA FERNANDES ABREU ASSESSOR PROMOTOR JUSTICA SANTOS DUMONT - COMARCA; SANTOS DUMONT-PJ-02PJ 1.500,00 0,00 578,00 0,00 0,00 0,00 0,00 0,00 0,00 30/04/2023
1176 402100 CLARISSA GOBBO DOS SANTOS PROMOT.ENTRANC.ESPECIAL BELO HORIZONTE - COMARCA; GRUPO ESP PROM JUST DEF PROB ADM PAT PUB 1.500,00 0,00 3.571,05 0,00 17.855,23 0,00 0,00 0,00 545,58 30/04/2023
1177 497100 CLARISSA ROCHA GUIDI ANALISTA DO MP BELO HORIZONTE - COMARCA; BH-02PJ FAMILIA-SECRETARIA 1.500,00 1.900,00 578,00 0,00 5.744,64 0,00 0,00 0,00 526,59 30/04/2023
1178 661600 CLARISSE PEREZ DO NASCIMENTO NASCIF MENDES PROMOTOR 1A ENTRANCIA PIRANGA - COMARCA; PIRANGA-PJ-UNPJ 1.500,00 0,00 3.222,87 0,00 5.371,45 0,00 0,00 0,00 492,38 30/04/2023
1179 641800 CLARISSE TAVARES GONCALVES OFICIAL DO MP BELO HORIZONTE - COMARCA; BH-07PJ 01 TRIBUNAL JURI-SECRETARIA 1.500,00 0,00 578,00 0,00 0,00 0,00 0,00 0,00 0,00 30/04/2023
1180 463700 CLAUDIA ADRIANA FERRAO DIAS ANALISTA DO MP SETE LAGOAS - COMARCA; SETE LAGOAS-PJ-06PJ 1.500,00 0,00 578,00 0,00 5.924,93 0,00 0,00 0,00 543,12 30/04/2023
1181 415400 CLAUDIA ALMEIDA DE VASCONCELLOS BARROS OFICIAL DO MP BELO HORIZONTE - COMARCA; DIVISAO DE SERVICOS 1.500,00 0,00 578,00 0,00 4.774,35 0,00 0,00 0,00 437,65 30/04/2023
1182 207000 CLAUDIA APARECIDA VILELA MACHADO ANALISTA DO MP BELO HORIZONTE - COMARCA; CENTRAL DE APOIO TECNICO-SETOR CONTABIL 1.500,00 0,00 578,00 0,00 5.536,88 0,00 0,00 0,00 507,55 30/04/2023
1183 314400 CLAUDIA AUGUSTA LOPES DE MENDONCA PROMOT.ENTRANC.ESPECIAL BELO HORIZONTE - COMARCA; BH-09PJ AUDITORIA MILITAR-GAB 074PJ 1.500,00 0,00 3.571,05 0,00 17.855,23 0,00 0,00 0,00 545,58 30/04/2023
1184 365700 CLAUDIA BREGUEZ CUNHA ANALISTA DO MP VARGINHA - COMARCA; VARGINHA-PJ-07PJ 1.500,00 950,00 578,00 0,00 0,00 0,00 0,00 0,00 0,00 30/04/2023
1185 430500 CLAUDIA CECILIA SANTANA VENCESLAU OFICIAL DO MP BELO HORIZONTE - COMARCA; LAB TECNOLOGIA CONTRA LAVAGEM DINHEIRO 1.500,00 0,00 578,00 0,00 0,00 0,00 0,00 0,00 0,00 30/04/2023
1186 1480200 CLAUDIA DE AQUINO ESTAGIARIO BUENOPOLIS; BUENOPOLIS-PJ-UNPJ 0,00 0,00 0,00 192,00 0,00 0,00 0,00 0,00 0,00 30/04/2023
1187 98300 CLAUDIA DE OLIVEIRA IGNEZ PROMOTOR 2A ENTRANCIA NOVA LIMA - COMARCA; NOVA LIMA-PJ-01PJ 1.500,00 0,00 1.899,42 0,00 16.722,88 0,00 0,00 0,00 696,79 30/04/2023
1188 167300 CLAUDIA DO AMARAL XAVIER PROMOT.ENTRANC.ESPECIAL BELO HORIZONTE - COMARCA; BH-18PJ DIREITOS HUMANOS-GAB 125PJ 1.500,00 0,00 2.178,00 0,00 6.638,85 0,00 0,00 0,00 608,56 30/04/2023
1189 163100 CLAUDIA FERREIRA DE SOUZA PROMOT.ENTRANC.ESPECIAL BELO HORIZONTE - COMARCA; BH-02PJ FAMILIA-GAB 035PJ 1.500,00 0,00 3.571,05 0,00 30.460,81 0,00 0,00 0,00 734,80 30/04/2023
1190 174500 CLAUDIA FERREIRA PACHECO DE FREITAS PROMOT.ENTRANC.ESPECIAL BELO HORIZONTE - COMARCA; SECRETARIA-GERAL-GABINETE 1.500,00 0,00 3.571,05 0,00 18.885,90 0,00 0,00 0,00 577,07 30/04/2023
1191 213601 CLAUDIA GONCALVES CALIXTO ASSESSOR PROCURADOR JUSTICA BELO HORIZONTE - COMARCA; PROC. JUSTICA DIR. DIFUSOS E COLETIVOS-SEC 1.500,00 0,00 578,00 0,00 0,00 0,00 0,00 0,00 0,00 30/04/2023
1192 480400 CLAUDIA GOULART DE SOUZA OFICIAL DO MP PASSOS - COMARCA; PASSOS-PJ-06PJ 1.500,00 0,00 578,00 0,00 0,00 0,00 0,00 0,00 0,00 30/04/2023
1193 519800 CLAUDIA HELENA CORREA DE ALMEIDA ANALISTA DO MP BELO HORIZONTE - COMARCA; BH-12PJ JUIZO CRIMINAL-GAB 096PJ 1.500,00 0,00 578,00 0,00 0,00 0,00 0,00 0,00 0,00 30/04/2023
1194 422100 CLAUDIA IACOMINI CABRAL ANALISTA DO MP BELO HORIZONTE - COMARCA; CENT DE APOIO TEC-SETOR DEF,IDOSO E INFANC 1.500,00 0,00 578,00 0,00 4.931,57 0,00 0,00 0,00 452,06 30/04/2023
1195 258200 CLAUDIA LAGE MICHALAROS ANALISTA DO MP BELO HORIZONTE - COMARCA; CENTRAL DE APOIO TECN-SETOR DE MEIO AMBIENTE 1.500,00 0,00 578,00 0,00 0,00 0,00 0,00 0,00 0,00 30/04/2023
1196 284600 CLAUDIA LENI DE FREITAS OFICIAL DO MP CONTAGEM - COMARCA; CONTAGEM-PJ-SECRETARIA 1.500,00 0,00 578,00 0,00 0,00 0,00 0,00 0,00 0,00 30/04/2023
1197 175200 CLAUDIA LOPES SILVA SCIOLI PROMOT.ENTRANC.ESPECIAL POUSO ALEGRE - COMARCA; POUSO ALEGRE-PJ-07PJ 1.500,00 0,00 3.571,05 0,00 18.834,36 0,00 0,00 0,00 575,49 30/04/2023
1198 433600 CLAUDIA LUIZA SANTIAGO FELICIO ANALISTA DO MP BELO HORIZONTE - COMARCA; CENT DE APOIO TEC-SETOR DEF,IDOSO E INFANC 1.500,00 0,00 578,00 0,00 0,00 0,00 0,00 0,00 0,00 30/04/2023
1199 317000 CLAUDIA MACHADO ALVES OFICIAL DO MP BELO HORIZONTE - COMARCA; DIR GOVERNANCA TECNOLOGIA INFORMACAO 1.500,00 0,00 578,00 0,00 802,69 0,00 0,00 0,00 73,58 30/04/2023
1200 155300 CLAUDIA MACIEL MIRANDA OFICIAL DO MP CONGONHAS - COMARCA; CONGONHAS-PJ-02PJ 1.500,00 0,00 578,00 0,00 0,00 0,00 0,00 0,00 0,00 30/04/2023
1201 242200 CLAUDIA MICHELLE DIAS MUNIZ BALEEIRO OFICIAL DO MP MONTE AZUL - COMARCA; MONTE AZUL-PJ-SECRETARIA 1.500,00 0,00 578,00 0,00 5.267,70 0,00 0,00 0,00 482,87 30/04/2023
1202 236500 CLAUDIA NETO COMELLI PROMOT.ENTRANC.ESPECIAL BELO HORIZONTE - COMARCA; BH-23PJ INFRACIONAL-GAB 039PJ 1.500,00 0,00 3.571,05 0,00 17.578,74 0,00 0,00 0,00 460,40 30/04/2023
1203 623000 CLAUDIA PATRICIA SILVA RODRIGUES RAPOSEIRAS OFICIAL DO MP BELO HORIZONTE - COMARCA; DIVISÃO DE EDUCAÇÃO PARA O CONSUMO 1.500,00 0,00 578,00 0,00 0,00 0,00 0,00 0,00 0,00 30/04/2023
1204 418400 CLAUDIA REGINA MARTINS BONIFACIO OFICIAL DO MP ITUIUTABA - COMARCA; ITUIUTABA-PJ-06PJ 1.500,00 0,00 578,00 0,00 0,00 0,00 0,00 0,00 0,00 30/04/2023
1205 498300 CLAUDIA SOUTO FARIAS BRAUN OFICIAL DO MP TEÓFILO OTONI - COMARCA; TEOFILO OTONI-PJ-SECRETARIA 1.500,00 0,00 578,00 0,00 0,00 0,00 0,00 0,00 0,00 30/04/2023
1206 79600 CLAUDIA SPRANGER E SILVA LUIZ MOTTA PROCURADOR DE JUSTICA BELO HORIZONTE - COMARCA; GABINETE DE PROCURADOR DE JUSTIÇA - SALA 706 1.500,00 0,00 1.392,91 0,00 19.238,41 0,00 0,00 0,00 734,80 30/04/2023
1207 206500 CLAUDIA VALERIA FONSECA ANDRADE ANALISTA DO MP BELO HORIZONTE - COMARCA; BH-23PJ INF-FISC MED SOC FEC 1.500,00 0,00 578,00 0,00 5.206,23 0,00 0,00 0,00 477,23 30/04/2023
1208 1499800 CLAUDIELLE COSTA DE ARAUJO ESTAGIARIO JEQUITINHONHA; JEQUITINHONHA-PJ-COORD PJ 0,00 0,00 0,00 240,00 0,00 0,00 0,00 0,00 0,00 30/04/2023
1209 277500 CLAUDIO ANTONIO BORGES BRUNSWICK ALVARES OFICIAL DO MP BELO HORIZONTE - COMARCA; BH-15PJ M AMB PAT HIST CULT-GAB 116PJ 1.500,00 0,00 578,00 0,00 0,00 0,00 0,00 0,00 0,00 30/04/2023
1210 444800 CLAUDIO ARESIO DO CARMO ANALISTA DO MP SETE LAGOAS - COMARCA; SETE LAGOAS-PJ-01PJ 1.500,00 0,00 578,00 0,00 837,76 0,00 0,00 0,00 76,79 30/04/2023
1211 532100 CLAUDIO DANIEL FONSECA DE ALMEIDA PROMOTOR 2A ENTRANCIA MARIANA - COMARCA; MARIANA-PJ-02PJ 1.500,00 0,00 3.392,49 0,00 5.654,16 0,00 0,00 0,00 518,30 30/04/2023
1212 76700 CLAUDIO EMANUEL DA CUNHA PROCURADOR DE JUSTICA BELO HORIZONTE - COMARCA; GABINETE DE PROCURADOR DE JUSTICA - SALA 311 1.500,00 0,00 1.519,54 0,00 16.032,00 0,00 0,00 0,00 734,80 30/04/2023
1213 100500 CLAUDIO FERREIRA DE OLIVEIRA FILHO PROMOTOR 2A ENTRANCIA LAMBARI - COMARCA; LAMBARI-PJ-UNPJ 1.500,00 0,00 2.912,45 0,00 31.843,92 0,00 0,00 0,00 729,76 30/04/2023
1214 545100 CLAUDIO HENRIQUE MACEDO DE SOUZA FRANSOZO ANALISTA DO MP OURO PRETO - COMARCA; OURO PRETO-PJ-03PJ 1.500,00 950,00 578,00 0,00 0,00 0,00 0,00 0,00 1.234,36 30/04/2023
1215 353500 CLAUDIO HENRIQUE PEDRO DA ROCHA OFICIAL DO MP BELO HORIZONTE - COMARCA; DIVISAO TRANSPORTES 1.500,00 0,00 578,00 0,00 3.209,34 0,00 0,00 0,00 294,19 30/04/2023
1216 265800 CLAUDIO KUPIDLOWSKY FERNANDES OFICIAL DO MP BELO HORIZONTE - COMARCA; SECRETARIA DO PROCON-MG 1.500,00 0,00 578,00 0,00 4.838,69 0,00 0,00 0,00 443,55 30/04/2023
1217 193600 CLAUDIO LEITE FONTES OFICIAL DO MP ITUIUTABA - COMARCA; ITUIUTABA-PJ-02PJ 1.500,00 0,00 578,00 0,00 0,00 0,00 0,00 0,00 0,00 30/04/2023
1218 102000 CLAUDIO LUIZ GONCALVES MARINS PROMOTOR 2A ENTRANCIA GUAXUPÉ - COMARCA; GUAXUPE-PJ-03PJ 1.500,00 0,00 3.392,49 0,00 23.882,94 0,00 0,00 0,00 729,76 30/04/2023
1219 163200 CLAUDIO MAIA DE BARROS PROMOT.ENTRANC.ESPECIAL BELO HORIZONTE - COMARCA; COORD EST PJ TRIBUNAL JURI 1.500,00 0,00 3.191,03 0,00 6.638,85 0,00 0,00 0,00 608,56 30/04/2023
1220 329400 CLAUDIO MARCIO BERNARDES OFICIAL DO MP ITAÚNA - COMARCA; ITAUNA-PJ-03PJ 1.500,00 950,00 578,00 0,00 0,00 0,00 0,00 0,00 0,00 30/04/2023
1221 1495800 CLAUDIO MATEUS DE CAMARGOS JUNIOR ESTAGIARIO BELO HORIZONTE; BH-13PJ JUIZO DE TOXICOS-GAB 006PJ 0,00 0,00 0,00 120,00 208,33 0,00 0,00 0,00 0,00 30/04/2023
1222 270200 CLAUDIO RABELO ALVES OFICIAL DO MP FORMIGA - COMARCA; FORMIGA-PJ-03PJ 1.500,00 0,00 578,00 0,00 837,76 31,24 0,00 0,00 76,79 30/04/2023
1223 264700 CLAUDIO ROBERTO KFURI DE ARAUJO ANALISTA DO MP BELO HORIZONTE - COMARCA; CENTRAL DE APOIO TECNICO-SETOR DE INFORMATICA 1.500,00 0,00 578,00 0,00 0,00 0,00 0,00 0,00 0,00 30/04/2023
1224 543300 CLAUDIO SILVA DE CARVALHO ANALISTA DO MP CAMPO BELO - COMARCA; CAMPO BELO-PJ-03PJ 1.500,00 0,00 578,00 0,00 0,00 0,00 0,00 0,00 0,00 30/04/2023
1225 144300 CLAUDIO VARELLA DE SOUZA PROCURADOR DE JUSTICA BELO HORIZONTE - COMARCA; GABINETE DE PROCURADOR DE JUSTIÇA - SALA 712 1.500,00 0,00 1.392,91 0,00 6.941,82 0,00 0,00 0,00 636,33 30/04/2023
1226 160700 CLAUDIO VICENTE HESS ASSESSOR DE GABINETE I BELO HORIZONTE - COMARCA; CENTRAL DE APOIO TECNICO-SETOR DE INFORMATICA 1.500,00 0,00 578,00 0,00 5.439,23 0,00 0,00 0,00 498,60 30/04/2023
1227 312900 CLAUDIO VIEIRA FIRPE OFICIAL DO MP BELO HORIZONTE - COMARCA; DIR RELACOES INSTITUCIONAIS 1.500,00 0,00 578,00 0,00 0,00 0,00 0,00 0,00 0,00 30/04/2023
1228 634100 CLEA CRISTINA GUERRA DE FREITAS COSTA OFICIAL DO MP BELO HORIZONTE - COMARCA; BH-18PJ VIOLENCIA DOMESTICA-SECRETARIA 1.500,00 0,00 578,00 0,00 0,00 0,00 0,00 0,00 0,00 30/04/2023
1229 244800 CLEBER AUGUSTO DO NASCIMENTO PROMOTOR 2A ENTRANCIA CAMPO BELO - COMARCA; CAMPO BELO-PJ-04PJ 1.500,00 0,00 3.392,49 0,00 22.616,63 0,00 0,00 0,00 518,30 30/04/2023
1230 439000 CLEBER COUTO PROMOT.ENTRANC.ESPECIAL PATOS DE MINAS - COMARCA; GAECO REGIONAL DE PATOS DE MINAS 1.500,00 0,00 3.571,05 0,00 17.855,22 0,00 0,00 0,00 545,58 30/04/2023
1231 459200 CLEIA ZILLE PEREIRA ANALISTA DO MP BELO HORIZONTE - COMARCA; BH-07PJ 01 TRIBUNAL DO JURI-GAB 059PJ 1.500,00 1.425,00 578,00 0,00 0,00 0,00 0,00 0,00 0,00 30/04/2023
1232 481800 CLEIDE CARDOSO DA SILVA ANALISTA DO MP MANHUAÇU - COMARCA; MANHUACU-PJ-04PJ 1.500,00 0,00 578,00 0,00 0,00 0,00 0,00 0,00 0,00 30/04/2023
1233 225000 CLEIDE PEREIRA DA SILVA PROMOT.ENTRANC.ESPECIAL BELO HORIZONTE - COMARCA; BH-09PJ AUDITORIA MILITAR-GAB 161PJ 1.500,00 0,00 1.164,98 0,00 0,00 0,00 0,00 0,00 0,00 30/04/2023
1234 347600 CLEIDIMAR DE OLIVEIRA SILVA OFICIAL DO MP PATOS DE MINAS - COMARCA; PATOS DE MINAS-PJ-03PJ 1.500,00 0,00 578,00 0,00 0,00 0,00 0,00 0,00 0,00 30/04/2023
1235 396500 CLEIDISON BATISTA DE ANDRADE OFICIAL DO MP RESPLENDOR - COMARCA; RESPLENDOR-PJ-UNPJ 1.500,00 0,00 578,00 0,00 583,05 0,00 0,00 0,00 1.174,70 30/04/2023
1236 535100 CLEISON ALVES DA SILVA ANALISTA DO MP BOA ESPERANÇA - COMARCA; BOA ESPERANCA-PJ-01PJ 1.500,00 0,00 578,00 0,00 5.924,93 0,00 0,00 0,00 543,12 30/04/2023
1237 298100 CLEONICE AUGUSTA BARROS DE OLIVEIRA ANALISTA DO MP JUIZ DE FORA - COMARCA; JUIZ DE FORA-PJ-08PJ 1.500,00 0,00 578,00 0,00 0,00 0,00 0,00 0,00 0,00 30/04/2023
1238 114301 CLERES PEREIRA DA SILVA JUNIOR ASSESSOR ADMINISTRATIVO I BELO HORIZONTE - COMARCA; GAECO - SECRETARIA 1.500,00 0,00 578,00 0,00 0,00 0,00 0,00 0,00 0,00 30/04/2023
1239 264100 CLETO HENRIQUE ANDRADE SILVA ANALISTA DO MP BELO HORIZONTE - COMARCA; DIRETORIA DE SISTEMAS DE INFORMACAO 1.500,00 0,00 578,00 0,00 0,00 0,00 0,00 0,00 0,00 30/04/2023
1240 334400 CLEUBA DE OLIVEIRA BARCELOS GONCALVES OFICIAL DO MP DIVINÓPOLIS - COMARCA; COORD REG SAUDE MACRORREGIAO SANITARIA OESTE 1.500,00 0,00 578,00 0,00 0,00 0,00 0,00 0,00 0,00 30/04/2023
1241 347500 CLEUSA CORDEIRO DA MATA PIMENTA OFICIAL DO MP CAMPO BELO - COMARCA; CAMPO BELO-PJ-01PJ 1.500,00 0,00 578,00 0,00 5.397,25 0,00 0,00 0,00 494,75 30/04/2023
1242 1534600 CLEVERSON CHRISTIAN GOMES DE SOUZA ESTAGIARIO BELO HORIZONTE; BH-17PJ PATRIMONIO PUBLICO-GAB 123PJ 0,00 0,00 0,00 240,00 0,00 0,00 0,00 0,00 0,00 30/04/2023
1243 92400 CLEVERSON RAYMUNDO SBARZI GUEDES PROMOT.ENTRANC.ESPECIAL JUIZ DE FORA - COMARCA; JUIZ DE FORA-PJ-07PJ 1.500,00 0,00 3.571,05 0,00 32.064,01 0,00 0,00 0,00 734,80 30/04/2023
1244 675000 CLEVERTON FRANCISCO GONCALVES DA SILVA CAPITAO 1.500,00 0,00 0,00 0,00 0,00 0,00 0,00 0,00 0,00 30/04/2023
1245 510200 CLEZIO SALES SILVA OFICIAL DO MP BRASÓPOLIS - COMARCA; BRASOPOLIS-PJ-UNPJ 1.500,00 950,00 578,00 0,00 0,00 664,56 0,00 0,00 0,00 30/04/2023
1246 1514200 CLICIA LAIANE DE ASSIS BENTO ESTAGIARIO ERVALIA; ERVALIA-PJ-UNPJ 0,00 0,00 0,00 216,00 0,00 0,00 0,00 0,00 0,00 30/04/2023
1247 323000 CLOTILDE DE PADUA VIEIRA OFICIAL DO MP BELO HORIZONTE - COMARCA; BH-19PJ SAUDE-SECRETARIA 129PJ 1.500,00 0,00 578,00 0,00 0,00 0,00 0,00 0,00 0,00 30/04/2023
1248 285200 CLOVIS ANDRE LUDTKE OFICIAL DO MP BELO HORIZONTE - COMARCA; DIVISAO DE MANUTENCAO PREDIAL 1.500,00 0,00 578,00 0,00 0,00 0,00 0,00 0,00 0,00 30/04/2023
1249 381100 CONCEICAO APARECIDA TEIXEIRA ARANTES ANALISTA DO MP BELO HORIZONTE - COMARCA; BH-23PJ INFRACIONAL-ASS JURIDICA 1.500,00 950,00 578,00 0,00 5.927,82 0,00 0,00 0,00 4.354,12 30/04/2023
1250 249900 CONSTANTINO CEZAR GOMES MOTA OFICIAL DO MP MONTES CLAROS - COMARCA; COORD REG BACIA RIOS VERDE GRANDE E PARDO 1.500,00 1.900,00 578,00 0,00 0,00 0,00 0,00 0,00 0,00 30/04/2023
1251 594800 COSME COELHO TEIXEIRA 2O. SARGENTO BELO HORIZONTE - COMARCA; NUCLEO DE CONTRAINTELIGENCIA 1.500,00 0,00 0,00 0,00 0,00 0,00 0,00 0,00 0,00 30/04/2023
1252 481000 CRISHMA ANALIA LOMBELLO ANALISTA DO MP JUIZ DE FORA - COMARCA; JUIZ DE FORA-PJ-13PJ 1.500,00 0,00 578,00 0,00 0,00 0,00 0,00 0,00 0,00 30/04/2023
1253 1399300 CRISLAYNE SOUZA MELO ESTAGIARIO ARAGUARI; ARAGUARI-PJ-07PJ 0,00 0,00 0,00 240,00 0,00 0,00 0,00 0,00 0,00 30/04/2023
1254 523900 CRISTHYANE BAZOLI COSTA GUEDES COUTO OFICIAL DO MP BELO HORIZONTE - COMARCA; BH-04PJ JUIZO REG PÚBLICOS-SECRETARIA 1.500,00 0,00 578,00 0,00 0,00 0,00 0,00 0,00 0,00 30/04/2023
1255 187000 CRISTIAN DAYVSON EVANGELISTA OFICIAL DO MP JUIZ DE FORA - COMARCA; JUIZ DE FORA-PJ-13PJ 1.500,00 0,00 578,00 0,00 0,00 0,00 0,00 0,00 0,00 30/04/2023
1256 245000 CRISTIAN LUCIO DA SILVA PROMOT.ENTRANC.ESPECIAL BELO HORIZONTE - COMARCA; BH-07PJ 03 TRIBUNAL DO JURI-GAB 064PJ 1.500,00 0,00 3.241,68 0,00 17.855,23 0,00 0,00 0,00 545,58 30/04/2023
1257 682100 CRISTIAN TRISTAO DE ANDRADE ASSESSOR PROMOTOR JUSTICA TRÊS CORACOES - COMARCA; TRES CORACOES-PJ-04PJ 1.500,00 0,00 578,00 0,00 2.114,61 0,00 0,00 0,00 193,84 30/04/2023
1258 319800 CRISTIANA GONCALVES DOS SANTOS GUSMAO OFICIAL DO MP PARAOPEBA - COMARCA; PARAOPEBA-PJ-UNPJ 1.500,00 0,00 578,00 0,00 0,00 0,00 0,00 0,00 0,00 30/04/2023
1259 520600 CRISTIANA JANAINA BARBOZA JUVENCIO DOS SANTOS ANALISTA DO MP BELO HORIZONTE - COMARCA; BH-02PJ FAMILIA-SECRETARIA 1.500,00 0,00 578,00 0,00 0,00 0,00 0,00 0,00 0,00 30/04/2023
1260 195600 CRISTIANA SOARES HALABI OFICIAL DO MP UBERABA - COMARCA; UBERABA-PJ-01PJ 1.500,00 0,00 578,00 0,00 5.749,43 0,00 0,00 0,00 527,03 30/04/2023
1261 218900 CRISTIANE ALVES BELLES OFICIAL DO MP JUIZ DE FORA - COMARCA; JUIZ DE FORA-PJ-10PJ 1.500,00 1.425,00 578,00 0,00 0,00 0,00 0,00 0,00 0,00 30/04/2023
1262 1449100 CRISTIANE APARECIDA CALDEIRA SILVA ESTAGIARIO CONTAGEM; CONTAGEM-PJ-09PJ 0,00 0,00 0,00 228,00 0,00 0,00 0,00 0,00 0,00 30/04/2023
1263 291600 CRISTIANE CAMPOS AMORIM BARONY PROMOTOR 2A ENTRANCIA CARANGOLA - COMARCA; CARANGOLA-PJ-03PJ 1.500,00 0,00 3.392,49 0,00 16.962,47 0,00 0,00 0,00 518,30 30/04/2023
1264 263600 CRISTIANE CARVALHO COUTINHO OFICIAL DO MP BELO HORIZONTE - COMARCA; BH-23PJ INFRACIONAL-SEC EXP 1.500,00 0,00 578,00 0,00 0,00 0,00 0,00 0,00 0,00 30/04/2023
1265 541000 CRISTIANE COELHO ALVES OFICIAL DO MP ITABIRA - COMARCA; ITABIRA-PJ-03PJ 1.500,00 0,00 578,00 0,00 150,13 0,00 0,00 0,00 764,43 30/04/2023
1266 441700 CRISTIANE CORRADO DE ANDRADE ANALISTA DO MP BELO HORIZONTE - COMARCA; DIRETORIA DE SISTEMAS DE INFORMACAO 1.500,00 0,00 578,00 0,00 1.031,10 0,00 0,00 0,00 94,52 30/04/2023
1267 1304100 CRISTIANE DA CONCEICAO FERREIRA ESTAGIARIO JABOTICATUBAS; JABOTICATUBAS-PJ-UNPJ 0,00 0,00 0,00 240,00 0,00 0,00 0,00 0,00 0,00 30/04/2023
1268 375100 CRISTIANE DAS DORES ERCIO DE LIMA OFICIAL DO MP GOVERNADOR VALADARES - COMARCA; GOVERNADOR VALADARES-PJ-12PJ 1.500,00 0,00 578,00 0,00 0,00 0,00 0,00 0,00 0,00 30/04/2023
1269 178800 CRISTIANE DE LIMA HOSKEN OFICIAL DO MP BELO HORIZONTE - COMARCA; BH-14PJ DEFESA CONSUMIDOR-GAB 110PJ 1.500,00 0,00 578,00 0,00 5.977,03 0,00 0,00 0,00 547,89 30/04/2023
1270 494000 CRISTIANE DE MELO MARQUEZ OLIVEIRA ANALISTA DO MP UBERLÂNDIA - COMARCA; UBERLANDIA-PJ-06PJ 1.500,00 950,00 578,00 0,00 0,00 0,00 0,00 0,00 0,00 30/04/2023
1271 266100 CRISTIANE DE OLIVEIRA CASTRO OFICIAL DO MP BELO HORIZONTE - COMARCA; BH-14PJ DEFESA CONSUMIDOR-SECRETARIA 1.500,00 0,00 578,00 0,00 0,00 0,00 1.771,66 0,00 0,00 30/04/2023
1272 329500 CRISTIANE DOS REIS SILVA OFICIAL DO MP ARAXÁ - COMARCA; ARAXA-PJ-04PJ 1.500,00 0,00 578,00 0,00 0,00 0,00 0,00 0,00 0,00 30/04/2023
1273 301600 CRISTIANE GODINHO PIRES ANALISTA DO MP BETIM - COMARCA; BETIM-PJ-06PJ 1.500,00 0,00 578,00 0,00 5.998,28 0,00 0,00 0,00 549,84 30/04/2023
1274 406100 CRISTIANE GONCALVES CHAVES ANALISTA DO MP BELO HORIZONTE - COMARCA; BH-14PJ DEFESA CONSUMIDOR-GAB 112PJ 1.500,00 0,00 578,00 0,00 0,00 0,00 0,00 0,00 0,00 30/04/2023
1275 487600 CRISTIANE LOPES DE OLIVEIRA OFICIAL DO MP DIVINÓPOLIS - COMARCA; DIVINOPOLIS-PJ-03PJ 1.500,00 0,00 578,00 0,00 0,00 0,00 0,00 0,00 0,00 30/04/2023
1276 502500 CRISTIANE MACIEL DE OLIVEIRA GOMES ANALISTA DO MP JUIZ DE FORA - COMARCA; JUIZ DE FORA-PJ-02PJ 1.500,00 950,00 578,00 0,00 0,00 0,00 0,00 0,00 0,00 30/04/2023
1277 285500 CRISTIANE MAGALHAES LOURENCO ANALISTA DO MP BELO HORIZONTE - COMARCA; CENTRAL DE APOIO TECNICO-SETOR CONTABIL 1.500,00 0,00 578,00 0,00 5.998,28 0,00 0,00 0,00 549,84 30/04/2023
1278 536500 CRISTIANE MICHELE DE SOUZA ANALISTA DO MP BARÃO DE COCAIS - COMARCA; BARAO DE COCAIS-PJ-UNPJ 1.500,00 0,00 578,00 0,00 0,00 0,00 0,00 0,00 0,00 30/04/2023
1279 346600 CRISTIANE NOGUEIRA ANDRADE ANALISTA DO MP BELO HORIZONTE - COMARCA; CENTRAL DE APOIO TECNICO-SETOR CONTABIL 1.500,00 0,00 578,00 0,00 0,00 0,00 0,00 0,00 0,00 30/04/2023
1280 234000 CRISTIANE OLIVEIRA TOSTES OFICIAL DO MP JUIZ DE FORA - COMARCA; JUIZ DE FORA-PJ-08PJ 1.500,00 950,00 578,00 0,00 0,00 0,00 0,00 0,00 0,00 30/04/2023
1281 445800 CRISTIANE ORZIL COSTA OFICIAL DO MP SANTA LUZIA - COMARCA; SANTA LUZIA-PJ-05PJ 1.500,00 950,00 578,00 0,00 0,00 0,00 0,00 0,00 0,00 30/04/2023
1282 616100 CRISTIANE PAES RODRIGUES MARCICANO ANALISTA DO MP CATAGUASES - COMARCA; CATAGUASES-PJ-05PJ 1.500,00 950,00 578,00 0,00 0,00 0,00 0,00 0,00 0,00 30/04/2023
1283 612300 CRISTIANE RIBEIRO DOS REIS ARCANJO OFICIAL DO MP BELO HORIZONTE - COMARCA; DIRETORIA DE PAGAMENTO DE PESSOAL-DPAG
1284 257700 CRISTIANE RODRIGUES PAES NUNES ANALISTA DO MP BELO HORIZONTE - COMARCA; BH-22PJ PES COM DEF E IDOSOS-ORIENTACAO PSIC 1.500,00 950,00 578,00 0,00 5.167,75 0,00 0,00 0,00 473,71 30/04/2023
1285 1372000 CRISTIANE SALES RODRIGUES ESTAGIARIO ARAXA; ARAXA-PJ-02PJ 0,00 0,00 0,00 132,00 0,00 0,00 0,00 0,00 0,00 30/04/2023
1286 510800 CRISTIANE SANTOS FERNANDES ORNELES ANALISTA DO MP BELO HORIZONTE - COMARCA; BH-03PJ EMPRESARIAL-SECRETARIA 1.500,00 0,00 578,00 0,00 0,00 0,00 0,00 0,00 0,00 30/04/2023
1287 535701 CRISTIANE SANTOS MIRANDA ANALISTA DO MP CONTAGEM - COMARCA; CONTAGEM-PJ-03PJ 1.500,00 0,00 578,00 0,00 0,00 0,00 0,00 0,00 0,00 30/04/2023
1288 163400 CRISTIANO CASSIOLATO PROMOTOR 1A ENTRANCIA CARMO DO RIO CLARO - COMARCA; CARMO DO RIO CLARO-PJ-UNPJ 1.500,00 0,00 3.222,87 0,00 17.974,68 0,00 0,00 0,00 549,23 30/04/2023
1289 484000 CRISTIANO CESAR PIMENTA DAYRELL DA CUNHA PROMOT.ENTRANC.ESPECIAL SETE LAGOAS - COMARCA; SETE LAGOAS-PJ-01PJ 1.500,00 0,00 3.571,05 0,00 23.806,97 0,00 0,00 0,00 545,58 30/04/2023
1290 299901 CRISTIANO DA COSTA MATA PROMOT.ENTRANC.ESPECIAL IPATINGA - COMARCA; IPATINGA-PJ-10PJ 1.500,00 0,00 3.287,73 0,00 17.855,23 0,00 0,00 0,00 545,58 30/04/2023
1291 536200 CRISTIANO DE OLIVEIRA ANALISTA DO MP CONCEIÇÃO DO MATO DENTRO - COMARCA; CONCEICAO DO MATO DENTRO-PJ-UNPJ 1.500,00 1.900,00 578,00 0,00 0,00 0,00 0,00 0,00 0,00 30/04/2023
1292 1598700 CRISTIANO DE OLIVEIRA CORREA ESTAGIARIO ARAXA; ARAXA-PJ-03PJ 0,00 0,00 0,00 108,00 0,00 0,00 0,00 0,00 0,00 30/04/2023
1293 675100 CRISTIANO GERALDO CUNHA CABO BELO HORIZONTE - COMARCA; GAECO - SETOR POLICIAL MILITAR 1.500,00 0,00 0,00 0,00 0,00 0,00 0,00 0,00 0,00 30/04/2023
1294 1399200 CRISTIANO MORAIS COSTA ESTAGIARIO BELO HORIZONTE; DIVISAO DE MANUTENCAO PREDIAL 0,00 0,00 0,00 240,00 0,00 0,00 0,00 0,00 0,00 30/04/2023
1295 440000 CRISTIANO MOREIRA SILVA PROMOTOR 2A ENTRANCIA CAPELINHA - COMARCA; CAPELINHA-PJ-02PJ 1.500,00 0,00 1.519,54 0,00 22.616,63 0,00 0,00 0,00 518,30 30/04/2023
1296 167400 CRISTIANO ROCHA GAZAL PROMOTOR 1A ENTRANCIA CAMBUQUIRA - COMARCA; CAMBUQUIRA-PJ-UNPJ 1.500,00 0,00 2.380,61 0,00 23.966,24 0,00 0,00 0,00 549,23 30/04/2023
1297 477400 CRISTIANO SOARES ELEUTERIO ANALISTA DO MP BELO HORIZONTE - COMARCA; GABINETE DE PROCURADOR DE JUSTIÇA - SALA 812 1.500,00 0,00 578,00 0,00 0,00 0,00 0,00 0,00 0,00 30/04/2023
1298 449400 CRISTIANO TEIXEIRA RODRIGUES LANA ANALISTA DO MP BELO HORIZONTE - COMARCA; BH-18PJ VIOLENCIA DOMESTICA-SECRETARIA 1.500,00 0,00 578,00 0,00 0,00 0,00 0,00 0,00 0,00 30/04/2023
1299 106600 CRISTINA BECHARA KALLAS PROMOTOR 2A ENTRANCIA PASSOS - COMARCA; PASSOS-PJ-03PJ 1.500,00 0,00 2.912,45 0,00 9.619,20 0,00 0,00 0,00 734,80 30/04/2023
1300 239400 CRISTINA DE FATIMA CRUZ E SILVA OFICIAL DO MP MONTE SANTO DE MINAS - COMARCA; MONTE SANTO DE MINAS-PJ-SECRETARIA 1.500,00 0,00 578,00 0,00 0,00 0,00 0,00 0,00 0,00 30/04/2023
1301 544000 CRISTINA DE OLIVEIRA TERRA ANALISTA DO MP BELO HORIZONTE - COMARCA; BH-18PJ VIOLENCIA DOMESTICA-SECRETARIA 1.500,00 0,00 578,00 0,00 0,00 0,00 0,00 0,00 1.234,36 30/04/2023
1302 356800 CRISTINA DE PINHO BARROSO OFICIAL DO MP SABINÓPOLIS - COMARCA; SABINOPOLIS-PJ-UNPJ 1.500,00 950,00 578,00 0,00 0,00 0,00 0,00 0,00 0,00 30/04/2023
1303 649500 CRISTINA DO DIVINO ESPIRITO SANTOS OFICIAL DO MP DIVINÓPOLIS - COMARCA; DIVINOPOLIS-PJ-12PJ 1.500,00 0,00 578,00 0,00 0,00 0,00 0,00 0,00 0,00 30/04/2023
1304 727100 CRISTINA DORNELLES CLARET ASSESSOR ADMINISTRATIVO III BELO HORIZONTE - COMARCA; CAO-MEIO AMBIENTE 1.500,00 0,00 578,00 0,00 0,00 0,00 0,00 0,00 0,00 30/04/2023
1305 218500 CRISTINA FAGUNDES SIQUEIRA PROMOTOR 2A ENTRANCIA ARAGUARI - COMARCA; ARAGUARI-PJ-04PJ 1.500,00 0,00 3.392,49 0,00 5.980,53 0,00 0,00 0,00 548,22 30/04/2023
1306 484500 CRISTINA FERREIRA LABARRERE NASCIMENTO PROMOTOR SUBSTITUTO RIBEIRÃO DAS NEVES - COMARCA; RIBEIRAO DAS NEVES-PJ-09PJ 1.500,00 0,00 2.076,71 0,00 21.485,80 0,00 0,00 0,00 492,38 30/04/2023
1307 348201 CRISTINA MARIA DA SILVA ANALISTA DO MP ARAXÁ - COMARCA; ARAXA-PJ-06PJ 1.500,00 2.136,08 578,00 0,00 0,00 0,00 0,00 0,00 0,00 30/04/2023
1308 434900 CRISTINA MELO DE MADUREIRA ANALISTA DO MP BELO HORIZONTE - COMARCA; BH-07PJ 01 TRIBUNAL JURI-SECRETARIA 1.500,00 0,00 578,00 0,00 0,00 0,00 0,00 0,00 0,00 30/04/2023
1309 307700 CRISTINA TEIXEIRA MARQUES OFICIAL DO MP BELO HORIZONTE - COMARCA; CENTRAL DE APOIO TECNICO-SETOR CONTABIL 1.500,00 0,00 578,00 0,00 0,00 0,00 0,00 0,00 0,00 30/04/2023
1310 58700 CRISTOVAM JOAQUIM FERNANDES RAMOS FILHO PROCURADOR DE JUSTICA BELO HORIZONTE - COMARCA; PROC JUST ESP ACOES COMP ORIG CRIMINAL 0,00 0,00 1.519,54 0,00 8.016,00 0,00 0,00 0,00 734,80 30/04/2023
1311 265300 CRISTOVAO SANCHES DE MEDEIROS ANALISTA DO MP BELO HORIZONTE - COMARCA; DIRETORIA DE CONTABILIDADE 1.500,00 0,00 578,00 0,00 0,00 0,00 0,00 0,00 0,00 30/04/2023
1312 349800 CROZEIR LUIZ DA SILVA OFICIAL DO MP UNAÍ - COMARCA; UNAI-PJ-SECRETARIA 1.500,00 0,00 578,00 0,00 0,00 762,54 0,00 0,00 0,00 30/04/2023
13